<?xml version="1.0" encoding="UTF-8"?>
<gpx version="1.1" creator="2bulu-scraper" xmlns="http://www.topografix.com/GPX/1/1">
  <metadata><name>内江双古牛峰山 10:58:10</name><desc>source: 2bulu.com trackId=77295443; exported 2026-09-01T15:49:17.199Z</desc>
    <bounds minlat="29.532136" minlon="104.264118" maxlat="29.54942" maxlon="104.281331"/>
    <link href="https://www.2bulu.com/track/t-y1PR%252FzAVhMjp%252FR2KBg5Tzw%253D%253D.htm"><text>2bulu 源页面</text></link>
  </metadata>
  <wpt lat="29.547756" lon="104.273741"><ele>472</ele><name>停车起点</name></wpt>
  <wpt lat="29.545341" lon="104.276524"><ele>504</ele><name></name></wpt>
  <wpt lat="29.544965" lon="104.27832"><ele>529</ele><name></name></wpt>
  <wpt lat="29.545074" lon="104.27917"><ele>536</ele><name></name></wpt>
  <wpt lat="29.545328" lon="104.280479"><ele>553</ele><name></name></wpt>
  <wpt lat="29.544008" lon="104.280452"><ele>569</ele><name>向右走</name></wpt>
  <wpt lat="29.541838" lon="104.27771"><ele>581</ele><name>走左</name></wpt>
  <wpt lat="29.539715" lon="104.277978"><ele>604</ele><name>走下面
</name></wpt>
  <wpt lat="29.538508" lon="104.27982"><ele>614</ele><name></name></wpt>
  <wpt lat="29.537221" lon="104.281323"><ele>621</ele><name>右👉</name></wpt>
  <wpt lat="29.536884" lon="104.280836"><ele>613</ele><name></name></wpt>
  <wpt lat="29.536431" lon="104.279589"><ele>593</ele><name></name></wpt>
  <wpt lat="29.534322" lon="104.279206"><ele>595</ele><name>右👉</name></wpt>
  <wpt lat="29.53525" lon="104.275791"><ele>580</ele><name></name></wpt>
  <wpt lat="29.536261" lon="104.275101"><ele>575</ele><name>右边小路</name></wpt>
  <wpt lat="29.536575" lon="104.275423"><ele>576</ele><name></name></wpt>
  <wpt lat="29.537526" lon="104.275626"><ele>579</ele><name>走下面</name></wpt>
  <wpt lat="29.53818" lon="104.276737"><ele>625</ele><name>水星门</name></wpt>
  <wpt lat="29.538332" lon="104.272222"><ele>677</ele><name></name></wpt>
  <wpt lat="29.538502" lon="104.269416"><ele>633</ele><name></name></wpt>
  <wpt lat="29.536076" lon="104.266958"><ele>573</ele><name></name></wpt>
  <wpt lat="29.547917" lon="104.268682"><ele>482</ele><name></name></wpt>
  <wpt lat="29.549383" lon="104.270621"><ele>483</ele><name></name></wpt>
  <trk><name>内江双古牛峰山 10:58:10</name>
      <trkseg>
        <trkpt lat="29.547756" lon="104.273741"><ele>471.67358</ele><time>2026-01-04T18:58:30.000Z</time></trkpt>
        <trkpt lat="29.547793" lon="104.273776"><ele>470.9173</ele><time>2026-01-04T18:58:52.000Z</time></trkpt>
        <trkpt lat="29.547813" lon="104.273824"><ele>470.49725</ele><time>2026-01-04T18:59:06.000Z</time></trkpt>
        <trkpt lat="29.547842" lon="104.273887"><ele>470.2213</ele><time>2026-01-04T18:59:23.000Z</time></trkpt>
        <trkpt lat="29.547853" lon="104.273938"><ele>470.6123</ele><time>2026-01-04T18:59:37.000Z</time></trkpt>
        <trkpt lat="29.54784" lon="104.273977"><ele>471.25128</ele><time>2026-01-04T18:59:41.000Z</time></trkpt>
        <trkpt lat="29.547823" lon="104.274027"><ele>470.96286</ele><time>2026-01-04T18:59:45.000Z</time></trkpt>
        <trkpt lat="29.547791" lon="104.274083"><ele>470.60345</ele><time>2026-01-04T18:59:51.000Z</time></trkpt>
        <trkpt lat="29.547766" lon="104.27413"><ele>470.186</ele><time>2026-01-04T18:59:56.000Z</time></trkpt>
        <trkpt lat="29.547754" lon="104.274184"><ele>469.8827</ele><time>2026-01-04T19:00:01.000Z</time></trkpt>
        <trkpt lat="29.547739" lon="104.27424"><ele>470.13354</ele><time>2026-01-04T19:00:07.000Z</time></trkpt>
        <trkpt lat="29.547723" lon="104.274302"><ele>470.25204</ele><time>2026-01-04T19:00:18.000Z</time></trkpt>
        <trkpt lat="29.547713" lon="104.274344"><ele>470.3672</ele><time>2026-01-04T19:00:23.000Z</time></trkpt>
        <trkpt lat="29.547695" lon="104.274401"><ele>470.68286</ele><time>2026-01-04T19:00:30.000Z</time></trkpt>
        <trkpt lat="29.547675" lon="104.274447"><ele>471.29193</ele><time>2026-01-04T19:00:35.000Z</time></trkpt>
        <trkpt lat="29.547652" lon="104.274503"><ele>471.9133</ele><time>2026-01-04T19:00:41.000Z</time></trkpt>
        <trkpt lat="29.547624" lon="104.274551"><ele>471.80582</ele><time>2026-01-04T19:00:47.000Z</time></trkpt>
        <trkpt lat="29.547593" lon="104.274592"><ele>472.49927</ele><time>2026-01-04T19:00:52.000Z</time></trkpt>
        <trkpt lat="29.547549" lon="104.274588"><ele>473.0071</ele><time>2026-01-04T19:00:56.000Z</time></trkpt>
        <trkpt lat="29.547498" lon="104.274603"><ele>473.43564</ele><time>2026-01-04T19:01:01.000Z</time></trkpt>
        <trkpt lat="29.547452" lon="104.274627"><ele>474.2433</ele><time>2026-01-04T19:01:07.000Z</time></trkpt>
        <trkpt lat="29.547418" lon="104.274652"><ele>474.32187</ele><time>2026-01-04T19:01:11.000Z</time></trkpt>
        <trkpt lat="29.547373" lon="104.274672"><ele>474.70212</ele><time>2026-01-04T19:01:16.000Z</time></trkpt>
        <trkpt lat="29.547325" lon="104.274702"><ele>474.9557</ele><time>2026-01-04T19:01:22.000Z</time></trkpt>
        <trkpt lat="29.547289" lon="104.274732"><ele>475.74536</ele><time>2026-01-04T19:01:26.000Z</time></trkpt>
        <trkpt lat="29.547242" lon="104.274764"><ele>476.18973</ele><time>2026-01-04T19:01:31.000Z</time></trkpt>
        <trkpt lat="29.547199" lon="104.274793"><ele>477.1101</ele><time>2026-01-04T19:01:36.000Z</time></trkpt>
        <trkpt lat="29.547158" lon="104.274807"><ele>477.0091</ele><time>2026-01-04T19:01:40.000Z</time></trkpt>
        <trkpt lat="29.547102" lon="104.274834"><ele>478.17572</ele><time>2026-01-04T19:01:48.000Z</time></trkpt>
        <trkpt lat="29.547061" lon="104.27486"><ele>478.8834</ele><time>2026-01-04T19:01:53.000Z</time></trkpt>
        <trkpt lat="29.54702" lon="104.274893"><ele>479.07782</ele><time>2026-01-04T19:01:58.000Z</time></trkpt>
        <trkpt lat="29.546972" lon="104.274924"><ele>478.8738</ele><time>2026-01-04T19:02:03.000Z</time></trkpt>
        <trkpt lat="29.546921" lon="104.274972"><ele>479.5233</ele><time>2026-01-04T19:02:18.000Z</time></trkpt>
        <trkpt lat="29.546886" lon="104.274991"><ele>479.8153</ele><time>2026-01-04T19:02:25.000Z</time></trkpt>
        <trkpt lat="29.546841" lon="104.275011"><ele>479.90533</ele><time>2026-01-04T19:02:29.000Z</time></trkpt>
        <trkpt lat="29.546785" lon="104.275046"><ele>480.40247</ele><time>2026-01-04T19:02:36.000Z</time></trkpt>
        <trkpt lat="29.546748" lon="104.275063"><ele>479.89017</ele><time>2026-01-04T19:02:39.000Z</time></trkpt>
        <trkpt lat="29.546686" lon="104.275079"><ele>479.99496</ele><time>2026-01-04T19:02:44.000Z</time></trkpt>
        <trkpt lat="29.54663" lon="104.275104"><ele>480.4328</ele><time>2026-01-04T19:02:50.000Z</time></trkpt>
        <trkpt lat="29.546585" lon="104.275128"><ele>480.4534</ele><time>2026-01-04T19:02:55.000Z</time></trkpt>
        <trkpt lat="29.546552" lon="104.275163"><ele>480.35815</ele><time>2026-01-04T19:02:59.000Z</time></trkpt>
        <trkpt lat="29.546508" lon="104.275207"><ele>479.76038</ele><time>2026-01-04T19:03:04.000Z</time></trkpt>
        <trkpt lat="29.546467" lon="104.275229"><ele>479.19843</ele><time>2026-01-04T19:03:08.000Z</time></trkpt>
        <trkpt lat="29.546414" lon="104.275251"><ele>478.4711</ele><time>2026-01-04T19:03:13.000Z</time></trkpt>
        <trkpt lat="29.546366" lon="104.27527"><ele>478.66934</ele><time>2026-01-04T19:03:18.000Z</time></trkpt>
        <trkpt lat="29.546319" lon="104.275279"><ele>478.46368</ele><time>2026-01-04T19:03:22.000Z</time></trkpt>
        <trkpt lat="29.546273" lon="104.275289"><ele>478.53625</ele><time>2026-01-04T19:03:26.000Z</time></trkpt>
        <trkpt lat="29.546216" lon="104.275286"><ele>479.09973</ele><time>2026-01-04T19:03:31.000Z</time></trkpt>
        <trkpt lat="29.546174" lon="104.275292"><ele>479.24133</ele><time>2026-01-04T19:03:34.000Z</time></trkpt>
        <trkpt lat="29.546115" lon="104.275299"><ele>479.79678</ele><time>2026-01-04T19:03:39.000Z</time></trkpt>
        <trkpt lat="29.546064" lon="104.275311"><ele>480.42047</ele><time>2026-01-04T19:03:44.000Z</time></trkpt>
        <trkpt lat="29.546014" lon="104.27532"><ele>481.143</ele><time>2026-01-04T19:03:49.000Z</time></trkpt>
        <trkpt lat="29.545964" lon="104.275328"><ele>482.1205</ele><time>2026-01-04T19:03:54.000Z</time></trkpt>
        <trkpt lat="29.545917" lon="104.275334"><ele>482.426</ele><time>2026-01-04T19:03:58.000Z</time></trkpt>
        <trkpt lat="29.545861" lon="104.275339"><ele>482.83762</ele><time>2026-01-04T19:04:03.000Z</time></trkpt>
        <trkpt lat="29.545806" lon="104.275345"><ele>483.46988</ele><time>2026-01-04T19:04:08.000Z</time></trkpt>
        <trkpt lat="29.545753" lon="104.275351"><ele>483.4163</ele><time>2026-01-04T19:04:13.000Z</time></trkpt>
        <trkpt lat="29.545702" lon="104.275355"><ele>483.53403</ele><time>2026-01-04T19:04:18.000Z</time></trkpt>
        <trkpt lat="29.545658" lon="104.275355"><ele>483.7036</ele><time>2026-01-04T19:04:22.000Z</time></trkpt>
        <trkpt lat="29.545594" lon="104.27535"><ele>483.75003</ele><time>2026-01-04T19:04:28.000Z</time></trkpt>
        <trkpt lat="29.545539" lon="104.275357"><ele>483.76416</ele><time>2026-01-04T19:04:33.000Z</time></trkpt>
        <trkpt lat="29.54549" lon="104.275372"><ele>483.95178</ele><time>2026-01-04T19:04:38.000Z</time></trkpt>
        <trkpt lat="29.54544" lon="104.275379"><ele>484.14856</ele><time>2026-01-04T19:04:43.000Z</time></trkpt>
        <trkpt lat="29.54539" lon="104.275376"><ele>483.75107</ele><time>2026-01-04T19:04:48.000Z</time></trkpt>
        <trkpt lat="29.545338" lon="104.275373"><ele>483.6911</ele><time>2026-01-04T19:04:53.000Z</time></trkpt>
        <trkpt lat="29.54529" lon="104.275362"><ele>484.3909</ele><time>2026-01-04T19:04:58.000Z</time></trkpt>
        <trkpt lat="29.545238" lon="104.275357"><ele>484.69693</ele><time>2026-01-04T19:05:03.000Z</time></trkpt>
        <trkpt lat="29.545189" lon="104.275366"><ele>485.14627</ele><time>2026-01-04T19:05:08.000Z</time></trkpt>
        <trkpt lat="29.545143" lon="104.275382"><ele>485.9517</ele><time>2026-01-04T19:05:13.000Z</time></trkpt>
        <trkpt lat="29.545101" lon="104.275403"><ele>486.19882</ele><time>2026-01-04T19:05:17.000Z</time></trkpt>
        <trkpt lat="29.545054" lon="104.275426"><ele>486.36087</ele><time>2026-01-04T19:05:22.000Z</time></trkpt>
        <trkpt lat="29.545012" lon="104.275452"><ele>487.06268</ele><time>2026-01-04T19:05:27.000Z</time></trkpt>
        <trkpt lat="29.544971" lon="104.275476"><ele>487.56784</ele><time>2026-01-04T19:05:31.000Z</time></trkpt>
        <trkpt lat="29.54492" lon="104.275505"><ele>488.07532</ele><time>2026-01-04T19:05:37.000Z</time></trkpt>
        <trkpt lat="29.54488" lon="104.275529"><ele>488.32217</ele><time>2026-01-04T19:05:42.000Z</time></trkpt>
        <trkpt lat="29.544848" lon="104.275571"><ele>489.12534</ele><time>2026-01-04T19:05:48.000Z</time></trkpt>
        <trkpt lat="29.544835" lon="104.275625"><ele>489.74292</ele><time>2026-01-04T19:05:54.000Z</time></trkpt>
        <trkpt lat="29.544826" lon="104.275677"><ele>490.38193</ele><time>2026-01-04T19:05:58.000Z</time></trkpt>
        <trkpt lat="29.544822" lon="104.27574"><ele>491.10754</ele><time>2026-01-04T19:06:03.000Z</time></trkpt>
        <trkpt lat="29.544819" lon="104.275802"><ele>491.47723</ele><time>2026-01-04T19:06:08.000Z</time></trkpt>
        <trkpt lat="29.544821" lon="104.27586"><ele>492.24167</ele><time>2026-01-04T19:06:12.000Z</time></trkpt>
        <trkpt lat="29.544835" lon="104.275922"><ele>493.83295</ele><time>2026-01-04T19:06:18.000Z</time></trkpt>
        <trkpt lat="29.54485" lon="104.275969"><ele>494.7322</ele><time>2026-01-04T19:06:22.000Z</time></trkpt>
        <trkpt lat="29.544869" lon="104.276017"><ele>495.0488</ele><time>2026-01-04T19:06:26.000Z</time></trkpt>
        <trkpt lat="29.544891" lon="104.276073"><ele>495.52228</ele><time>2026-01-04T19:06:31.000Z</time></trkpt>
        <trkpt lat="29.544924" lon="104.276117"><ele>495.6113</ele><time>2026-01-04T19:06:37.000Z</time></trkpt>
        <trkpt lat="29.544938" lon="104.276164"><ele>496.35205</ele><time>2026-01-04T19:06:42.000Z</time></trkpt>
        <trkpt lat="29.544939" lon="104.276222"><ele>497.74756</ele><time>2026-01-04T19:06:47.000Z</time></trkpt>
        <trkpt lat="29.544925" lon="104.276292"><ele>498.84515</ele><time>2026-01-04T19:06:54.000Z</time></trkpt>
        <trkpt lat="29.544951" lon="104.276331"><ele>499.85315</ele><time>2026-01-04T19:06:59.000Z</time></trkpt>
        <trkpt lat="29.545007" lon="104.276331"><ele>500.47412</ele><time>2026-01-04T19:07:08.000Z</time></trkpt>
        <trkpt lat="29.545052" lon="104.276305"><ele>500.89117</ele><time>2026-01-04T19:07:13.000Z</time></trkpt>
        <trkpt lat="29.545107" lon="104.276279"><ele>501.086</ele><time>2026-01-04T19:07:19.000Z</time></trkpt>
        <trkpt lat="29.545154" lon="104.276269"><ele>500.73172</ele><time>2026-01-04T19:07:24.000Z</time></trkpt>
        <trkpt lat="29.545198" lon="104.276266"><ele>500.58035</ele><time>2026-01-04T19:07:28.000Z</time></trkpt>
        <trkpt lat="29.545247" lon="104.276289"><ele>500.89844</ele><time>2026-01-04T19:07:35.000Z</time></trkpt>
        <trkpt lat="29.545286" lon="104.276313"><ele>502.25473</ele><time>2026-01-04T19:07:41.000Z</time></trkpt>
        <trkpt lat="29.545308" lon="104.276362"><ele>503.05713</ele><time>2026-01-04T19:07:53.000Z</time></trkpt>
        <trkpt lat="29.545322" lon="104.2764"><ele>503.20273</ele><time>2026-01-04T19:07:57.000Z</time></trkpt>
        <trkpt lat="29.545339" lon="104.276458"><ele>503.9494</ele><time>2026-01-04T19:08:02.000Z</time></trkpt>
        <trkpt lat="29.545342" lon="104.276525"><ele>503.93854</ele><time>2026-01-04T19:08:17.000Z</time></trkpt>
        <trkpt lat="29.545328" lon="104.276572"><ele>504.6935</ele><time>2026-01-04T19:08:22.000Z</time></trkpt>
        <trkpt lat="29.545302" lon="104.276625"><ele>505.38095</ele><time>2026-01-04T19:08:27.000Z</time></trkpt>
        <trkpt lat="29.545271" lon="104.276668"><ele>505.73218</ele><time>2026-01-04T19:08:31.000Z</time></trkpt>
        <trkpt lat="29.54524" lon="104.27672"><ele>506.32584</ele><time>2026-01-04T19:08:36.000Z</time></trkpt>
        <trkpt lat="29.545211" lon="104.276773"><ele>505.5794</ele><time>2026-01-04T19:08:41.000Z</time></trkpt>
        <trkpt lat="29.545175" lon="104.276823"><ele>506.41275</ele><time>2026-01-04T19:08:47.000Z</time></trkpt>
        <trkpt lat="29.545141" lon="104.276871"><ele>507.7528</ele><time>2026-01-04T19:08:53.000Z</time></trkpt>
        <trkpt lat="29.545114" lon="104.276909"><ele>508.87122</ele><time>2026-01-04T19:08:57.000Z</time></trkpt>
        <trkpt lat="29.545085" lon="104.27695"><ele>510.00925</ele><time>2026-01-04T19:09:01.000Z</time></trkpt>
        <trkpt lat="29.545046" lon="104.276994"><ele>511.27933</ele><time>2026-01-04T19:09:07.000Z</time></trkpt>
        <trkpt lat="29.545014" lon="104.277025"><ele>512.2768</ele><time>2026-01-04T19:09:11.000Z</time></trkpt>
        <trkpt lat="29.54499" lon="104.277073"><ele>512.36084</ele><time>2026-01-04T19:09:16.000Z</time></trkpt>
        <trkpt lat="29.544988" lon="104.277127"><ele>512.59503</ele><time>2026-01-04T19:09:20.000Z</time></trkpt>
        <trkpt lat="29.544973" lon="104.27718"><ele>512.6504</ele><time>2026-01-04T19:09:24.000Z</time></trkpt>
        <trkpt lat="29.544948" lon="104.27724"><ele>513.73584</ele><time>2026-01-04T19:09:30.000Z</time></trkpt>
        <trkpt lat="29.544926" lon="104.277297"><ele>514.985</ele><time>2026-01-04T19:09:35.000Z</time></trkpt>
        <trkpt lat="29.544917" lon="104.277355"><ele>515.0634</ele><time>2026-01-04T19:09:39.000Z</time></trkpt>
        <trkpt lat="29.544928" lon="104.277427"><ele>515.37115</ele><time>2026-01-04T19:09:44.000Z</time></trkpt>
        <trkpt lat="29.544948" lon="104.277487"><ele>516.8851</ele><time>2026-01-04T19:09:50.000Z</time></trkpt>
        <trkpt lat="29.544965" lon="104.277532"><ele>517.7589</ele><time>2026-01-04T19:09:54.000Z</time></trkpt>
        <trkpt lat="29.544971" lon="104.277583"><ele>518.2633</ele><time>2026-01-04T19:09:58.000Z</time></trkpt>
        <trkpt lat="29.544979" lon="104.277665"><ele>518.5997</ele><time>2026-01-04T19:10:03.000Z</time></trkpt>
        <trkpt lat="29.545008" lon="104.277733"><ele>519.0502</ele><time>2026-01-04T19:10:10.000Z</time></trkpt>
        <trkpt lat="29.545029" lon="104.277786"><ele>519.0614</ele><time>2026-01-04T19:10:15.000Z</time></trkpt>
        <trkpt lat="29.545057" lon="104.277818"><ele>519.10077</ele><time>2026-01-04T19:10:18.000Z</time></trkpt>
        <trkpt lat="29.5451" lon="104.277863"><ele>519.6252</ele><time>2026-01-04T19:10:23.000Z</time></trkpt>
        <trkpt lat="29.545133" lon="104.277906"><ele>520.551</ele><time>2026-01-04T19:10:28.000Z</time></trkpt>
        <trkpt lat="29.545165" lon="104.277951"><ele>521.5936</ele><time>2026-01-04T19:10:32.000Z</time></trkpt>
        <trkpt lat="29.545192" lon="104.278"><ele>522.81213</ele><time>2026-01-04T19:10:36.000Z</time></trkpt>
        <trkpt lat="29.545206" lon="104.278056"><ele>524.2641</ele><time>2026-01-04T19:10:41.000Z</time></trkpt>
        <trkpt lat="29.545193" lon="104.278116"><ele>524.36487</ele><time>2026-01-04T19:10:48.000Z</time></trkpt>
        <trkpt lat="29.545172" lon="104.278169"><ele>524.07495</ele><time>2026-01-04T19:10:53.000Z</time></trkpt>
        <trkpt lat="29.545141" lon="104.278226"><ele>524.87366</ele><time>2026-01-04T19:10:59.000Z</time></trkpt>
        <trkpt lat="29.54511" lon="104.278269"><ele>525.7381</ele><time>2026-01-04T19:11:04.000Z</time></trkpt>
        <trkpt lat="29.545076" lon="104.278304"><ele>527.0384</ele><time>2026-01-04T19:11:08.000Z</time></trkpt>
        <trkpt lat="29.545023" lon="104.278327"><ele>528.8543</ele><time>2026-01-04T19:11:13.000Z</time></trkpt>
        <trkpt lat="29.544964" lon="104.278324"><ele>528.7553</ele><time>2026-01-04T19:11:25.000Z</time></trkpt>
        <trkpt lat="29.544931" lon="104.278368"><ele>528.9796</ele><time>2026-01-04T19:11:32.000Z</time></trkpt>
        <trkpt lat="29.544924" lon="104.27843"><ele>529.8812</ele><time>2026-01-04T19:11:38.000Z</time></trkpt>
        <trkpt lat="29.544931" lon="104.278494"><ele>529.92255</ele><time>2026-01-04T19:11:44.000Z</time></trkpt>
        <trkpt lat="29.544948" lon="104.278554"><ele>530.818</ele><time>2026-01-04T19:11:50.000Z</time></trkpt>
        <trkpt lat="29.544975" lon="104.278605"><ele>531.268</ele><time>2026-01-04T19:11:57.000Z</time></trkpt>
        <trkpt lat="29.544995" lon="104.278654"><ele>531.4745</ele><time>2026-01-04T19:12:02.000Z</time></trkpt>
        <trkpt lat="29.545019" lon="104.278707"><ele>531.6891</ele><time>2026-01-04T19:12:08.000Z</time></trkpt>
        <trkpt lat="29.545043" lon="104.278758"><ele>532.4418</ele><time>2026-01-04T19:12:13.000Z</time></trkpt>
        <trkpt lat="29.545067" lon="104.278815"><ele>533.5678</ele><time>2026-01-04T19:12:19.000Z</time></trkpt>
        <trkpt lat="29.545083" lon="104.278868"><ele>533.7786</ele><time>2026-01-04T19:12:25.000Z</time></trkpt>
        <trkpt lat="29.545092" lon="104.278936"><ele>534.01575</ele><time>2026-01-04T19:12:32.000Z</time></trkpt>
        <trkpt lat="29.545084" lon="104.278994"><ele>533.1544</ele><time>2026-01-04T19:12:39.000Z</time></trkpt>
        <trkpt lat="29.545067" lon="104.279055"><ele>535.5027</ele><time>2026-01-04T19:12:46.000Z</time></trkpt>
        <trkpt lat="29.545065" lon="104.279108"><ele>536.25226</ele><time>2026-01-04T19:12:52.000Z</time></trkpt>
        <trkpt lat="29.545072" lon="104.279169"><ele>536.07465</ele><time>2026-01-04T19:13:00.000Z</time></trkpt>
        <trkpt lat="29.54508" lon="104.279231"><ele>536.5881</ele><time>2026-01-04T19:13:05.000Z</time></trkpt>
        <trkpt lat="29.545077" lon="104.279313"><ele>537.9856</ele><time>2026-01-04T19:13:12.000Z</time></trkpt>
        <trkpt lat="29.545089" lon="104.279369"><ele>537.89545</ele><time>2026-01-04T19:13:17.000Z</time></trkpt>
        <trkpt lat="29.545092" lon="104.279428"><ele>539.4644</ele><time>2026-01-04T19:13:22.000Z</time></trkpt>
        <trkpt lat="29.545116" lon="104.279502"><ele>539.06647</ele><time>2026-01-04T19:13:27.000Z</time></trkpt>
        <trkpt lat="29.54511" lon="104.279562"><ele>539.0401</ele><time>2026-01-04T19:13:34.000Z</time></trkpt>
        <trkpt lat="29.545102" lon="104.279617"><ele>538.999</ele><time>2026-01-04T19:13:39.000Z</time></trkpt>
        <trkpt lat="29.545088" lon="104.279676"><ele>539.1548</ele><time>2026-01-04T19:13:44.000Z</time></trkpt>
        <trkpt lat="29.545073" lon="104.279734"><ele>539.71356</ele><time>2026-01-04T19:13:50.000Z</time></trkpt>
        <trkpt lat="29.54504" lon="104.279781"><ele>540.195</ele><time>2026-01-04T19:13:54.000Z</time></trkpt>
        <trkpt lat="29.545011" lon="104.279832"><ele>541.8999</ele><time>2026-01-04T19:13:59.000Z</time></trkpt>
        <trkpt lat="29.544973" lon="104.279885"><ele>543.1699</ele><time>2026-01-04T19:14:05.000Z</time></trkpt>
        <trkpt lat="29.54495" lon="104.279928"><ele>543.93005</ele><time>2026-01-04T19:14:09.000Z</time></trkpt>
        <trkpt lat="29.544949" lon="104.279991"><ele>544.50854</ele><time>2026-01-04T19:14:14.000Z</time></trkpt>
        <trkpt lat="29.544945" lon="104.280045"><ele>545.9538</ele><time>2026-01-04T19:14:18.000Z</time></trkpt>
        <trkpt lat="29.544962" lon="104.280094"><ele>546.44635</ele><time>2026-01-04T19:14:22.000Z</time></trkpt>
        <trkpt lat="29.544996" lon="104.280146"><ele>546.9025</ele><time>2026-01-04T19:14:27.000Z</time></trkpt>
        <trkpt lat="29.545029" lon="104.280184"><ele>546.7632</ele><time>2026-01-04T19:14:31.000Z</time></trkpt>
        <trkpt lat="29.545066" lon="104.280228"><ele>548.7764</ele><time>2026-01-04T19:14:36.000Z</time></trkpt>
        <trkpt lat="29.545104" lon="104.280268"><ele>550.6888</ele><time>2026-01-04T19:14:41.000Z</time></trkpt>
        <trkpt lat="29.54515" lon="104.280284"><ele>550.9344</ele><time>2026-01-04T19:14:46.000Z</time></trkpt>
        <trkpt lat="29.545194" lon="104.280297"><ele>550.6805</ele><time>2026-01-04T19:14:50.000Z</time></trkpt>
        <trkpt lat="29.545232" lon="104.280315"><ele>550.40894</ele><time>2026-01-04T19:14:53.000Z</time></trkpt>
        <trkpt lat="29.54529" lon="104.280332"><ele>550.1051</ele><time>2026-01-04T19:14:59.000Z</time></trkpt>
        <trkpt lat="29.545331" lon="104.280357"><ele>549.9704</ele><time>2026-01-04T19:15:03.000Z</time></trkpt>
        <trkpt lat="29.545348" lon="104.280414"><ele>551.07764</ele><time>2026-01-04T19:15:09.000Z</time></trkpt>
        <trkpt lat="29.545335" lon="104.280476"><ele>553.1554</ele><time>2026-01-04T19:15:16.000Z</time></trkpt>
        <trkpt lat="29.54531" lon="104.280524"><ele>554.60876</ele><time>2026-01-04T19:15:21.000Z</time></trkpt>
        <trkpt lat="29.545273" lon="104.28057"><ele>555.7919</ele><time>2026-01-04T19:15:26.000Z</time></trkpt>
        <trkpt lat="29.545228" lon="104.280606"><ele>558.26605</ele><time>2026-01-04T19:15:32.000Z</time></trkpt>
        <trkpt lat="29.545187" lon="104.28059"><ele>559.5839</ele><time>2026-01-04T19:15:36.000Z</time></trkpt>
        <trkpt lat="29.54513" lon="104.280592"><ele>559.95465</ele><time>2026-01-04T19:15:46.000Z</time></trkpt>
        <trkpt lat="29.545082" lon="104.280586"><ele>559.3843</ele><time>2026-01-04T19:16:01.000Z</time></trkpt>
        <trkpt lat="29.54504" lon="104.280584"><ele>560.5822</ele><time>2026-01-04T19:16:10.000Z</time></trkpt>
        <trkpt lat="29.545" lon="104.280572"><ele>561.1906</ele><time>2026-01-04T19:16:14.000Z</time></trkpt>
        <trkpt lat="29.544958" lon="104.280586"><ele>561.7493</ele><time>2026-01-04T19:16:19.000Z</time></trkpt>
        <trkpt lat="29.544906" lon="104.280589"><ele>562.6255</ele><time>2026-01-04T19:16:25.000Z</time></trkpt>
        <trkpt lat="29.544859" lon="104.280587"><ele>562.84033</ele><time>2026-01-04T19:16:31.000Z</time></trkpt>
        <trkpt lat="29.544811" lon="104.280583"><ele>563.1776</ele><time>2026-01-04T19:16:38.000Z</time></trkpt>
        <trkpt lat="29.544755" lon="104.280575"><ele>564.2128</ele><time>2026-01-04T19:16:46.000Z</time></trkpt>
        <trkpt lat="29.544699" lon="104.280571"><ele>564.55865</ele><time>2026-01-04T19:16:54.000Z</time></trkpt>
        <trkpt lat="29.54465" lon="104.280569"><ele>564.4622</ele><time>2026-01-04T19:16:58.000Z</time></trkpt>
        <trkpt lat="29.54459" lon="104.280582"><ele>565.9335</ele><time>2026-01-04T19:17:06.000Z</time></trkpt>
        <trkpt lat="29.544545" lon="104.280583"><ele>566.9765</ele><time>2026-01-04T19:17:12.000Z</time></trkpt>
        <trkpt lat="29.544498" lon="104.280588"><ele>568.14185</ele><time>2026-01-04T19:17:18.000Z</time></trkpt>
        <trkpt lat="29.54445" lon="104.280611"><ele>568.70746</ele><time>2026-01-04T19:17:25.000Z</time></trkpt>
        <trkpt lat="29.544459" lon="104.280666"><ele>569.9116</ele><time>2026-01-04T19:17:37.000Z</time></trkpt>
        <trkpt lat="29.544505" lon="104.280686"><ele>570.30237</ele><time>2026-01-04T19:17:43.000Z</time></trkpt>
        <trkpt lat="29.544479" lon="104.280686"><ele>570.21454</ele><time>2026-01-04T19:17:48.000Z</time></trkpt>
        <trkpt lat="29.544426" lon="104.280671"><ele>570.34</ele><time>2026-01-04T19:17:53.000Z</time></trkpt>
        <trkpt lat="29.544368" lon="104.280653"><ele>570.70123</ele><time>2026-01-04T19:17:58.000Z</time></trkpt>
        <trkpt lat="29.544314" lon="104.280639"><ele>571.7101</ele><time>2026-01-04T19:18:04.000Z</time></trkpt>
        <trkpt lat="29.544266" lon="104.28063"><ele>571.46387</ele><time>2026-01-04T19:18:09.000Z</time></trkpt>
        <trkpt lat="29.544219" lon="104.280621"><ele>571.22296</ele><time>2026-01-04T19:18:14.000Z</time></trkpt>
        <trkpt lat="29.544173" lon="104.280609"><ele>571.098</ele><time>2026-01-04T19:18:18.000Z</time></trkpt>
        <trkpt lat="29.544122" lon="104.280602"><ele>571.0002</ele><time>2026-01-04T19:18:24.000Z</time></trkpt>
        <trkpt lat="29.544079" lon="104.280587"><ele>570.6337</ele><time>2026-01-04T19:18:29.000Z</time></trkpt>
        <trkpt lat="29.54403" lon="104.28056"><ele>569.42206</ele><time>2026-01-04T19:18:36.000Z</time></trkpt>
        <trkpt lat="29.544008" lon="104.280508"><ele>569.08417</ele><time>2026-01-04T19:18:56.000Z</time></trkpt>
        <trkpt lat="29.54401" lon="104.280462"><ele>568.88043</ele><time>2026-01-04T19:19:02.000Z</time></trkpt>
        <trkpt lat="29.544007" lon="104.2804"><ele>568.63043</ele><time>2026-01-04T19:19:08.000Z</time></trkpt>
        <trkpt lat="29.543998" lon="104.280347"><ele>568.11664</ele><time>2026-01-04T19:19:13.000Z</time></trkpt>
        <trkpt lat="29.543985" lon="104.280287"><ele>567.7195</ele><time>2026-01-04T19:19:18.000Z</time></trkpt>
        <trkpt lat="29.543974" lon="104.280232"><ele>568.0323</ele><time>2026-01-04T19:19:23.000Z</time></trkpt>
        <trkpt lat="29.543964" lon="104.280167"><ele>568.6551</ele><time>2026-01-04T19:19:30.000Z</time></trkpt>
        <trkpt lat="29.543967" lon="104.280121"><ele>568.2601</ele><time>2026-01-04T19:19:34.000Z</time></trkpt>
        <trkpt lat="29.543961" lon="104.280066"><ele>568.36395</ele><time>2026-01-04T19:19:39.000Z</time></trkpt>
        <trkpt lat="29.543948" lon="104.280013"><ele>568.56274</ele><time>2026-01-04T19:19:44.000Z</time></trkpt>
        <trkpt lat="29.543917" lon="104.279945"><ele>567.76086</ele><time>2026-01-04T19:20:11.000Z</time></trkpt>
        <trkpt lat="29.543882" lon="104.279929"><ele>568.5425</ele><time>2026-01-04T19:20:17.000Z</time></trkpt>
        <trkpt lat="29.543838" lon="104.279902"><ele>569.2078</ele><time>2026-01-04T19:20:22.000Z</time></trkpt>
        <trkpt lat="29.543794" lon="104.279875"><ele>569.79224</ele><time>2026-01-04T19:20:27.000Z</time></trkpt>
        <trkpt lat="29.543753" lon="104.279853"><ele>569.89166</ele><time>2026-01-04T19:20:31.000Z</time></trkpt>
        <trkpt lat="29.543715" lon="104.279804"><ele>569.8065</ele><time>2026-01-04T19:20:37.000Z</time></trkpt>
        <trkpt lat="29.543695" lon="104.27976"><ele>569.74493</ele><time>2026-01-04T19:20:41.000Z</time></trkpt>
        <trkpt lat="29.543678" lon="104.279707"><ele>569.82635</ele><time>2026-01-04T19:20:46.000Z</time></trkpt>
        <trkpt lat="29.543676" lon="104.279648"><ele>569.8941</ele><time>2026-01-04T19:20:51.000Z</time></trkpt>
        <trkpt lat="29.54367" lon="104.279591"><ele>569.85046</ele><time>2026-01-04T19:20:56.000Z</time></trkpt>
        <trkpt lat="29.543664" lon="104.279537"><ele>569.8959</ele><time>2026-01-04T19:21:01.000Z</time></trkpt>
        <trkpt lat="29.543657" lon="104.279476"><ele>570.07367</ele><time>2026-01-04T19:21:07.000Z</time></trkpt>
        <trkpt lat="29.543649" lon="104.279423"><ele>570.0895</ele><time>2026-01-04T19:21:12.000Z</time></trkpt>
        <trkpt lat="29.543642" lon="104.27937"><ele>569.7782</ele><time>2026-01-04T19:21:17.000Z</time></trkpt>
        <trkpt lat="29.543632" lon="104.279304"><ele>569.5905</ele><time>2026-01-04T19:21:23.000Z</time></trkpt>
        <trkpt lat="29.543623" lon="104.279247"><ele>569.20795</ele><time>2026-01-04T19:21:28.000Z</time></trkpt>
        <trkpt lat="29.543608" lon="104.279191"><ele>568.70154</ele><time>2026-01-04T19:21:34.000Z</time></trkpt>
        <trkpt lat="29.543606" lon="104.279135"><ele>568.3693</ele><time>2026-01-04T19:21:54.000Z</time></trkpt>
        <trkpt lat="29.543599" lon="104.27908"><ele>568.32434</ele><time>2026-01-04T19:22:05.000Z</time></trkpt>
        <trkpt lat="29.543596" lon="104.279022"><ele>567.74445</ele><time>2026-01-04T19:22:10.000Z</time></trkpt>
        <trkpt lat="29.543596" lon="104.278967"><ele>567.1045</ele><time>2026-01-04T19:22:14.000Z</time></trkpt>
        <trkpt lat="29.543609" lon="104.278903"><ele>567.2655</ele><time>2026-01-04T19:22:20.000Z</time></trkpt>
        <trkpt lat="29.543583" lon="104.278863"><ele>566.679</ele><time>2026-01-04T19:22:31.000Z</time></trkpt>
        <trkpt lat="29.54357" lon="104.278813"><ele>566.8534</ele><time>2026-01-04T19:22:36.000Z</time></trkpt>
        <trkpt lat="29.543558" lon="104.278757"><ele>566.67114</ele><time>2026-01-04T19:22:40.000Z</time></trkpt>
        <trkpt lat="29.543539" lon="104.278704"><ele>566.7326</ele><time>2026-01-04T19:22:44.000Z</time></trkpt>
        <trkpt lat="29.543506" lon="104.278652"><ele>566.73865</ele><time>2026-01-04T19:22:49.000Z</time></trkpt>
        <trkpt lat="29.543469" lon="104.278618"><ele>566.238</ele><time>2026-01-04T19:22:53.000Z</time></trkpt>
        <trkpt lat="29.543433" lon="104.278586"><ele>565.8355</ele><time>2026-01-04T19:22:57.000Z</time></trkpt>
        <trkpt lat="29.543383" lon="104.278556"><ele>565.79205</ele><time>2026-01-04T19:23:02.000Z</time></trkpt>
        <trkpt lat="29.543338" lon="104.278538"><ele>566.33295</ele><time>2026-01-04T19:23:06.000Z</time></trkpt>
        <trkpt lat="29.543279" lon="104.278541"><ele>566.68866</ele><time>2026-01-04T19:23:12.000Z</time></trkpt>
        <trkpt lat="29.543238" lon="104.278541"><ele>567.1012</ele><time>2026-01-04T19:23:15.000Z</time></trkpt>
        <trkpt lat="29.543181" lon="104.278543"><ele>567.9168</ele><time>2026-01-04T19:23:20.000Z</time></trkpt>
        <trkpt lat="29.543127" lon="104.278549"><ele>568.1766</ele><time>2026-01-04T19:23:25.000Z</time></trkpt>
        <trkpt lat="29.543082" lon="104.278554"><ele>568.27686</ele><time>2026-01-04T19:23:29.000Z</time></trkpt>
        <trkpt lat="29.543034" lon="104.278551"><ele>568.3321</ele><time>2026-01-04T19:23:33.000Z</time></trkpt>
        <trkpt lat="29.542982" lon="104.278545"><ele>568.62787</ele><time>2026-01-04T19:23:38.000Z</time></trkpt>
        <trkpt lat="29.542935" lon="104.278536"><ele>568.59955</ele><time>2026-01-04T19:23:43.000Z</time></trkpt>
        <trkpt lat="29.542893" lon="104.278524"><ele>568.46405</ele><time>2026-01-04T19:23:47.000Z</time></trkpt>
        <trkpt lat="29.542842" lon="104.27851"><ele>569.7836</ele><time>2026-01-04T19:23:52.000Z</time></trkpt>
        <trkpt lat="29.542792" lon="104.278486"><ele>570.5887</ele><time>2026-01-04T19:23:57.000Z</time></trkpt>
        <trkpt lat="29.542744" lon="104.278464"><ele>571.1995</ele><time>2026-01-04T19:24:02.000Z</time></trkpt>
        <trkpt lat="29.542702" lon="104.278438"><ele>571.3315</ele><time>2026-01-04T19:24:07.000Z</time></trkpt>
        <trkpt lat="29.542658" lon="104.278411"><ele>571.06836</ele><time>2026-01-04T19:24:12.000Z</time></trkpt>
        <trkpt lat="29.542621" lon="104.278374"><ele>570.2274</ele><time>2026-01-04T19:24:18.000Z</time></trkpt>
        <trkpt lat="29.542593" lon="104.278327"><ele>569.5046</ele><time>2026-01-04T19:24:24.000Z</time></trkpt>
        <trkpt lat="29.542574" lon="104.278281"><ele>569.4859</ele><time>2026-01-04T19:24:29.000Z</time></trkpt>
        <trkpt lat="29.542553" lon="104.278229"><ele>569.615</ele><time>2026-01-04T19:24:34.000Z</time></trkpt>
        <trkpt lat="29.542524" lon="104.278178"><ele>569.79834</ele><time>2026-01-04T19:24:39.000Z</time></trkpt>
        <trkpt lat="29.542493" lon="104.278134"><ele>569.87823</ele><time>2026-01-04T19:24:44.000Z</time></trkpt>
        <trkpt lat="29.542452" lon="104.278104"><ele>570.5976</ele><time>2026-01-04T19:24:48.000Z</time></trkpt>
        <trkpt lat="29.542401" lon="104.278075"><ele>572.02637</ele><time>2026-01-04T19:24:53.000Z</time></trkpt>
        <trkpt lat="29.542354" lon="104.278045"><ele>573.283</ele><time>2026-01-04T19:24:58.000Z</time></trkpt>
        <trkpt lat="29.542313" lon="104.278015"><ele>574.25366</ele><time>2026-01-04T19:25:03.000Z</time></trkpt>
        <trkpt lat="29.542264" lon="104.278003"><ele>575.2677</ele><time>2026-01-04T19:25:09.000Z</time></trkpt>
        <trkpt lat="29.542221" lon="104.277982"><ele>576.04</ele><time>2026-01-04T19:25:14.000Z</time></trkpt>
        <trkpt lat="29.542182" lon="104.277951"><ele>576.2304</ele><time>2026-01-04T19:25:19.000Z</time></trkpt>
        <trkpt lat="29.542143" lon="104.277919"><ele>576.5457</ele><time>2026-01-04T19:25:24.000Z</time></trkpt>
        <trkpt lat="29.542096" lon="104.277893"><ele>577.12537</ele><time>2026-01-04T19:25:29.000Z</time></trkpt>
        <trkpt lat="29.542052" lon="104.27786"><ele>577.18085</ele><time>2026-01-04T19:25:34.000Z</time></trkpt>
        <trkpt lat="29.542007" lon="104.277826"><ele>577.22705</ele><time>2026-01-04T19:25:39.000Z</time></trkpt>
        <trkpt lat="29.541969" lon="104.277791"><ele>578.2884</ele><time>2026-01-04T19:25:44.000Z</time></trkpt>
        <trkpt lat="29.541928" lon="104.277769"><ele>579.37665</ele><time>2026-01-04T19:25:49.000Z</time></trkpt>
        <trkpt lat="29.541888" lon="104.277742"><ele>580.13196</ele><time>2026-01-04T19:25:53.000Z</time></trkpt>
        <trkpt lat="29.541836" lon="104.277709"><ele>581.1687</ele><time>2026-01-04T19:26:06.000Z</time></trkpt>
        <trkpt lat="29.541795" lon="104.277694"><ele>581.755</ele><time>2026-01-04T19:26:12.000Z</time></trkpt>
        <trkpt lat="29.541739" lon="104.277699"><ele>582.8821</ele><time>2026-01-04T19:26:17.000Z</time></trkpt>
        <trkpt lat="29.541686" lon="104.27772"><ele>583.5381</ele><time>2026-01-04T19:26:22.000Z</time></trkpt>
        <trkpt lat="29.541636" lon="104.277744"><ele>583.6235</ele><time>2026-01-04T19:26:27.000Z</time></trkpt>
        <trkpt lat="29.541592" lon="104.277758"><ele>583.8089</ele><time>2026-01-04T19:26:31.000Z</time></trkpt>
        <trkpt lat="29.541537" lon="104.277778"><ele>583.43365</ele><time>2026-01-04T19:26:36.000Z</time></trkpt>
        <trkpt lat="29.541495" lon="104.277798"><ele>583.3635</ele><time>2026-01-04T19:26:40.000Z</time></trkpt>
        <trkpt lat="29.541454" lon="104.277822"><ele>583.0704</ele><time>2026-01-04T19:26:44.000Z</time></trkpt>
        <trkpt lat="29.541405" lon="104.277843"><ele>582.17664</ele><time>2026-01-04T19:26:49.000Z</time></trkpt>
        <trkpt lat="29.541346" lon="104.277848"><ele>582.5885</ele><time>2026-01-04T19:26:59.000Z</time></trkpt>
        <trkpt lat="29.541317" lon="104.277826"><ele>582.57526</ele><time>2026-01-04T19:27:02.000Z</time></trkpt>
        <trkpt lat="29.541283" lon="104.277775"><ele>583.1457</ele><time>2026-01-04T19:27:09.000Z</time></trkpt>
        <trkpt lat="29.541246" lon="104.277737"><ele>584.25275</ele><time>2026-01-04T19:27:13.000Z</time></trkpt>
        <trkpt lat="29.541195" lon="104.27772"><ele>585.99994</ele><time>2026-01-04T19:27:18.000Z</time></trkpt>
        <trkpt lat="29.541146" lon="104.277697"><ele>587.2886</ele><time>2026-01-04T19:27:23.000Z</time></trkpt>
        <trkpt lat="29.541106" lon="104.277664"><ele>588.60785</ele><time>2026-01-04T19:27:28.000Z</time></trkpt>
        <trkpt lat="29.541069" lon="104.277627"><ele>590.32855</ele><time>2026-01-04T19:27:33.000Z</time></trkpt>
        <trkpt lat="29.541024" lon="104.2776"><ele>592.1139</ele><time>2026-01-04T19:27:38.000Z</time></trkpt>
        <trkpt lat="29.540973" lon="104.277587"><ele>593.7799</ele><time>2026-01-04T19:27:44.000Z</time></trkpt>
        <trkpt lat="29.540926" lon="104.277581"><ele>595.0998</ele><time>2026-01-04T19:27:49.000Z</time></trkpt>
        <trkpt lat="29.540879" lon="104.27757"><ele>596.8802</ele><time>2026-01-04T19:27:54.000Z</time></trkpt>
        <trkpt lat="29.540832" lon="104.27753"><ele>598.4129</ele><time>2026-01-04T19:28:00.000Z</time></trkpt>
        <trkpt lat="29.540791" lon="104.277511"><ele>599.81946</ele><time>2026-01-04T19:28:05.000Z</time></trkpt>
        <trkpt lat="29.540741" lon="104.277503"><ele>600.6738</ele><time>2026-01-04T19:28:10.000Z</time></trkpt>
        <trkpt lat="29.540686" lon="104.277508"><ele>602.33795</ele><time>2026-01-04T19:28:16.000Z</time></trkpt>
        <trkpt lat="29.540639" lon="104.277533"><ele>602.97845</ele><time>2026-01-04T19:28:24.000Z</time></trkpt>
        <trkpt lat="29.540598" lon="104.277549"><ele>603.0652</ele><time>2026-01-04T19:28:29.000Z</time></trkpt>
        <trkpt lat="29.540549" lon="104.277572"><ele>602.7876</ele><time>2026-01-04T19:28:35.000Z</time></trkpt>
        <trkpt lat="29.540512" lon="104.277608"><ele>602.4819</ele><time>2026-01-04T19:28:41.000Z</time></trkpt>
        <trkpt lat="29.54048" lon="104.277658"><ele>601.1562</ele><time>2026-01-04T19:28:47.000Z</time></trkpt>
        <trkpt lat="29.540445" lon="104.277713"><ele>598.7857</ele><time>2026-01-04T19:28:54.000Z</time></trkpt>
        <trkpt lat="29.540419" lon="104.277757"><ele>597.8078</ele><time>2026-01-04T19:29:00.000Z</time></trkpt>
        <trkpt lat="29.540387" lon="104.2778"><ele>596.7718</ele><time>2026-01-04T19:29:06.000Z</time></trkpt>
        <trkpt lat="29.540348" lon="104.27783"><ele>595.6542</ele><time>2026-01-04T19:29:11.000Z</time></trkpt>
        <trkpt lat="29.54031" lon="104.277854"><ele>595.0533</ele><time>2026-01-04T19:29:15.000Z</time></trkpt>
        <trkpt lat="29.540256" lon="104.277874"><ele>594.33484</ele><time>2026-01-04T19:29:22.000Z</time></trkpt>
        <trkpt lat="29.540214" lon="104.277883"><ele>594.67773</ele><time>2026-01-04T19:29:27.000Z</time></trkpt>
        <trkpt lat="29.54016" lon="104.277884"><ele>595.7824</ele><time>2026-01-04T19:29:34.000Z</time></trkpt>
        <trkpt lat="29.540105" lon="104.277901"><ele>596.9232</ele><time>2026-01-04T19:29:39.000Z</time></trkpt>
        <trkpt lat="29.540052" lon="104.277891"><ele>598.19543</ele><time>2026-01-04T19:29:46.000Z</time></trkpt>
        <trkpt lat="29.540002" lon="104.277885"><ele>599.072</ele><time>2026-01-04T19:29:53.000Z</time></trkpt>
        <trkpt lat="29.539954" lon="104.277888"><ele>600.57227</ele><time>2026-01-04T19:29:59.000Z</time></trkpt>
        <trkpt lat="29.539906" lon="104.277897"><ele>602.1018</ele><time>2026-01-04T19:30:05.000Z</time></trkpt>
        <trkpt lat="29.539858" lon="104.277905"><ele>603.24396</ele><time>2026-01-04T19:30:11.000Z</time></trkpt>
        <trkpt lat="29.539794" lon="104.277915"><ele>604.86743</ele><time>2026-01-04T19:30:19.000Z</time></trkpt>
        <trkpt lat="29.53976" lon="104.277954"><ele>605.2597</ele><time>2026-01-04T19:30:28.000Z</time></trkpt>
        <trkpt lat="29.539716" lon="104.277979"><ele>603.6871</ele><time>2026-01-04T19:30:42.000Z</time></trkpt>
        <trkpt lat="29.539764" lon="104.277948"><ele>603.48505</ele><time>2026-01-04T19:31:38.000Z</time></trkpt>
        <trkpt lat="29.539724" lon="104.277929"><ele>605.48267</ele><time>2026-01-04T19:31:53.000Z</time></trkpt>
        <trkpt lat="29.539675" lon="104.277929"><ele>605.51654</ele><time>2026-01-04T19:32:00.000Z</time></trkpt>
        <trkpt lat="29.539628" lon="104.277937"><ele>607.8921</ele><time>2026-01-04T19:32:07.000Z</time></trkpt>
        <trkpt lat="29.539586" lon="104.27796"><ele>609.14526</ele><time>2026-01-04T19:32:14.000Z</time></trkpt>
        <trkpt lat="29.539633" lon="104.277948"><ele>609.7328</ele><time>2026-01-04T19:32:51.000Z</time></trkpt>
        <trkpt lat="29.539674" lon="104.277934"><ele>608.51715</ele><time>2026-01-04T19:32:56.000Z</time></trkpt>
        <trkpt lat="29.539712" lon="104.27793"><ele>607.8198</ele><time>2026-01-04T19:32:59.000Z</time></trkpt>
        <trkpt lat="29.539736" lon="104.277974"><ele>605.222</ele><time>2026-01-04T19:33:06.000Z</time></trkpt>
        <trkpt lat="29.539695" lon="104.278008"><ele>603.89984</ele><time>2026-01-04T19:33:11.000Z</time></trkpt>
        <trkpt lat="29.539642" lon="104.278049"><ele>603.10474</ele><time>2026-01-04T19:33:16.000Z</time></trkpt>
        <trkpt lat="29.539599" lon="104.278079"><ele>603.5092</ele><time>2026-01-04T19:33:20.000Z</time></trkpt>
        <trkpt lat="29.539559" lon="104.278121"><ele>604.21063</ele><time>2026-01-04T19:33:25.000Z</time></trkpt>
        <trkpt lat="29.539524" lon="104.278154"><ele>604.7491</ele><time>2026-01-04T19:33:29.000Z</time></trkpt>
        <trkpt lat="29.539486" lon="104.278189"><ele>604.6668</ele><time>2026-01-04T19:33:33.000Z</time></trkpt>
        <trkpt lat="29.539448" lon="104.278228"><ele>605.05707</ele><time>2026-01-04T19:33:37.000Z</time></trkpt>
        <trkpt lat="29.539411" lon="104.278274"><ele>604.6978</ele><time>2026-01-04T19:33:42.000Z</time></trkpt>
        <trkpt lat="29.539372" lon="104.278317"><ele>604.0785</ele><time>2026-01-04T19:33:47.000Z</time></trkpt>
        <trkpt lat="29.539332" lon="104.27836"><ele>604.43695</ele><time>2026-01-04T19:33:52.000Z</time></trkpt>
        <trkpt lat="29.539294" lon="104.2784"><ele>605.3827</ele><time>2026-01-04T19:33:57.000Z</time></trkpt>
        <trkpt lat="29.539256" lon="104.278445"><ele>606.1872</ele><time>2026-01-04T19:34:02.000Z</time></trkpt>
        <trkpt lat="29.539228" lon="104.278488"><ele>606.3938</ele><time>2026-01-04T19:34:06.000Z</time></trkpt>
        <trkpt lat="29.5392" lon="104.278541"><ele>606.757</ele><time>2026-01-04T19:34:10.000Z</time></trkpt>
        <trkpt lat="29.53916" lon="104.278589"><ele>608.03784</ele><time>2026-01-04T19:34:16.000Z</time></trkpt>
        <trkpt lat="29.539111" lon="104.278629"><ele>608.5594</ele><time>2026-01-04T19:34:21.000Z</time></trkpt>
        <trkpt lat="29.539072" lon="104.278663"><ele>608.20404</ele><time>2026-01-04T19:34:25.000Z</time></trkpt>
        <trkpt lat="29.539035" lon="104.278702"><ele>608.98114</ele><time>2026-01-04T19:34:29.000Z</time></trkpt>
        <trkpt lat="29.538999" lon="104.278758"><ele>610.60724</ele><time>2026-01-04T19:34:34.000Z</time></trkpt>
        <trkpt lat="29.538977" lon="104.278808"><ele>611.2339</ele><time>2026-01-04T19:34:38.000Z</time></trkpt>
        <trkpt lat="29.538962" lon="104.278865"><ele>611.49133</ele><time>2026-01-04T19:34:42.000Z</time></trkpt>
        <trkpt lat="29.538954" lon="104.278922"><ele>611.0924</ele><time>2026-01-04T19:34:46.000Z</time></trkpt>
        <trkpt lat="29.538947" lon="104.278982"><ele>610.9169</ele><time>2026-01-04T19:34:50.000Z</time></trkpt>
        <trkpt lat="29.538944" lon="104.27905"><ele>610.19476</ele><time>2026-01-04T19:34:55.000Z</time></trkpt>
        <trkpt lat="29.538939" lon="104.279109"><ele>609.2904</ele><time>2026-01-04T19:35:00.000Z</time></trkpt>
        <trkpt lat="29.538939" lon="104.279167"><ele>608.9559</ele><time>2026-01-04T19:35:05.000Z</time></trkpt>
        <trkpt lat="29.538936" lon="104.279222"><ele>608.5193</ele><time>2026-01-04T19:35:10.000Z</time></trkpt>
        <trkpt lat="29.53893" lon="104.279271"><ele>607.948</ele><time>2026-01-04T19:35:14.000Z</time></trkpt>
        <trkpt lat="29.538913" lon="104.279324"><ele>607.3674</ele><time>2026-01-04T19:35:19.000Z</time></trkpt>
        <trkpt lat="29.538897" lon="104.279371"><ele>606.8798</ele><time>2026-01-04T19:35:23.000Z</time></trkpt>
        <trkpt lat="29.538875" lon="104.279427"><ele>606.3822</ele><time>2026-01-04T19:35:29.000Z</time></trkpt>
        <trkpt lat="29.538846" lon="104.279461"><ele>606.90796</ele><time>2026-01-04T19:35:32.000Z</time></trkpt>
        <trkpt lat="29.538811" lon="104.279504"><ele>607.64215</ele><time>2026-01-04T19:35:38.000Z</time></trkpt>
        <trkpt lat="29.538774" lon="104.27955"><ele>607.9479</ele><time>2026-01-04T19:35:43.000Z</time></trkpt>
        <trkpt lat="29.538736" lon="104.279578"><ele>608.3645</ele><time>2026-01-04T19:35:47.000Z</time></trkpt>
        <trkpt lat="29.538691" lon="104.279615"><ele>610.16846</ele><time>2026-01-04T19:35:52.000Z</time></trkpt>
        <trkpt lat="29.538653" lon="104.279649"><ele>610.912</ele><time>2026-01-04T19:35:57.000Z</time></trkpt>
        <trkpt lat="29.538618" lon="104.279686"><ele>612.05774</ele><time>2026-01-04T19:36:01.000Z</time></trkpt>
        <trkpt lat="29.538587" lon="104.279731"><ele>613.1065</ele><time>2026-01-04T19:36:06.000Z</time></trkpt>
        <trkpt lat="29.538549" lon="104.279776"><ele>614.12463</ele><time>2026-01-04T19:36:12.000Z</time></trkpt>
        <trkpt lat="29.538514" lon="104.279814"><ele>614.4971</ele><time>2026-01-04T19:36:16.000Z</time></trkpt>
        <trkpt lat="29.538479" lon="104.279866"><ele>614.82855</ele><time>2026-01-04T19:36:21.000Z</time></trkpt>
        <trkpt lat="29.538448" lon="104.27993"><ele>615.05115</ele><time>2026-01-04T19:36:27.000Z</time></trkpt>
        <trkpt lat="29.538426" lon="104.279975"><ele>615.17444</ele><time>2026-01-04T19:36:31.000Z</time></trkpt>
        <trkpt lat="29.538402" lon="104.28002"><ele>614.99927</ele><time>2026-01-04T19:36:35.000Z</time></trkpt>
        <trkpt lat="29.53838" lon="104.280065"><ele>614.88495</ele><time>2026-01-04T19:36:39.000Z</time></trkpt>
        <trkpt lat="29.538361" lon="104.280119"><ele>614.6995</ele><time>2026-01-04T19:36:43.000Z</time></trkpt>
        <trkpt lat="29.538336" lon="104.280171"><ele>614.8789</ele><time>2026-01-04T19:36:48.000Z</time></trkpt>
        <trkpt lat="29.538322" lon="104.280219"><ele>614.6544</ele><time>2026-01-04T19:36:52.000Z</time></trkpt>
        <trkpt lat="29.538306" lon="104.28027"><ele>614.2588</ele><time>2026-01-04T19:36:56.000Z</time></trkpt>
        <trkpt lat="29.538286" lon="104.280324"><ele>614.316</ele><time>2026-01-04T19:37:01.000Z</time></trkpt>
        <trkpt lat="29.53827" lon="104.280381"><ele>614.1899</ele><time>2026-01-04T19:37:05.000Z</time></trkpt>
        <trkpt lat="29.538247" lon="104.280439"><ele>614.95685</ele><time>2026-01-04T19:37:10.000Z</time></trkpt>
        <trkpt lat="29.538232" lon="104.280499"><ele>614.9438</ele><time>2026-01-04T19:37:15.000Z</time></trkpt>
        <trkpt lat="29.538211" lon="104.280558"><ele>615.342</ele><time>2026-01-04T19:37:20.000Z</time></trkpt>
        <trkpt lat="29.538194" lon="104.28062"><ele>615.1552</ele><time>2026-01-04T19:37:25.000Z</time></trkpt>
        <trkpt lat="29.538186" lon="104.280682"><ele>614.6671</ele><time>2026-01-04T19:37:30.000Z</time></trkpt>
        <trkpt lat="29.538183" lon="104.280739"><ele>614.44617</ele><time>2026-01-04T19:37:35.000Z</time></trkpt>
        <trkpt lat="29.538175" lon="104.280793"><ele>613.9758</ele><time>2026-01-04T19:37:40.000Z</time></trkpt>
        <trkpt lat="29.538169" lon="104.280852"><ele>612.9315</ele><time>2026-01-04T19:37:47.000Z</time></trkpt>
        <trkpt lat="29.538171" lon="104.280903"><ele>612.75977</ele><time>2026-01-04T19:37:52.000Z</time></trkpt>
        <trkpt lat="29.538166" lon="104.280954"><ele>611.85986</ele><time>2026-01-04T19:37:57.000Z</time></trkpt>
        <trkpt lat="29.538174" lon="104.281006"><ele>610.902</ele><time>2026-01-04T19:38:03.000Z</time></trkpt>
        <trkpt lat="29.538173" lon="104.28106"><ele>609.2715</ele><time>2026-01-04T19:38:10.000Z</time></trkpt>
        <trkpt lat="29.538144" lon="104.281098"><ele>608.46765</ele><time>2026-01-04T19:38:15.000Z</time></trkpt>
        <trkpt lat="29.53809" lon="104.281123"><ele>608.8598</ele><time>2026-01-04T19:38:21.000Z</time></trkpt>
        <trkpt lat="29.538042" lon="104.281134"><ele>609.536</ele><time>2026-01-04T19:38:26.000Z</time></trkpt>
        <trkpt lat="29.537983" lon="104.281144"><ele>610.98553</ele><time>2026-01-04T19:38:32.000Z</time></trkpt>
        <trkpt lat="29.537941" lon="104.281158"><ele>612.5296</ele><time>2026-01-04T19:38:36.000Z</time></trkpt>
        <trkpt lat="29.537893" lon="104.281161"><ele>613.85376</ele><time>2026-01-04T19:38:41.000Z</time></trkpt>
        <trkpt lat="29.537841" lon="104.281163"><ele>615.2573</ele><time>2026-01-04T19:38:47.000Z</time></trkpt>
        <trkpt lat="29.537796" lon="104.28117"><ele>616.21173</ele><time>2026-01-04T19:38:52.000Z</time></trkpt>
        <trkpt lat="29.537743" lon="104.281177"><ele>617.30853</ele><time>2026-01-04T19:38:57.000Z</time></trkpt>
        <trkpt lat="29.53769" lon="104.281188"><ele>617.60095</ele><time>2026-01-04T19:39:03.000Z</time></trkpt>
        <trkpt lat="29.53764" lon="104.281202"><ele>618.63684</ele><time>2026-01-04T19:39:10.000Z</time></trkpt>
        <trkpt lat="29.5376" lon="104.281214"><ele>619.0906</ele><time>2026-01-04T19:39:14.000Z</time></trkpt>
        <trkpt lat="29.537547" lon="104.281237"><ele>619.8252</ele><time>2026-01-04T19:39:18.000Z</time></trkpt>
        <trkpt lat="29.5375" lon="104.281258"><ele>620.2706</ele><time>2026-01-04T19:39:23.000Z</time></trkpt>
        <trkpt lat="29.537453" lon="104.281277"><ele>620.5299</ele><time>2026-01-04T19:39:28.000Z</time></trkpt>
        <trkpt lat="29.537408" lon="104.281291"><ele>620.7616</ele><time>2026-01-04T19:39:33.000Z</time></trkpt>
        <trkpt lat="29.537363" lon="104.281305"><ele>620.3736</ele><time>2026-01-04T19:39:38.000Z</time></trkpt>
        <trkpt lat="29.537321" lon="104.281318"><ele>620.35895</ele><time>2026-01-04T19:39:42.000Z</time></trkpt>
        <trkpt lat="29.53727" lon="104.281331"><ele>620.81824</ele><time>2026-01-04T19:39:48.000Z</time></trkpt>
        <trkpt lat="29.53722" lon="104.281323"><ele>620.65784</ele><time>2026-01-04T19:40:34.000Z</time></trkpt>
        <trkpt lat="29.537186" lon="104.281315"><ele>620.1911</ele><time>2026-01-04T19:40:39.000Z</time></trkpt>
        <trkpt lat="29.537141" lon="104.281286"><ele>618.9587</ele><time>2026-01-04T19:40:44.000Z</time></trkpt>
        <trkpt lat="29.537092" lon="104.281248"><ele>618.1818</ele><time>2026-01-04T19:40:49.000Z</time></trkpt>
        <trkpt lat="29.537051" lon="104.281198"><ele>617.04407</ele><time>2026-01-04T19:40:56.000Z</time></trkpt>
        <trkpt lat="29.537029" lon="104.281148"><ele>616.0969</ele><time>2026-01-04T19:41:02.000Z</time></trkpt>
        <trkpt lat="29.537005" lon="104.281102"><ele>615.5668</ele><time>2026-01-04T19:41:08.000Z</time></trkpt>
        <trkpt lat="29.536988" lon="104.281059"><ele>614.97314</ele><time>2026-01-04T19:41:12.000Z</time></trkpt>
        <trkpt lat="29.536956" lon="104.280988"><ele>614.87103</ele><time>2026-01-04T19:41:17.000Z</time></trkpt>
        <trkpt lat="29.536925" lon="104.280935"><ele>614.5254</ele><time>2026-01-04T19:41:23.000Z</time></trkpt>
        <trkpt lat="29.536901" lon="104.280886"><ele>613.2992</ele><time>2026-01-04T19:41:34.000Z</time></trkpt>
        <trkpt lat="29.536885" lon="104.280839"><ele>613.1362</ele><time>2026-01-04T19:41:43.000Z</time></trkpt>
        <trkpt lat="29.536856" lon="104.280795"><ele>612.6868</ele><time>2026-01-04T19:41:50.000Z</time></trkpt>
        <trkpt lat="29.536815" lon="104.280749"><ele>611.6514</ele><time>2026-01-04T19:41:56.000Z</time></trkpt>
        <trkpt lat="29.536781" lon="104.2807"><ele>609.2849</ele><time>2026-01-04T19:42:02.000Z</time></trkpt>
        <trkpt lat="29.536753" lon="104.280651"><ele>607.16895</ele><time>2026-01-04T19:42:07.000Z</time></trkpt>
        <trkpt lat="29.536729" lon="104.280588"><ele>605.889</ele><time>2026-01-04T19:42:13.000Z</time></trkpt>
        <trkpt lat="29.536721" lon="104.280528"><ele>605.0761</ele><time>2026-01-04T19:42:20.000Z</time></trkpt>
        <trkpt lat="29.536683" lon="104.280496"><ele>603.5294</ele><time>2026-01-04T19:42:37.000Z</time></trkpt>
        <trkpt lat="29.536678" lon="104.28046"><ele>602.5584</ele><time>2026-01-04T19:42:41.000Z</time></trkpt>
        <trkpt lat="29.536667" lon="104.280396"><ele>601.0055</ele><time>2026-01-04T19:42:46.000Z</time></trkpt>
        <trkpt lat="29.536652" lon="104.28034"><ele>599.77795</ele><time>2026-01-04T19:42:50.000Z</time></trkpt>
        <trkpt lat="29.536636" lon="104.280272"><ele>598.4106</ele><time>2026-01-04T19:42:55.000Z</time></trkpt>
        <trkpt lat="29.536619" lon="104.280219"><ele>597.3525</ele><time>2026-01-04T19:42:58.000Z</time></trkpt>
        <trkpt lat="29.536603" lon="104.280164"><ele>596.48584</ele><time>2026-01-04T19:43:02.000Z</time></trkpt>
        <trkpt lat="29.536595" lon="104.280092"><ele>595.65186</ele><time>2026-01-04T19:43:07.000Z</time></trkpt>
        <trkpt lat="29.536589" lon="104.280036"><ele>594.8873</ele><time>2026-01-04T19:43:11.000Z</time></trkpt>
        <trkpt lat="29.536588" lon="104.27997"><ele>594.12506</ele><time>2026-01-04T19:43:16.000Z</time></trkpt>
        <trkpt lat="29.536604" lon="104.279915"><ele>593.2354</ele><time>2026-01-04T19:43:22.000Z</time></trkpt>
        <trkpt lat="29.536594" lon="104.279868"><ele>592.40924</ele><time>2026-01-04T19:43:26.000Z</time></trkpt>
        <trkpt lat="29.536585" lon="104.279813"><ele>592.7624</ele><time>2026-01-04T19:43:30.000Z</time></trkpt>
        <trkpt lat="29.536572" lon="104.279751"><ele>592.26105</ele><time>2026-01-04T19:43:35.000Z</time></trkpt>
        <trkpt lat="29.53655" lon="104.2797"><ele>591.58923</ele><time>2026-01-04T19:43:39.000Z</time></trkpt>
        <trkpt lat="29.536522" lon="104.279656"><ele>590.81714</ele><time>2026-01-04T19:43:43.000Z</time></trkpt>
        <trkpt lat="29.53648" lon="104.279615"><ele>590.4187</ele><time>2026-01-04T19:43:48.000Z</time></trkpt>
        <trkpt lat="29.536436" lon="104.279586"><ele>592.395</ele><time>2026-01-04T19:43:53.000Z</time></trkpt>
        <trkpt lat="29.536401" lon="104.279558"><ele>594.1837</ele><time>2026-01-04T19:43:57.000Z</time></trkpt>
        <trkpt lat="29.536362" lon="104.279531"><ele>595.06836</ele><time>2026-01-04T19:44:01.000Z</time></trkpt>
        <trkpt lat="29.536318" lon="104.279505"><ele>595.5888</ele><time>2026-01-04T19:44:05.000Z</time></trkpt>
        <trkpt lat="29.536263" lon="104.27948"><ele>596.4557</ele><time>2026-01-04T19:44:10.000Z</time></trkpt>
        <trkpt lat="29.536207" lon="104.279462"><ele>597.2764</ele><time>2026-01-04T19:44:16.000Z</time></trkpt>
        <trkpt lat="29.536165" lon="104.279434"><ele>597.7491</ele><time>2026-01-04T19:44:21.000Z</time></trkpt>
        <trkpt lat="29.536129" lon="104.279403"><ele>598.3525</ele><time>2026-01-04T19:44:25.000Z</time></trkpt>
        <trkpt lat="29.536076" lon="104.279372"><ele>598.3041</ele><time>2026-01-04T19:44:30.000Z</time></trkpt>
        <trkpt lat="29.536027" lon="104.279348"><ele>596.79675</ele><time>2026-01-04T19:44:35.000Z</time></trkpt>
        <trkpt lat="29.535973" lon="104.279333"><ele>595.687</ele><time>2026-01-04T19:44:41.000Z</time></trkpt>
        <trkpt lat="29.535925" lon="104.279316"><ele>595.8825</ele><time>2026-01-04T19:44:46.000Z</time></trkpt>
        <trkpt lat="29.535885" lon="104.279295"><ele>595.433</ele><time>2026-01-04T19:44:50.000Z</time></trkpt>
        <trkpt lat="29.535832" lon="104.279281"><ele>594.46234</ele><time>2026-01-04T19:44:55.000Z</time></trkpt>
        <trkpt lat="29.535777" lon="104.279265"><ele>592.8439</ele><time>2026-01-04T19:45:00.000Z</time></trkpt>
        <trkpt lat="29.535735" lon="104.279256"><ele>591.83765</ele><time>2026-01-04T19:45:03.000Z</time></trkpt>
        <trkpt lat="29.535681" lon="104.27925"><ele>591.10913</ele><time>2026-01-04T19:45:07.000Z</time></trkpt>
        <trkpt lat="29.535632" lon="104.279242"><ele>590.7536</ele><time>2026-01-04T19:45:11.000Z</time></trkpt>
        <trkpt lat="29.535579" lon="104.279241"><ele>590.45483</ele><time>2026-01-04T19:45:16.000Z</time></trkpt>
        <trkpt lat="29.535534" lon="104.279245"><ele>589.9021</ele><time>2026-01-04T19:45:20.000Z</time></trkpt>
        <trkpt lat="29.53548" lon="104.279247"><ele>589.282</ele><time>2026-01-04T19:45:25.000Z</time></trkpt>
        <trkpt lat="29.535429" lon="104.279271"><ele>589.57153</ele><time>2026-01-04T19:45:30.000Z</time></trkpt>
        <trkpt lat="29.535387" lon="104.279296"><ele>590.1921</ele><time>2026-01-04T19:45:34.000Z</time></trkpt>
        <trkpt lat="29.53534" lon="104.279306"><ele>590.8963</ele><time>2026-01-04T19:45:38.000Z</time></trkpt>
        <trkpt lat="29.535287" lon="104.279308"><ele>591.5674</ele><time>2026-01-04T19:45:43.000Z</time></trkpt>
        <trkpt lat="29.535234" lon="104.279299"><ele>591.9529</ele><time>2026-01-04T19:45:48.000Z</time></trkpt>
        <trkpt lat="29.535186" lon="104.279308"><ele>594.539</ele><time>2026-01-04T19:45:52.000Z</time></trkpt>
        <trkpt lat="29.535135" lon="104.279308"><ele>598.3508</ele><time>2026-01-04T19:45:56.000Z</time></trkpt>
        <trkpt lat="29.53509" lon="104.279329"><ele>599.4818</ele><time>2026-01-04T19:46:00.000Z</time></trkpt>
        <trkpt lat="29.53504" lon="104.279354"><ele>599.2332</ele><time>2026-01-04T19:46:05.000Z</time></trkpt>
        <trkpt lat="29.534984" lon="104.27937"><ele>598.04114</ele><time>2026-01-04T19:46:12.000Z</time></trkpt>
        <trkpt lat="29.534936" lon="104.279374"><ele>596.2387</ele><time>2026-01-04T19:46:17.000Z</time></trkpt>
        <trkpt lat="29.534898" lon="104.27938"><ele>595.8191</ele><time>2026-01-04T19:46:20.000Z</time></trkpt>
        <trkpt lat="29.534846" lon="104.279374"><ele>594.73773</ele><time>2026-01-04T19:46:25.000Z</time></trkpt>
        <trkpt lat="29.53479" lon="104.279382"><ele>594.1772</ele><time>2026-01-04T19:46:30.000Z</time></trkpt>
        <trkpt lat="29.534737" lon="104.279373"><ele>594.5818</ele><time>2026-01-04T19:46:35.000Z</time></trkpt>
        <trkpt lat="29.53469" lon="104.279346"><ele>594.9252</ele><time>2026-01-04T19:46:40.000Z</time></trkpt>
        <trkpt lat="29.534649" lon="104.279322"><ele>594.9511</ele><time>2026-01-04T19:46:44.000Z</time></trkpt>
        <trkpt lat="29.534601" lon="104.279291"><ele>595.2956</ele><time>2026-01-04T19:46:49.000Z</time></trkpt>
        <trkpt lat="29.534558" lon="104.279266"><ele>595.63513</ele><time>2026-01-04T19:46:54.000Z</time></trkpt>
        <trkpt lat="29.534512" lon="104.279241"><ele>596.0628</ele><time>2026-01-04T19:46:59.000Z</time></trkpt>
        <trkpt lat="29.534468" lon="104.279222"><ele>596.55505</ele><time>2026-01-04T19:47:04.000Z</time></trkpt>
        <trkpt lat="29.534423" lon="104.279205"><ele>596.89813</ele><time>2026-01-04T19:47:10.000Z</time></trkpt>
        <trkpt lat="29.534371" lon="104.279207"><ele>596.5607</ele><time>2026-01-04T19:47:17.000Z</time></trkpt>
        <trkpt lat="29.53432" lon="104.279198"><ele>596.046</ele><time>2026-01-04T19:47:38.000Z</time></trkpt>
        <trkpt lat="29.534367" lon="104.279207"><ele>595.35895</ele><time>2026-01-04T19:47:51.000Z</time></trkpt>
        <trkpt lat="29.534328" lon="104.279206"><ele>595.40625</ele><time>2026-01-04T19:48:02.000Z</time></trkpt>
        <trkpt lat="29.534276" lon="104.279205"><ele>594.8321</ele><time>2026-01-04T19:48:08.000Z</time></trkpt>
        <trkpt lat="29.534227" lon="104.279196"><ele>594.1475</ele><time>2026-01-04T19:48:13.000Z</time></trkpt>
        <trkpt lat="29.53418" lon="104.279202"><ele>593.38715</ele><time>2026-01-04T19:48:18.000Z</time></trkpt>
        <trkpt lat="29.534138" lon="104.279223"><ele>592.2252</ele><time>2026-01-04T19:48:23.000Z</time></trkpt>
        <trkpt lat="29.534118" lon="104.279268"><ele>590.8501</ele><time>2026-01-04T19:48:28.000Z</time></trkpt>
        <trkpt lat="29.534126" lon="104.27933"><ele>588.7711</ele><time>2026-01-04T19:48:34.000Z</time></trkpt>
        <trkpt lat="29.53412" lon="104.27929"><ele>588.2341</ele><time>2026-01-04T19:48:48.000Z</time></trkpt>
        <trkpt lat="29.534125" lon="104.279234"><ele>589.38745</ele><time>2026-01-04T19:48:52.000Z</time></trkpt>
        <trkpt lat="29.534143" lon="104.279183"><ele>591.0931</ele><time>2026-01-04T19:48:56.000Z</time></trkpt>
        <trkpt lat="29.534187" lon="104.279166"><ele>592.687</ele><time>2026-01-04T19:49:01.000Z</time></trkpt>
        <trkpt lat="29.534238" lon="104.279173"><ele>593.9207</ele><time>2026-01-04T19:49:06.000Z</time></trkpt>
        <trkpt lat="29.534292" lon="104.279186"><ele>594.85406</ele><time>2026-01-04T19:49:11.000Z</time></trkpt>
        <trkpt lat="29.534294" lon="104.279145"><ele>596.6233</ele><time>2026-01-04T19:49:19.000Z</time></trkpt>
        <trkpt lat="29.534252" lon="104.279126"><ele>597.24164</ele><time>2026-01-04T19:49:23.000Z</time></trkpt>
        <trkpt lat="29.534206" lon="104.279105"><ele>597.7208</ele><time>2026-01-04T19:49:27.000Z</time></trkpt>
        <trkpt lat="29.53415" lon="104.279084"><ele>597.89386</ele><time>2026-01-04T19:49:32.000Z</time></trkpt>
        <trkpt lat="29.5341" lon="104.279068"><ele>597.71387</ele><time>2026-01-04T19:49:37.000Z</time></trkpt>
        <trkpt lat="29.534047" lon="104.279057"><ele>597.5034</ele><time>2026-01-04T19:49:42.000Z</time></trkpt>
        <trkpt lat="29.533995" lon="104.27904"><ele>596.9116</ele><time>2026-01-04T19:49:47.000Z</time></trkpt>
        <trkpt lat="29.533947" lon="104.279026"><ele>595.5838</ele><time>2026-01-04T19:49:52.000Z</time></trkpt>
        <trkpt lat="29.533906" lon="104.279011"><ele>594.71295</ele><time>2026-01-04T19:49:56.000Z</time></trkpt>
        <trkpt lat="29.533865" lon="104.278982"><ele>593.4843</ele><time>2026-01-04T19:50:01.000Z</time></trkpt>
        <trkpt lat="29.53382" lon="104.278954"><ele>593.21735</ele><time>2026-01-04T19:50:06.000Z</time></trkpt>
        <trkpt lat="29.533769" lon="104.27893"><ele>592.7677</ele><time>2026-01-04T19:50:11.000Z</time></trkpt>
        <trkpt lat="29.533722" lon="104.278907"><ele>592.44336</ele><time>2026-01-04T19:50:16.000Z</time></trkpt>
        <trkpt lat="29.533666" lon="104.278868"><ele>590.96234</ele><time>2026-01-04T19:50:32.000Z</time></trkpt>
        <trkpt lat="29.533652" lon="104.278832"><ele>590.9493</ele><time>2026-01-04T19:50:36.000Z</time></trkpt>
        <trkpt lat="29.533632" lon="104.278781"><ele>590.5204</ele><time>2026-01-04T19:50:40.000Z</time></trkpt>
        <trkpt lat="29.533615" lon="104.278713"><ele>589.0553</ele><time>2026-01-04T19:50:45.000Z</time></trkpt>
        <trkpt lat="29.53361" lon="104.27866"><ele>587.9755</ele><time>2026-01-04T19:50:48.000Z</time></trkpt>
        <trkpt lat="29.533602" lon="104.278592"><ele>587.33826</ele><time>2026-01-04T19:50:52.000Z</time></trkpt>
        <trkpt lat="29.533586" lon="104.278515"><ele>586.3868</ele><time>2026-01-04T19:50:57.000Z</time></trkpt>
        <trkpt lat="29.533559" lon="104.278479"><ele>585.38525</ele><time>2026-01-04T19:51:00.000Z</time></trkpt>
        <trkpt lat="29.533535" lon="104.278424"><ele>584.00745</ele><time>2026-01-04T19:51:05.000Z</time></trkpt>
        <trkpt lat="29.533516" lon="104.278375"><ele>582.8438</ele><time>2026-01-04T19:51:10.000Z</time></trkpt>
        <trkpt lat="29.533495" lon="104.278322"><ele>582.3535</ele><time>2026-01-04T19:51:15.000Z</time></trkpt>
        <trkpt lat="29.533462" lon="104.278277"><ele>582.62866</ele><time>2026-01-04T19:51:22.000Z</time></trkpt>
        <trkpt lat="29.533428" lon="104.278239"><ele>583.4511</ele><time>2026-01-04T19:51:28.000Z</time></trkpt>
        <trkpt lat="29.5334" lon="104.278199"><ele>583.39246</ele><time>2026-01-04T19:51:33.000Z</time></trkpt>
        <trkpt lat="29.533363" lon="104.278154"><ele>583.2552</ele><time>2026-01-04T19:51:39.000Z</time></trkpt>
        <trkpt lat="29.533329" lon="104.278112"><ele>583.5336</ele><time>2026-01-04T19:51:44.000Z</time></trkpt>
        <trkpt lat="29.533297" lon="104.278073"><ele>583.7801</ele><time>2026-01-04T19:51:49.000Z</time></trkpt>
        <trkpt lat="29.533251" lon="104.278028"><ele>584.886</ele><time>2026-01-04T19:52:00.000Z</time></trkpt>
        <trkpt lat="29.533213" lon="104.278015"><ele>584.6155</ele><time>2026-01-04T19:52:05.000Z</time></trkpt>
        <trkpt lat="29.533164" lon="104.27802"><ele>583.8468</ele><time>2026-01-04T19:52:11.000Z</time></trkpt>
        <trkpt lat="29.53311" lon="104.27802"><ele>582.02686</ele><time>2026-01-04T19:52:16.000Z</time></trkpt>
        <trkpt lat="29.533056" lon="104.278006"><ele>580.31464</ele><time>2026-01-04T19:52:22.000Z</time></trkpt>
        <trkpt lat="29.533008" lon="104.278008"><ele>580.12744</ele><time>2026-01-04T19:52:26.000Z</time></trkpt>
        <trkpt lat="29.532951" lon="104.278024"><ele>579.7008</ele><time>2026-01-04T19:52:31.000Z</time></trkpt>
        <trkpt lat="29.532899" lon="104.278028"><ele>578.94727</ele><time>2026-01-04T19:52:36.000Z</time></trkpt>
        <trkpt lat="29.532853" lon="104.278024"><ele>578.37396</ele><time>2026-01-04T19:52:40.000Z</time></trkpt>
        <trkpt lat="29.532801" lon="104.278006"><ele>576.6016</ele><time>2026-01-04T19:52:52.000Z</time></trkpt>
        <trkpt lat="29.532768" lon="104.277983"><ele>576.5202</ele><time>2026-01-04T19:52:57.000Z</time></trkpt>
        <trkpt lat="29.532718" lon="104.277941"><ele>576.3979</ele><time>2026-01-04T19:53:04.000Z</time></trkpt>
        <trkpt lat="29.532676" lon="104.277898"><ele>576.37604</ele><time>2026-01-04T19:53:11.000Z</time></trkpt>
        <trkpt lat="29.532637" lon="104.277859"><ele>575.81757</ele><time>2026-01-04T19:53:17.000Z</time></trkpt>
        <trkpt lat="29.532603" lon="104.277822"><ele>575.1384</ele><time>2026-01-04T19:53:21.000Z</time></trkpt>
        <trkpt lat="29.532561" lon="104.277773"><ele>574.39185</ele><time>2026-01-04T19:53:32.000Z</time></trkpt>
        <trkpt lat="29.532532" lon="104.277739"><ele>574.3515</ele><time>2026-01-04T19:53:37.000Z</time></trkpt>
        <trkpt lat="29.532501" lon="104.277693"><ele>573.9477</ele><time>2026-01-04T19:53:42.000Z</time></trkpt>
        <trkpt lat="29.532467" lon="104.27764"><ele>573.65436</ele><time>2026-01-04T19:53:50.000Z</time></trkpt>
        <trkpt lat="29.532444" lon="104.277595"><ele>573.7665</ele><time>2026-01-04T19:53:55.000Z</time></trkpt>
        <trkpt lat="29.532416" lon="104.277556"><ele>574.5922</ele><time>2026-01-04T19:53:59.000Z</time></trkpt>
        <trkpt lat="29.532391" lon="104.277511"><ele>575.4674</ele><time>2026-01-04T19:54:03.000Z</time></trkpt>
        <trkpt lat="29.532356" lon="104.277458"><ele>576.4844</ele><time>2026-01-04T19:54:13.000Z</time></trkpt>
        <trkpt lat="29.532324" lon="104.277421"><ele>576.337</ele><time>2026-01-04T19:54:19.000Z</time></trkpt>
        <trkpt lat="29.532297" lon="104.277374"><ele>576.4301</ele><time>2026-01-04T19:54:24.000Z</time></trkpt>
        <trkpt lat="29.532268" lon="104.277321"><ele>576.56415</ele><time>2026-01-04T19:54:29.000Z</time></trkpt>
        <trkpt lat="29.532238" lon="104.277267"><ele>576.2125</ele><time>2026-01-04T19:54:34.000Z</time></trkpt>
        <trkpt lat="29.53221" lon="104.277216"><ele>575.53284</ele><time>2026-01-04T19:54:39.000Z</time></trkpt>
        <trkpt lat="29.532201" lon="104.277163"><ele>575.60657</ele><time>2026-01-04T19:54:45.000Z</time></trkpt>
        <trkpt lat="29.532191" lon="104.277121"><ele>575.6937</ele><time>2026-01-04T19:54:48.000Z</time></trkpt>
        <trkpt lat="29.532218" lon="104.277064"><ele>575.9162</ele><time>2026-01-04T19:57:25.000Z</time></trkpt>
        <trkpt lat="29.532238" lon="104.27704"><ele>575.74896</ele><time>2026-01-04T19:57:30.000Z</time></trkpt>
        <trkpt lat="29.532255" lon="104.27698"><ele>575.51447</ele><time>2026-01-04T19:57:35.000Z</time></trkpt>
        <trkpt lat="29.532285" lon="104.276935"><ele>575.90234</ele><time>2026-01-04T19:57:39.000Z</time></trkpt>
        <trkpt lat="29.532295" lon="104.27688"><ele>577.62726</ele><time>2026-01-04T19:57:44.000Z</time></trkpt>
        <trkpt lat="29.532304" lon="104.27683"><ele>578.67456</ele><time>2026-01-04T19:57:48.000Z</time></trkpt>
        <trkpt lat="29.532313" lon="104.276767"><ele>579.4956</ele><time>2026-01-04T19:57:53.000Z</time></trkpt>
        <trkpt lat="29.532319" lon="104.276714"><ele>579.1187</ele><time>2026-01-04T19:57:57.000Z</time></trkpt>
        <trkpt lat="29.532329" lon="104.276662"><ele>578.7405</ele><time>2026-01-04T19:58:01.000Z</time></trkpt>
        <trkpt lat="29.532333" lon="104.276602"><ele>578.8272</ele><time>2026-01-04T19:58:06.000Z</time></trkpt>
        <trkpt lat="29.532336" lon="104.276547"><ele>579.1428</ele><time>2026-01-04T19:58:11.000Z</time></trkpt>
        <trkpt lat="29.532336" lon="104.276489"><ele>579.9863</ele><time>2026-01-04T19:58:16.000Z</time></trkpt>
        <trkpt lat="29.532338" lon="104.276435"><ele>580.7717</ele><time>2026-01-04T19:58:21.000Z</time></trkpt>
        <trkpt lat="29.532347" lon="104.276383"><ele>581.4215</ele><time>2026-01-04T19:58:26.000Z</time></trkpt>
        <trkpt lat="29.532359" lon="104.276323"><ele>581.2848</ele><time>2026-01-04T19:58:32.000Z</time></trkpt>
        <trkpt lat="29.53237" lon="104.276277"><ele>582.4239</ele><time>2026-01-04T19:58:36.000Z</time></trkpt>
        <trkpt lat="29.532381" lon="104.276224"><ele>582.76825</ele><time>2026-01-04T19:58:40.000Z</time></trkpt>
        <trkpt lat="29.532379" lon="104.276158"><ele>582.4478</ele><time>2026-01-04T19:58:45.000Z</time></trkpt>
        <trkpt lat="29.532372" lon="104.276087"><ele>582.7365</ele><time>2026-01-04T19:58:50.000Z</time></trkpt>
        <trkpt lat="29.532368" lon="104.276023"><ele>582.7131</ele><time>2026-01-04T19:58:55.000Z</time></trkpt>
        <trkpt lat="29.532362" lon="104.275969"><ele>582.8372</ele><time>2026-01-04T19:59:00.000Z</time></trkpt>
        <trkpt lat="29.532344" lon="104.275916"><ele>582.4958</ele><time>2026-01-04T19:59:04.000Z</time></trkpt>
        <trkpt lat="29.532325" lon="104.275861"><ele>581.9415</ele><time>2026-01-04T19:59:08.000Z</time></trkpt>
        <trkpt lat="29.532311" lon="104.275805"><ele>581.3625</ele><time>2026-01-04T19:59:12.000Z</time></trkpt>
        <trkpt lat="29.532298" lon="104.275745"><ele>581.4135</ele><time>2026-01-04T19:59:17.000Z</time></trkpt>
        <trkpt lat="29.532275" lon="104.275692"><ele>580.88727</ele><time>2026-01-04T19:59:22.000Z</time></trkpt>
        <trkpt lat="29.532253" lon="104.275649"><ele>580.4796</ele><time>2026-01-04T19:59:26.000Z</time></trkpt>
        <trkpt lat="29.532223" lon="104.275597"><ele>580.66046</ele><time>2026-01-04T19:59:30.000Z</time></trkpt>
        <trkpt lat="29.53219" lon="104.275553"><ele>580.0955</ele><time>2026-01-04T19:59:34.000Z</time></trkpt>
        <trkpt lat="29.532164" lon="104.275505"><ele>579.97675</ele><time>2026-01-04T19:59:38.000Z</time></trkpt>
        <trkpt lat="29.532148" lon="104.275444"><ele>579.4179</ele><time>2026-01-04T19:59:44.000Z</time></trkpt>
        <trkpt lat="29.53214" lon="104.275395"><ele>578.59155</ele><time>2026-01-04T19:59:47.000Z</time></trkpt>
        <trkpt lat="29.532136" lon="104.275321"><ele>578.3957</ele><time>2026-01-04T19:59:53.000Z</time></trkpt>
        <trkpt lat="29.532141" lon="104.275268"><ele>577.932</ele><time>2026-01-04T19:59:57.000Z</time></trkpt>
        <trkpt lat="29.532152" lon="104.275217"><ele>578.62946</ele><time>2026-01-04T20:00:01.000Z</time></trkpt>
        <trkpt lat="29.532169" lon="104.275169"><ele>579.96686</ele><time>2026-01-04T20:00:05.000Z</time></trkpt>
        <trkpt lat="29.532187" lon="104.27512"><ele>581.03125</ele><time>2026-01-04T20:00:09.000Z</time></trkpt>
        <trkpt lat="29.532219" lon="104.275066"><ele>582.4804</ele><time>2026-01-04T20:00:14.000Z</time></trkpt>
        <trkpt lat="29.532257" lon="104.275026"><ele>583.3681</ele><time>2026-01-04T20:00:19.000Z</time></trkpt>
        <trkpt lat="29.53229" lon="104.27499"><ele>583.7418</ele><time>2026-01-04T20:00:23.000Z</time></trkpt>
        <trkpt lat="29.532328" lon="104.274943"><ele>583.7251</ele><time>2026-01-04T20:00:28.000Z</time></trkpt>
        <trkpt lat="29.532365" lon="104.274896"><ele>584.1867</ele><time>2026-01-04T20:00:33.000Z</time></trkpt>
        <trkpt lat="29.532408" lon="104.274855"><ele>584.6708</ele><time>2026-01-04T20:00:38.000Z</time></trkpt>
        <trkpt lat="29.532455" lon="104.274845"><ele>584.6314</ele><time>2026-01-04T20:00:42.000Z</time></trkpt>
        <trkpt lat="29.532505" lon="104.274847"><ele>584.3386</ele><time>2026-01-04T20:00:46.000Z</time></trkpt>
        <trkpt lat="29.532554" lon="104.274865"><ele>583.967</ele><time>2026-01-04T20:00:50.000Z</time></trkpt>
        <trkpt lat="29.532604" lon="104.274878"><ele>584.19995</ele><time>2026-01-04T20:00:54.000Z</time></trkpt>
        <trkpt lat="29.532665" lon="104.274894"><ele>584.2552</ele><time>2026-01-04T20:00:59.000Z</time></trkpt>
        <trkpt lat="29.532718" lon="104.274917"><ele>584.089</ele><time>2026-01-04T20:01:04.000Z</time></trkpt>
        <trkpt lat="29.532769" lon="104.274937"><ele>584.54626</ele><time>2026-01-04T20:01:09.000Z</time></trkpt>
        <trkpt lat="29.532809" lon="104.274967"><ele>584.7482</ele><time>2026-01-04T20:01:13.000Z</time></trkpt>
        <trkpt lat="29.532849" lon="104.274997"><ele>585.14685</ele><time>2026-01-04T20:01:17.000Z</time></trkpt>
        <trkpt lat="29.532886" lon="104.275031"><ele>585.56476</ele><time>2026-01-04T20:01:21.000Z</time></trkpt>
        <trkpt lat="29.532942" lon="104.275056"><ele>585.8044</ele><time>2026-01-04T20:01:29.000Z</time></trkpt>
        <trkpt lat="29.532987" lon="104.275058"><ele>586.21924</ele><time>2026-01-04T20:01:34.000Z</time></trkpt>
        <trkpt lat="29.53304" lon="104.275069"><ele>586.85004</ele><time>2026-01-04T20:01:39.000Z</time></trkpt>
        <trkpt lat="29.533098" lon="104.275067"><ele>587.7821</ele><time>2026-01-04T20:01:44.000Z</time></trkpt>
        <trkpt lat="29.533155" lon="104.275062"><ele>586.97034</ele><time>2026-01-04T20:01:49.000Z</time></trkpt>
        <trkpt lat="29.533205" lon="104.275042"><ele>586.42786</ele><time>2026-01-04T20:01:54.000Z</time></trkpt>
        <trkpt lat="29.533248" lon="104.275018"><ele>586.63556</ele><time>2026-01-04T20:01:58.000Z</time></trkpt>
        <trkpt lat="29.533297" lon="104.274999"><ele>586.993</ele><time>2026-01-04T20:02:02.000Z</time></trkpt>
        <trkpt lat="29.533343" lon="104.274983"><ele>587.10004</ele><time>2026-01-04T20:02:06.000Z</time></trkpt>
        <trkpt lat="29.533399" lon="104.274965"><ele>586.99146</ele><time>2026-01-04T20:02:11.000Z</time></trkpt>
        <trkpt lat="29.533453" lon="104.274971"><ele>586.554</ele><time>2026-01-04T20:02:16.000Z</time></trkpt>
        <trkpt lat="29.533505" lon="104.274995"><ele>586.14294</ele><time>2026-01-04T20:02:21.000Z</time></trkpt>
        <trkpt lat="29.533561" lon="104.275007"><ele>585.9226</ele><time>2026-01-04T20:02:28.000Z</time></trkpt>
        <trkpt lat="29.533609" lon="104.275014"><ele>586.1892</ele><time>2026-01-04T20:02:33.000Z</time></trkpt>
        <trkpt lat="29.533653" lon="104.275027"><ele>586.9557</ele><time>2026-01-04T20:02:37.000Z</time></trkpt>
        <trkpt lat="29.533705" lon="104.275033"><ele>586.55585</ele><time>2026-01-04T20:02:41.000Z</time></trkpt>
        <trkpt lat="29.533753" lon="104.27506"><ele>586.2865</ele><time>2026-01-04T20:02:45.000Z</time></trkpt>
        <trkpt lat="29.533799" lon="104.275089"><ele>585.3346</ele><time>2026-01-04T20:02:49.000Z</time></trkpt>
        <trkpt lat="29.53385" lon="104.275122"><ele>584.39624</ele><time>2026-01-04T20:02:54.000Z</time></trkpt>
        <trkpt lat="29.533891" lon="104.275154"><ele>583.9019</ele><time>2026-01-04T20:02:59.000Z</time></trkpt>
        <trkpt lat="29.533933" lon="104.275186"><ele>584.1862</ele><time>2026-01-04T20:03:04.000Z</time></trkpt>
        <trkpt lat="29.533965" lon="104.275213"><ele>583.8495</ele><time>2026-01-04T20:03:07.000Z</time></trkpt>
        <trkpt lat="29.534011" lon="104.275254"><ele>583.9414</ele><time>2026-01-04T20:03:12.000Z</time></trkpt>
        <trkpt lat="29.53405" lon="104.27528"><ele>584.1939</ele><time>2026-01-04T20:03:16.000Z</time></trkpt>
        <trkpt lat="29.534102" lon="104.275311"><ele>584.50757</ele><time>2026-01-04T20:03:21.000Z</time></trkpt>
        <trkpt lat="29.534152" lon="104.275334"><ele>584.64655</ele><time>2026-01-04T20:03:26.000Z</time></trkpt>
        <trkpt lat="29.534195" lon="104.275349"><ele>584.59674</ele><time>2026-01-04T20:03:30.000Z</time></trkpt>
        <trkpt lat="29.534249" lon="104.275366"><ele>584.394</ele><time>2026-01-04T20:03:35.000Z</time></trkpt>
        <trkpt lat="29.534293" lon="104.275385"><ele>584.1072</ele><time>2026-01-04T20:03:39.000Z</time></trkpt>
        <trkpt lat="29.534338" lon="104.275405"><ele>584.05945</ele><time>2026-01-04T20:03:43.000Z</time></trkpt>
        <trkpt lat="29.534374" lon="104.275439"><ele>584.40234</ele><time>2026-01-04T20:03:47.000Z</time></trkpt>
        <trkpt lat="29.534411" lon="104.275482"><ele>585.3886</ele><time>2026-01-04T20:03:53.000Z</time></trkpt>
        <trkpt lat="29.53444" lon="104.275524"><ele>586.22363</ele><time>2026-01-04T20:03:58.000Z</time></trkpt>
        <trkpt lat="29.534469" lon="104.275561"><ele>586.74713</ele><time>2026-01-04T20:04:02.000Z</time></trkpt>
        <trkpt lat="29.534511" lon="104.275605"><ele>587.6103</ele><time>2026-01-04T20:04:07.000Z</time></trkpt>
        <trkpt lat="29.53455" lon="104.275635"><ele>588.23376</ele><time>2026-01-04T20:04:11.000Z</time></trkpt>
        <trkpt lat="29.534598" lon="104.275664"><ele>588.49023</ele><time>2026-01-04T20:04:16.000Z</time></trkpt>
        <trkpt lat="29.534647" lon="104.275678"><ele>588.9072</ele><time>2026-01-04T20:04:21.000Z</time></trkpt>
        <trkpt lat="29.534689" lon="104.275687"><ele>588.6709</ele><time>2026-01-04T20:04:25.000Z</time></trkpt>
        <trkpt lat="29.534741" lon="104.275697"><ele>588.19763</ele><time>2026-01-04T20:04:30.000Z</time></trkpt>
        <trkpt lat="29.534793" lon="104.275697"><ele>587.76074</ele><time>2026-01-04T20:04:35.000Z</time></trkpt>
        <trkpt lat="29.53485" lon="104.275704"><ele>586.6746</ele><time>2026-01-04T20:04:40.000Z</time></trkpt>
        <trkpt lat="29.534905" lon="104.275706"><ele>585.537</ele><time>2026-01-04T20:04:45.000Z</time></trkpt>
        <trkpt lat="29.534956" lon="104.275721"><ele>584.69965</ele><time>2026-01-04T20:04:49.000Z</time></trkpt>
        <trkpt lat="29.535011" lon="104.275745"><ele>584.05084</ele><time>2026-01-04T20:04:56.000Z</time></trkpt>
        <trkpt lat="29.535055" lon="104.275772"><ele>583.91394</ele><time>2026-01-04T20:05:02.000Z</time></trkpt>
        <trkpt lat="29.535101" lon="104.27579"><ele>583.176</ele><time>2026-01-04T20:05:07.000Z</time></trkpt>
        <trkpt lat="29.535152" lon="104.275801"><ele>582.3943</ele><time>2026-01-04T20:05:13.000Z</time></trkpt>
        <trkpt lat="29.535192" lon="104.275808"><ele>581.12006</ele><time>2026-01-04T20:05:17.000Z</time></trkpt>
        <trkpt lat="29.535244" lon="104.275797"><ele>580.0338</ele><time>2026-01-04T20:05:22.000Z</time></trkpt>
        <trkpt lat="29.535295" lon="104.275768"><ele>578.88446</ele><time>2026-01-04T20:05:28.000Z</time></trkpt>
        <trkpt lat="29.535332" lon="104.275739"><ele>577.9756</ele><time>2026-01-04T20:05:32.000Z</time></trkpt>
        <trkpt lat="29.535375" lon="104.27571"><ele>576.0603</ele><time>2026-01-04T20:05:37.000Z</time></trkpt>
        <trkpt lat="29.535424" lon="104.275687"><ele>573.6917</ele><time>2026-01-04T20:05:43.000Z</time></trkpt>
        <trkpt lat="29.535476" lon="104.275705"><ele>569.6957</ele><time>2026-01-04T20:06:21.000Z</time></trkpt>
        <trkpt lat="29.535518" lon="104.275712"><ele>569.70953</ele><time>2026-01-04T20:06:26.000Z</time></trkpt>
        <trkpt lat="29.535564" lon="104.275747"><ele>568.92145</ele><time>2026-01-04T20:06:31.000Z</time></trkpt>
        <trkpt lat="29.535609" lon="104.275789"><ele>569.0279</ele><time>2026-01-04T20:06:36.000Z</time></trkpt>
        <trkpt lat="29.535652" lon="104.275837"><ele>569.2662</ele><time>2026-01-04T20:06:44.000Z</time></trkpt>
        <trkpt lat="29.535698" lon="104.27585"><ele>571.40393</ele><time>2026-01-04T20:06:54.000Z</time></trkpt>
        <trkpt lat="29.535712" lon="104.275797"><ele>571.2055</ele><time>2026-01-04T20:07:04.000Z</time></trkpt>
        <trkpt lat="29.535739" lon="104.275818"><ele>570.4603</ele><time>2026-01-04T20:07:07.000Z</time></trkpt>
        <trkpt lat="29.535768" lon="104.275861"><ele>569.8828</ele><time>2026-01-04T20:07:09.000Z</time></trkpt>
        <trkpt lat="29.535811" lon="104.275902"><ele>569.96344</ele><time>2026-01-04T20:07:13.000Z</time></trkpt>
        <trkpt lat="29.535861" lon="104.275934"><ele>570.56006</ele><time>2026-01-04T20:07:18.000Z</time></trkpt>
        <trkpt lat="29.535915" lon="104.275955"><ele>570.52875</ele><time>2026-01-04T20:07:23.000Z</time></trkpt>
        <trkpt lat="29.535959" lon="104.275973"><ele>570.777</ele><time>2026-01-04T20:07:27.000Z</time></trkpt>
        <trkpt lat="29.536011" lon="104.276002"><ele>571.0896</ele><time>2026-01-04T20:07:34.000Z</time></trkpt>
        <trkpt lat="29.536059" lon="104.276021"><ele>571.2268</ele><time>2026-01-04T20:07:40.000Z</time></trkpt>
        <trkpt lat="29.536092" lon="104.276053"><ele>571.17456</ele><time>2026-01-04T20:07:44.000Z</time></trkpt>
        <trkpt lat="29.536114" lon="104.276101"><ele>571.89825</ele><time>2026-01-04T20:07:48.000Z</time></trkpt>
        <trkpt lat="29.536137" lon="104.276152"><ele>573.1707</ele><time>2026-01-04T20:07:52.000Z</time></trkpt>
        <trkpt lat="29.53618" lon="104.27617"><ele>574.4978</ele><time>2026-01-04T20:07:58.000Z</time></trkpt>
        <trkpt lat="29.536223" lon="104.276158"><ele>574.4317</ele><time>2026-01-04T20:08:03.000Z</time></trkpt>
        <trkpt lat="29.536268" lon="104.276118"><ele>573.9052</ele><time>2026-01-04T20:08:09.000Z</time></trkpt>
        <trkpt lat="29.536308" lon="104.276106"><ele>572.90497</ele><time>2026-01-04T20:08:13.000Z</time></trkpt>
        <trkpt lat="29.536352" lon="104.276115"><ele>572.24316</ele><time>2026-01-04T20:08:17.000Z</time></trkpt>
        <trkpt lat="29.536409" lon="104.276128"><ele>572.41095</ele><time>2026-01-04T20:08:23.000Z</time></trkpt>
        <trkpt lat="29.536459" lon="104.276124"><ele>572.5599</ele><time>2026-01-04T20:08:27.000Z</time></trkpt>
        <trkpt lat="29.536491" lon="104.276085"><ele>572.7426</ele><time>2026-01-04T20:08:32.000Z</time></trkpt>
        <trkpt lat="29.536493" lon="104.276024"><ele>572.3119</ele><time>2026-01-04T20:08:36.000Z</time></trkpt>
        <trkpt lat="29.536492" lon="104.275968"><ele>571.9242</ele><time>2026-01-04T20:08:39.000Z</time></trkpt>
        <trkpt lat="29.536486" lon="104.275897"><ele>571.5523</ele><time>2026-01-04T20:08:44.000Z</time></trkpt>
        <trkpt lat="29.536456" lon="104.275843"><ele>570.83344</ele><time>2026-01-04T20:08:52.000Z</time></trkpt>
        <trkpt lat="29.536431" lon="104.275802"><ele>570.41693</ele><time>2026-01-04T20:08:58.000Z</time></trkpt>
        <trkpt lat="29.5364" lon="104.275756"><ele>570.0603</ele><time>2026-01-04T20:09:05.000Z</time></trkpt>
        <trkpt lat="29.536378" lon="104.275711"><ele>570.1336</ele><time>2026-01-04T20:09:11.000Z</time></trkpt>
        <trkpt lat="29.536358" lon="104.275654"><ele>570.2018</ele><time>2026-01-04T20:09:18.000Z</time></trkpt>
        <trkpt lat="29.536345" lon="104.275598"><ele>570.5063</ele><time>2026-01-04T20:09:24.000Z</time></trkpt>
        <trkpt lat="29.53633" lon="104.275546"><ele>570.82806</ele><time>2026-01-04T20:09:31.000Z</time></trkpt>
        <trkpt lat="29.536318" lon="104.27549"><ele>571.23975</ele><time>2026-01-04T20:09:37.000Z</time></trkpt>
        <trkpt lat="29.536309" lon="104.275429"><ele>571.44324</ele><time>2026-01-04T20:09:44.000Z</time></trkpt>
        <trkpt lat="29.536298" lon="104.275372"><ele>571.89813</ele><time>2026-01-04T20:09:51.000Z</time></trkpt>
        <trkpt lat="29.536289" lon="104.275323"><ele>572.0323</ele><time>2026-01-04T20:09:56.000Z</time></trkpt>
        <trkpt lat="29.536283" lon="104.275274"><ele>572.716</ele><time>2026-01-04T20:10:00.000Z</time></trkpt>
        <trkpt lat="29.536273" lon="104.275219"><ele>573.4265</ele><time>2026-01-04T20:10:04.000Z</time></trkpt>
        <trkpt lat="29.536274" lon="104.275149"><ele>574.36035</ele><time>2026-01-04T20:10:12.000Z</time></trkpt>
        <trkpt lat="29.536262" lon="104.275101"><ele>574.76697</ele><time>2026-01-04T20:10:21.000Z</time></trkpt>
        <trkpt lat="29.536276" lon="104.275052"><ele>575.11536</ele><time>2026-01-04T20:10:38.000Z</time></trkpt>
        <trkpt lat="29.536278" lon="104.275007"><ele>575.2773</ele><time>2026-01-04T20:10:42.000Z</time></trkpt>
        <trkpt lat="29.536274" lon="104.274953"><ele>575.85223</ele><time>2026-01-04T20:10:46.000Z</time></trkpt>
        <trkpt lat="29.536258" lon="104.274895"><ele>576.5442</ele><time>2026-01-04T20:10:50.000Z</time></trkpt>
        <trkpt lat="29.536239" lon="104.274836"><ele>576.9915</ele><time>2026-01-04T20:10:54.000Z</time></trkpt>
        <trkpt lat="29.536216" lon="104.274782"><ele>577.2361</ele><time>2026-01-04T20:10:58.000Z</time></trkpt>
        <trkpt lat="29.536196" lon="104.274733"><ele>577.40186</ele><time>2026-01-04T20:11:02.000Z</time></trkpt>
        <trkpt lat="29.53618" lon="104.274675"><ele>577.72736</ele><time>2026-01-04T20:11:07.000Z</time></trkpt>
        <trkpt lat="29.536169" lon="104.274627"><ele>578.0558</ele><time>2026-01-04T20:11:11.000Z</time></trkpt>
        <trkpt lat="29.536158" lon="104.274577"><ele>578.30023</ele><time>2026-01-04T20:11:15.000Z</time></trkpt>
        <trkpt lat="29.536142" lon="104.274525"><ele>578.99384</ele><time>2026-01-04T20:11:19.000Z</time></trkpt>
        <trkpt lat="29.536133" lon="104.274469"><ele>579.87646</ele><time>2026-01-04T20:11:24.000Z</time></trkpt>
        <trkpt lat="29.53612" lon="104.274399"><ele>580.4622</ele><time>2026-01-04T20:11:29.000Z</time></trkpt>
        <trkpt lat="29.536109" lon="104.274336"><ele>580.03156</ele><time>2026-01-04T20:11:35.000Z</time></trkpt>
        <trkpt lat="29.536095" lon="104.274283"><ele>579.9485</ele><time>2026-01-04T20:11:40.000Z</time></trkpt>
        <trkpt lat="29.536074" lon="104.274238"><ele>580.16156</ele><time>2026-01-04T20:11:44.000Z</time></trkpt>
        <trkpt lat="29.536066" lon="104.274181"><ele>580.3794</ele><time>2026-01-04T20:11:49.000Z</time></trkpt>
        <trkpt lat="29.53605" lon="104.274129"><ele>580.7275</ele><time>2026-01-04T20:11:54.000Z</time></trkpt>
        <trkpt lat="29.536034" lon="104.274074"><ele>580.8692</ele><time>2026-01-04T20:12:00.000Z</time></trkpt>
        <trkpt lat="29.536005" lon="104.274043"><ele>580.2753</ele><time>2026-01-04T20:12:04.000Z</time></trkpt>
        <trkpt lat="29.535974" lon="104.273987"><ele>579.15216</ele><time>2026-01-04T20:12:11.000Z</time></trkpt>
        <trkpt lat="29.535962" lon="104.273933"><ele>579.5076</ele><time>2026-01-04T20:12:15.000Z</time></trkpt>
        <trkpt lat="29.535971" lon="104.273866"><ele>579.6569</ele><time>2026-01-04T20:12:20.000Z</time></trkpt>
        <trkpt lat="29.535988" lon="104.273799"><ele>579.99646</ele><time>2026-01-04T20:12:25.000Z</time></trkpt>
        <trkpt lat="29.53601" lon="104.273745"><ele>579.95294</ele><time>2026-01-04T20:12:30.000Z</time></trkpt>
        <trkpt lat="29.536026" lon="104.273699"><ele>580.0567</ele><time>2026-01-04T20:12:34.000Z</time></trkpt>
        <trkpt lat="29.536047" lon="104.273647"><ele>580.3355</ele><time>2026-01-04T20:12:39.000Z</time></trkpt>
        <trkpt lat="29.536078" lon="104.273604"><ele>580.43146</ele><time>2026-01-04T20:12:44.000Z</time></trkpt>
        <trkpt lat="29.536109" lon="104.273558"><ele>580.5602</ele><time>2026-01-04T20:12:49.000Z</time></trkpt>
        <trkpt lat="29.536141" lon="104.273513"><ele>580.3717</ele><time>2026-01-04T20:12:54.000Z</time></trkpt>
        <trkpt lat="29.536175" lon="104.273464"><ele>580.01953</ele><time>2026-01-04T20:12:59.000Z</time></trkpt>
        <trkpt lat="29.536202" lon="104.273421"><ele>579.7587</ele><time>2026-01-04T20:13:03.000Z</time></trkpt>
        <trkpt lat="29.53623" lon="104.273362"><ele>580.0916</ele><time>2026-01-04T20:13:09.000Z</time></trkpt>
        <trkpt lat="29.536254" lon="104.273308"><ele>580.58984</ele><time>2026-01-04T20:13:14.000Z</time></trkpt>
        <trkpt lat="29.536276" lon="104.273254"><ele>581.88525</ele><time>2026-01-04T20:13:19.000Z</time></trkpt>
        <trkpt lat="29.536295" lon="104.273199"><ele>582.96826</ele><time>2026-01-04T20:13:24.000Z</time></trkpt>
        <trkpt lat="29.536318" lon="104.273146"><ele>583.3897</ele><time>2026-01-04T20:13:29.000Z</time></trkpt>
        <trkpt lat="29.536335" lon="104.273099"><ele>584.476</ele><time>2026-01-04T20:13:33.000Z</time></trkpt>
        <trkpt lat="29.536363" lon="104.273048"><ele>586.0082</ele><time>2026-01-04T20:13:38.000Z</time></trkpt>
        <trkpt lat="29.536369" lon="104.273"><ele>586.9321</ele><time>2026-01-04T20:13:42.000Z</time></trkpt>
        <trkpt lat="29.536373" lon="104.272941"><ele>587.5694</ele><time>2026-01-04T20:13:46.000Z</time></trkpt>
        <trkpt lat="29.536367" lon="104.27288"><ele>587.8165</ele><time>2026-01-04T20:13:51.000Z</time></trkpt>
        <trkpt lat="29.536367" lon="104.272828"><ele>587.8092</ele><time>2026-01-04T20:13:55.000Z</time></trkpt>
        <trkpt lat="29.536372" lon="104.272765"><ele>588.76196</ele><time>2026-01-04T20:14:00.000Z</time></trkpt>
        <trkpt lat="29.536379" lon="104.272714"><ele>589.4269</ele><time>2026-01-04T20:14:04.000Z</time></trkpt>
        <trkpt lat="29.536384" lon="104.272656"><ele>589.82965</ele><time>2026-01-04T20:14:08.000Z</time></trkpt>
        <trkpt lat="29.53639" lon="104.272599"><ele>590.6287</ele><time>2026-01-04T20:14:12.000Z</time></trkpt>
        <trkpt lat="29.536403" lon="104.272525"><ele>590.9961</ele><time>2026-01-04T20:14:18.000Z</time></trkpt>
        <trkpt lat="29.536393" lon="104.272463"><ele>591.2712</ele><time>2026-01-04T20:14:24.000Z</time></trkpt>
        <trkpt lat="29.53637" lon="104.272416"><ele>591.79663</ele><time>2026-01-04T20:14:29.000Z</time></trkpt>
        <trkpt lat="29.53635" lon="104.272363"><ele>591.6856</ele><time>2026-01-04T20:14:33.000Z</time></trkpt>
        <trkpt lat="29.536324" lon="104.272303"><ele>591.62524</ele><time>2026-01-04T20:14:38.000Z</time></trkpt>
        <trkpt lat="29.536295" lon="104.272244"><ele>592.2037</ele><time>2026-01-04T20:14:43.000Z</time></trkpt>
        <trkpt lat="29.536273" lon="104.272188"><ele>592.1731</ele><time>2026-01-04T20:14:48.000Z</time></trkpt>
        <trkpt lat="29.536251" lon="104.272137"><ele>592.7393</ele><time>2026-01-04T20:14:53.000Z</time></trkpt>
        <trkpt lat="29.536214" lon="104.272087"><ele>592.8668</ele><time>2026-01-04T20:14:58.000Z</time></trkpt>
        <trkpt lat="29.536179" lon="104.272046"><ele>592.22144</ele><time>2026-01-04T20:15:03.000Z</time></trkpt>
        <trkpt lat="29.536139" lon="104.272008"><ele>590.972</ele><time>2026-01-04T20:15:08.000Z</time></trkpt>
        <trkpt lat="29.536109" lon="104.271957"><ele>590.0211</ele><time>2026-01-04T20:15:13.000Z</time></trkpt>
        <trkpt lat="29.536072" lon="104.271916"><ele>590.1718</ele><time>2026-01-04T20:15:18.000Z</time></trkpt>
        <trkpt lat="29.536022" lon="104.271897"><ele>590.92816</ele><time>2026-01-04T20:15:30.000Z</time></trkpt>
        <trkpt lat="29.535999" lon="104.271872"><ele>590.7287</ele><time>2026-01-04T20:15:34.000Z</time></trkpt>
        <trkpt lat="29.535954" lon="104.271848"><ele>590.7637</ele><time>2026-01-04T20:15:38.000Z</time></trkpt>
        <trkpt lat="29.535912" lon="104.271824"><ele>590.5555</ele><time>2026-01-04T20:15:41.000Z</time></trkpt>
        <trkpt lat="29.535851" lon="104.271795"><ele>589.5888</ele><time>2026-01-04T20:15:48.000Z</time></trkpt>
        <trkpt lat="29.53581" lon="104.271758"><ele>588.1991</ele><time>2026-01-04T20:15:53.000Z</time></trkpt>
        <trkpt lat="29.535771" lon="104.271737"><ele>587.48413</ele><time>2026-01-04T20:15:56.000Z</time></trkpt>
        <trkpt lat="29.535724" lon="104.271719"><ele>586.80945</ele><time>2026-01-04T20:15:59.000Z</time></trkpt>
        <trkpt lat="29.535656" lon="104.271684"><ele>585.2624</ele><time>2026-01-04T20:16:05.000Z</time></trkpt>
        <trkpt lat="29.53561" lon="104.271648"><ele>584.406</ele><time>2026-01-04T20:16:10.000Z</time></trkpt>
        <trkpt lat="29.53558" lon="104.2716"><ele>583.79395</ele><time>2026-01-04T20:16:14.000Z</time></trkpt>
        <trkpt lat="29.535552" lon="104.271546"><ele>583.55005</ele><time>2026-01-04T20:16:20.000Z</time></trkpt>
        <trkpt lat="29.535553" lon="104.271486"><ele>583.9636</ele><time>2026-01-04T20:16:25.000Z</time></trkpt>
        <trkpt lat="29.535537" lon="104.271429"><ele>584.07654</ele><time>2026-01-04T20:16:32.000Z</time></trkpt>
        <trkpt lat="29.535522" lon="104.271388"><ele>583.70386</ele><time>2026-01-04T20:16:36.000Z</time></trkpt>
        <trkpt lat="29.535514" lon="104.271346"><ele>583.68744</ele><time>2026-01-04T20:16:38.000Z</time></trkpt>
        <trkpt lat="29.535504" lon="104.271272"><ele>584.14264</ele><time>2026-01-04T20:16:43.000Z</time></trkpt>
        <trkpt lat="29.535494" lon="104.271212"><ele>585.1354</ele><time>2026-01-04T20:16:47.000Z</time></trkpt>
        <trkpt lat="29.535484" lon="104.271155"><ele>585.2069</ele><time>2026-01-04T20:16:51.000Z</time></trkpt>
        <trkpt lat="29.535448" lon="104.271119"><ele>585.56903</ele><time>2026-01-04T20:16:57.000Z</time></trkpt>
        <trkpt lat="29.53541" lon="104.271092"><ele>584.9945</ele><time>2026-01-04T20:17:01.000Z</time></trkpt>
        <trkpt lat="29.535369" lon="104.271057"><ele>585.19257</ele><time>2026-01-04T20:17:06.000Z</time></trkpt>
        <trkpt lat="29.535327" lon="104.271052"><ele>585.64276</ele><time>2026-01-04T20:17:10.000Z</time></trkpt>
        <trkpt lat="29.535266" lon="104.271078"><ele>582.6051</ele><time>2026-01-04T20:17:18.000Z</time></trkpt>
        <trkpt lat="29.535218" lon="104.271084"><ele>579.819</ele><time>2026-01-04T20:17:25.000Z</time></trkpt>
        <trkpt lat="29.535171" lon="104.271088"><ele>579.3081</ele><time>2026-01-04T20:17:30.000Z</time></trkpt>
        <trkpt lat="29.53513" lon="104.271091"><ele>578.8116</ele><time>2026-01-04T20:17:32.000Z</time></trkpt>
        <trkpt lat="29.535074" lon="104.271081"><ele>578.0385</ele><time>2026-01-04T20:17:39.000Z</time></trkpt>
        <trkpt lat="29.535022" lon="104.271073"><ele>577.7556</ele><time>2026-01-04T20:17:44.000Z</time></trkpt>
        <trkpt lat="29.534968" lon="104.271073"><ele>577.95667</ele><time>2026-01-04T20:17:49.000Z</time></trkpt>
        <trkpt lat="29.534917" lon="104.271071"><ele>577.6886</ele><time>2026-01-04T20:17:53.000Z</time></trkpt>
        <trkpt lat="29.534867" lon="104.271063"><ele>576.5261</ele><time>2026-01-04T20:17:57.000Z</time></trkpt>
        <trkpt lat="29.534807" lon="104.271056"><ele>575.4039</ele><time>2026-01-04T20:18:02.000Z</time></trkpt>
        <trkpt lat="29.534757" lon="104.271049"><ele>573.93024</ele><time>2026-01-04T20:18:06.000Z</time></trkpt>
        <trkpt lat="29.534702" lon="104.271038"><ele>572.8065</ele><time>2026-01-04T20:18:10.000Z</time></trkpt>
        <trkpt lat="29.534657" lon="104.271029"><ele>572.23267</ele><time>2026-01-04T20:18:13.000Z</time></trkpt>
        <trkpt lat="29.534599" lon="104.27099"><ele>573.02344</ele><time>2026-01-04T20:18:20.000Z</time></trkpt>
        <trkpt lat="29.534557" lon="104.270997"><ele>573.6647</ele><time>2026-01-04T20:18:24.000Z</time></trkpt>
        <trkpt lat="29.534513" lon="104.271005"><ele>573.5305</ele><time>2026-01-04T20:18:27.000Z</time></trkpt>
        <trkpt lat="29.53446" lon="104.271036"><ele>573.2909</ele><time>2026-01-04T20:18:34.000Z</time></trkpt>
        <trkpt lat="29.534416" lon="104.271047"><ele>572.9116</ele><time>2026-01-04T20:18:38.000Z</time></trkpt>
        <trkpt lat="29.534361" lon="104.271046"><ele>572.66223</ele><time>2026-01-04T20:18:42.000Z</time></trkpt>
        <trkpt lat="29.534313" lon="104.271045"><ele>572.67145</ele><time>2026-01-04T20:18:45.000Z</time></trkpt>
        <trkpt lat="29.534264" lon="104.27102"><ele>573.5222</ele><time>2026-01-04T20:18:49.000Z</time></trkpt>
        <trkpt lat="29.534215" lon="104.270993"><ele>575.0937</ele><time>2026-01-04T20:18:57.000Z</time></trkpt>
        <trkpt lat="29.534176" lon="104.270971"><ele>576.2556</ele><time>2026-01-04T20:19:03.000Z</time></trkpt>
        <trkpt lat="29.534134" lon="104.270945"><ele>577.1408</ele><time>2026-01-04T20:19:09.000Z</time></trkpt>
        <trkpt lat="29.534089" lon="104.270912"><ele>577.54333</ele><time>2026-01-04T20:19:16.000Z</time></trkpt>
        <trkpt lat="29.534048" lon="104.270881"><ele>577.6531</ele><time>2026-01-04T20:19:22.000Z</time></trkpt>
        <trkpt lat="29.534088" lon="104.270902"><ele>576.89355</ele><time>2026-01-04T20:19:56.000Z</time></trkpt>
        <trkpt lat="29.534135" lon="104.270929"><ele>576.7088</ele><time>2026-01-04T20:20:04.000Z</time></trkpt>
        <trkpt lat="29.534173" lon="104.270958"><ele>576.64294</ele><time>2026-01-04T20:20:09.000Z</time></trkpt>
        <trkpt lat="29.534218" lon="104.27099"><ele>575.85614</ele><time>2026-01-04T20:20:16.000Z</time></trkpt>
        <trkpt lat="29.534259" lon="104.271005"><ele>574.77246</ele><time>2026-01-04T20:20:21.000Z</time></trkpt>
        <trkpt lat="29.534309" lon="104.271026"><ele>573.77905</ele><time>2026-01-04T20:20:27.000Z</time></trkpt>
        <trkpt lat="29.534353" lon="104.271042"><ele>572.76154</ele><time>2026-01-04T20:20:32.000Z</time></trkpt>
        <trkpt lat="29.5344" lon="104.271047"><ele>572.0844</ele><time>2026-01-04T20:20:36.000Z</time></trkpt>
        <trkpt lat="29.534461" lon="104.271047"><ele>571.4268</ele><time>2026-01-04T20:20:41.000Z</time></trkpt>
        <trkpt lat="29.534516" lon="104.271043"><ele>571.05945</ele><time>2026-01-04T20:20:46.000Z</time></trkpt>
        <trkpt lat="29.534569" lon="104.271036"><ele>571.04694</ele><time>2026-01-04T20:20:51.000Z</time></trkpt>
        <trkpt lat="29.534625" lon="104.27104"><ele>571.4221</ele><time>2026-01-04T20:20:56.000Z</time></trkpt>
        <trkpt lat="29.534679" lon="104.271057"><ele>571.69257</ele><time>2026-01-04T20:21:01.000Z</time></trkpt>
        <trkpt lat="29.534726" lon="104.27107"><ele>571.8508</ele><time>2026-01-04T20:21:05.000Z</time></trkpt>
        <trkpt lat="29.534773" lon="104.271082"><ele>571.9645</ele><time>2026-01-04T20:21:09.000Z</time></trkpt>
        <trkpt lat="29.53483" lon="104.271084"><ele>572.5912</ele><time>2026-01-04T20:21:14.000Z</time></trkpt>
        <trkpt lat="29.534883" lon="104.271089"><ele>573.48035</ele><time>2026-01-04T20:21:19.000Z</time></trkpt>
        <trkpt lat="29.534936" lon="104.271094"><ele>574.29785</ele><time>2026-01-04T20:21:24.000Z</time></trkpt>
        <trkpt lat="29.53499" lon="104.271098"><ele>575.11017</ele><time>2026-01-04T20:21:29.000Z</time></trkpt>
        <trkpt lat="29.535046" lon="104.271105"><ele>575.7285</ele><time>2026-01-04T20:21:34.000Z</time></trkpt>
        <trkpt lat="29.535101" lon="104.271102"><ele>576.0246</ele><time>2026-01-04T20:21:39.000Z</time></trkpt>
        <trkpt lat="29.535149" lon="104.271097"><ele>576.6063</ele><time>2026-01-04T20:21:43.000Z</time></trkpt>
        <trkpt lat="29.535207" lon="104.271101"><ele>577.37933</ele><time>2026-01-04T20:21:48.000Z</time></trkpt>
        <trkpt lat="29.535256" lon="104.271098"><ele>577.85614</ele><time>2026-01-04T20:21:53.000Z</time></trkpt>
        <trkpt lat="29.535307" lon="104.271097"><ele>578.70306</ele><time>2026-01-04T20:21:58.000Z</time></trkpt>
        <trkpt lat="29.535357" lon="104.271099"><ele>578.58923</ele><time>2026-01-04T20:22:03.000Z</time></trkpt>
        <trkpt lat="29.535398" lon="104.271113"><ele>579.7388</ele><time>2026-01-04T20:22:07.000Z</time></trkpt>
        <trkpt lat="29.535438" lon="104.271149"><ele>581.8116</ele><time>2026-01-04T20:22:11.000Z</time></trkpt>
        <trkpt lat="29.535468" lon="104.271196"><ele>583.6078</ele><time>2026-01-04T20:22:15.000Z</time></trkpt>
        <trkpt lat="29.5355" lon="104.271257"><ele>585.22894</ele><time>2026-01-04T20:22:20.000Z</time></trkpt>
        <trkpt lat="29.535516" lon="104.271309"><ele>586.238</ele><time>2026-01-04T20:22:24.000Z</time></trkpt>
        <trkpt lat="29.535527" lon="104.271373"><ele>586.2086</ele><time>2026-01-04T20:22:29.000Z</time></trkpt>
        <trkpt lat="29.535533" lon="104.271437"><ele>586.24884</ele><time>2026-01-04T20:22:34.000Z</time></trkpt>
        <trkpt lat="29.535542" lon="104.271496"><ele>586.32135</ele><time>2026-01-04T20:22:39.000Z</time></trkpt>
        <trkpt lat="29.535555" lon="104.271552"><ele>586.5094</ele><time>2026-01-04T20:22:44.000Z</time></trkpt>
        <trkpt lat="29.535581" lon="104.271592"><ele>585.5466</ele><time>2026-01-04T20:22:48.000Z</time></trkpt>
        <trkpt lat="29.535613" lon="104.27163"><ele>584.65546</ele><time>2026-01-04T20:22:52.000Z</time></trkpt>
        <trkpt lat="29.53565" lon="104.271665"><ele>584.1924</ele><time>2026-01-04T20:22:56.000Z</time></trkpt>
        <trkpt lat="29.53569" lon="104.271697"><ele>584.09235</ele><time>2026-01-04T20:23:00.000Z</time></trkpt>
        <trkpt lat="29.535727" lon="104.271732"><ele>584.24927</ele><time>2026-01-04T20:23:03.000Z</time></trkpt>
        <trkpt lat="29.535773" lon="104.271756"><ele>584.6099</ele><time>2026-01-04T20:23:07.000Z</time></trkpt>
        <trkpt lat="29.535817" lon="104.27178"><ele>584.937</ele><time>2026-01-04T20:23:11.000Z</time></trkpt>
        <trkpt lat="29.535858" lon="104.27181"><ele>585.36597</ele><time>2026-01-04T20:23:15.000Z</time></trkpt>
        <trkpt lat="29.535907" lon="104.271836"><ele>586.0288</ele><time>2026-01-04T20:23:20.000Z</time></trkpt>
        <trkpt lat="29.535961" lon="104.271859"><ele>586.38</ele><time>2026-01-04T20:23:27.000Z</time></trkpt>
        <trkpt lat="29.536004" lon="104.271867"><ele>586.75946</ele><time>2026-01-04T20:23:32.000Z</time></trkpt>
        <trkpt lat="29.536044" lon="104.271886"><ele>587.29785</ele><time>2026-01-04T20:23:37.000Z</time></trkpt>
        <trkpt lat="29.536089" lon="104.271916"><ele>587.94037</ele><time>2026-01-04T20:23:42.000Z</time></trkpt>
        <trkpt lat="29.536133" lon="104.271957"><ele>589.2248</ele><time>2026-01-04T20:23:47.000Z</time></trkpt>
        <trkpt lat="29.536172" lon="104.271991"><ele>590.72876</ele><time>2026-01-04T20:23:51.000Z</time></trkpt>
        <trkpt lat="29.536212" lon="104.272029"><ele>592.2488</ele><time>2026-01-04T20:23:55.000Z</time></trkpt>
        <trkpt lat="29.536257" lon="104.272074"><ele>593.10345</ele><time>2026-01-04T20:24:01.000Z</time></trkpt>
        <trkpt lat="29.536292" lon="104.272114"><ele>593.86316</ele><time>2026-01-04T20:24:06.000Z</time></trkpt>
        <trkpt lat="29.536322" lon="104.27215"><ele>594.2205</ele><time>2026-01-04T20:24:10.000Z</time></trkpt>
        <trkpt lat="29.536355" lon="104.272193"><ele>595.06555</ele><time>2026-01-04T20:24:14.000Z</time></trkpt>
        <trkpt lat="29.536392" lon="104.272249"><ele>596.0175</ele><time>2026-01-04T20:24:19.000Z</time></trkpt>
        <trkpt lat="29.536403" lon="104.272295"><ele>596.7125</ele><time>2026-01-04T20:24:23.000Z</time></trkpt>
        <trkpt lat="29.536424" lon="104.27236"><ele>597.1645</ele><time>2026-01-04T20:24:28.000Z</time></trkpt>
        <trkpt lat="29.536437" lon="104.27242"><ele>597.2539</ele><time>2026-01-04T20:24:33.000Z</time></trkpt>
        <trkpt lat="29.536451" lon="104.272474"><ele>597.2255</ele><time>2026-01-04T20:24:38.000Z</time></trkpt>
        <trkpt lat="29.536464" lon="104.272523"><ele>597.4918</ele><time>2026-01-04T20:24:42.000Z</time></trkpt>
        <trkpt lat="29.536468" lon="104.272576"><ele>597.8751</ele><time>2026-01-04T20:24:46.000Z</time></trkpt>
        <trkpt lat="29.536456" lon="104.272629"><ele>597.7663</ele><time>2026-01-04T20:24:50.000Z</time></trkpt>
        <trkpt lat="29.53645" lon="104.272697"><ele>597.05786</ele><time>2026-01-04T20:24:55.000Z</time></trkpt>
        <trkpt lat="29.536444" lon="104.272754"><ele>596.52905</ele><time>2026-01-04T20:25:00.000Z</time></trkpt>
        <trkpt lat="29.536442" lon="104.272809"><ele>595.8145</ele><time>2026-01-04T20:25:05.000Z</time></trkpt>
        <trkpt lat="29.53645" lon="104.272868"><ele>595.3978</ele><time>2026-01-04T20:25:10.000Z</time></trkpt>
        <trkpt lat="29.536448" lon="104.272923"><ele>595.627</ele><time>2026-01-04T20:25:14.000Z</time></trkpt>
        <trkpt lat="29.536437" lon="104.272977"><ele>595.57355</ele><time>2026-01-04T20:25:18.000Z</time></trkpt>
        <trkpt lat="29.536432" lon="104.27303"><ele>594.8353</ele><time>2026-01-04T20:25:22.000Z</time></trkpt>
        <trkpt lat="29.536426" lon="104.273091"><ele>594.23285</ele><time>2026-01-04T20:25:26.000Z</time></trkpt>
        <trkpt lat="29.536414" lon="104.273151"><ele>593.0746</ele><time>2026-01-04T20:25:31.000Z</time></trkpt>
        <trkpt lat="29.536402" lon="104.273208"><ele>592.09503</ele><time>2026-01-04T20:25:36.000Z</time></trkpt>
        <trkpt lat="29.53639" lon="104.273257"><ele>590.95233</ele><time>2026-01-04T20:25:40.000Z</time></trkpt>
        <trkpt lat="29.536377" lon="104.273306"><ele>590.0272</ele><time>2026-01-04T20:25:44.000Z</time></trkpt>
        <trkpt lat="29.536367" lon="104.27337"><ele>588.4628</ele><time>2026-01-04T20:25:49.000Z</time></trkpt>
        <trkpt lat="29.536343" lon="104.273416"><ele>587.6275</ele><time>2026-01-04T20:25:53.000Z</time></trkpt>
        <trkpt lat="29.536312" lon="104.273462"><ele>587.15204</ele><time>2026-01-04T20:25:57.000Z</time></trkpt>
        <trkpt lat="29.536285" lon="104.273509"><ele>587.11566</ele><time>2026-01-04T20:26:01.000Z</time></trkpt>
        <trkpt lat="29.536246" lon="104.273557"><ele>586.6829</ele><time>2026-01-04T20:26:06.000Z</time></trkpt>
        <trkpt lat="29.53621" lon="104.27359"><ele>585.89636</ele><time>2026-01-04T20:26:10.000Z</time></trkpt>
        <trkpt lat="29.536164" lon="104.273625"><ele>584.2596</ele><time>2026-01-04T20:26:16.000Z</time></trkpt>
        <trkpt lat="29.536127" lon="104.273657"><ele>582.9528</ele><time>2026-01-04T20:26:20.000Z</time></trkpt>
        <trkpt lat="29.536097" lon="104.273709"><ele>582.036</ele><time>2026-01-04T20:26:26.000Z</time></trkpt>
        <trkpt lat="29.536089" lon="104.273756"><ele>582.1801</ele><time>2026-01-04T20:26:30.000Z</time></trkpt>
        <trkpt lat="29.536074" lon="104.273805"><ele>582.14105</ele><time>2026-01-04T20:26:34.000Z</time></trkpt>
        <trkpt lat="29.536044" lon="104.273857"><ele>581.45074</ele><time>2026-01-04T20:26:39.000Z</time></trkpt>
        <trkpt lat="29.536035" lon="104.273907"><ele>581.2589</ele><time>2026-01-04T20:26:43.000Z</time></trkpt>
        <trkpt lat="29.536045" lon="104.273967"><ele>580.5708</ele><time>2026-01-04T20:26:48.000Z</time></trkpt>
        <trkpt lat="29.536074" lon="104.274014"><ele>580.6027</ele><time>2026-01-04T20:26:52.000Z</time></trkpt>
        <trkpt lat="29.536112" lon="104.274059"><ele>580.9486</ele><time>2026-01-04T20:26:56.000Z</time></trkpt>
        <trkpt lat="29.53615" lon="104.274123"><ele>581.5975</ele><time>2026-01-04T20:27:02.000Z</time></trkpt>
        <trkpt lat="29.536167" lon="104.274172"><ele>582.1196</ele><time>2026-01-04T20:27:06.000Z</time></trkpt>
        <trkpt lat="29.53617" lon="104.274235"><ele>582.2606</ele><time>2026-01-04T20:27:11.000Z</time></trkpt>
        <trkpt lat="29.536169" lon="104.27429"><ele>581.24316</ele><time>2026-01-04T20:27:15.000Z</time></trkpt>
        <trkpt lat="29.536168" lon="104.274345"><ele>580.9565</ele><time>2026-01-04T20:27:19.000Z</time></trkpt>
        <trkpt lat="29.536174" lon="104.274401"><ele>580.53296</ele><time>2026-01-04T20:27:23.000Z</time></trkpt>
        <trkpt lat="29.536185" lon="104.274464"><ele>580.3129</ele><time>2026-01-04T20:27:28.000Z</time></trkpt>
        <trkpt lat="29.536194" lon="104.274517"><ele>579.9149</ele><time>2026-01-04T20:27:32.000Z</time></trkpt>
        <trkpt lat="29.536199" lon="104.27457"><ele>579.4815</ele><time>2026-01-04T20:27:36.000Z</time></trkpt>
        <trkpt lat="29.536218" lon="104.27462"><ele>579.0448</ele><time>2026-01-04T20:27:40.000Z</time></trkpt>
        <trkpt lat="29.536233" lon="104.27467"><ele>579.0509</ele><time>2026-01-04T20:27:44.000Z</time></trkpt>
        <trkpt lat="29.536243" lon="104.274723"><ele>578.7932</ele><time>2026-01-04T20:27:48.000Z</time></trkpt>
        <trkpt lat="29.536258" lon="104.274773"><ele>578.44025</ele><time>2026-01-04T20:27:52.000Z</time></trkpt>
        <trkpt lat="29.536276" lon="104.274832"><ele>577.61786</ele><time>2026-01-04T20:27:57.000Z</time></trkpt>
        <trkpt lat="29.536294" lon="104.274887"><ele>576.57404</ele><time>2026-01-04T20:28:02.000Z</time></trkpt>
        <trkpt lat="29.536314" lon="104.274938"><ele>576.68524</ele><time>2026-01-04T20:28:07.000Z</time></trkpt>
        <trkpt lat="29.536331" lon="104.274992"><ele>576.6548</ele><time>2026-01-04T20:28:12.000Z</time></trkpt>
        <trkpt lat="29.536362" lon="104.275056"><ele>575.94995</ele><time>2026-01-04T20:28:23.000Z</time></trkpt>
        <trkpt lat="29.536387" lon="104.275097"><ele>576.87036</ele><time>2026-01-04T20:28:30.000Z</time></trkpt>
        <trkpt lat="29.536425" lon="104.275133"><ele>577.0757</ele><time>2026-01-04T20:28:37.000Z</time></trkpt>
        <trkpt lat="29.536418" lon="104.275184"><ele>576.5232</ele><time>2026-01-04T20:28:51.000Z</time></trkpt>
        <trkpt lat="29.536433" lon="104.275235"><ele>576.0263</ele><time>2026-01-04T20:28:59.000Z</time></trkpt>
        <trkpt lat="29.536458" lon="104.275285"><ele>575.437</ele><time>2026-01-04T20:29:06.000Z</time></trkpt>
        <trkpt lat="29.536483" lon="104.275343"><ele>574.91174</ele><time>2026-01-04T20:29:14.000Z</time></trkpt>
        <trkpt lat="29.536524" lon="104.275388"><ele>575.2003</ele><time>2026-01-04T20:29:20.000Z</time></trkpt>
        <trkpt lat="29.536575" lon="104.275424"><ele>575.5537</ele><time>2026-01-04T20:29:38.000Z</time></trkpt>
        <trkpt lat="29.536605" lon="104.275436"><ele>575.5896</ele><time>2026-01-04T20:29:42.000Z</time></trkpt>
        <trkpt lat="29.536653" lon="104.275452"><ele>576.013</ele><time>2026-01-04T20:29:46.000Z</time></trkpt>
        <trkpt lat="29.536712" lon="104.275466"><ele>576.5912</ele><time>2026-01-04T20:29:50.000Z</time></trkpt>
        <trkpt lat="29.53676" lon="104.275478"><ele>577.431</ele><time>2026-01-04T20:29:53.000Z</time></trkpt>
        <trkpt lat="29.536821" lon="104.275502"><ele>577.8124</ele><time>2026-01-04T20:29:58.000Z</time></trkpt>
        <trkpt lat="29.536875" lon="104.275521"><ele>578.3763</ele><time>2026-01-04T20:30:02.000Z</time></trkpt>
        <trkpt lat="29.536924" lon="104.275541"><ele>578.9546</ele><time>2026-01-04T20:30:06.000Z</time></trkpt>
        <trkpt lat="29.536981" lon="104.275557"><ele>579.05896</ele><time>2026-01-04T20:30:11.000Z</time></trkpt>
        <trkpt lat="29.53703" lon="104.275571"><ele>579.0416</ele><time>2026-01-04T20:30:15.000Z</time></trkpt>
        <trkpt lat="29.537081" lon="104.275587"><ele>578.51245</ele><time>2026-01-04T20:30:20.000Z</time></trkpt>
        <trkpt lat="29.537131" lon="104.275596"><ele>578.26874</ele><time>2026-01-04T20:30:25.000Z</time></trkpt>
        <trkpt lat="29.537181" lon="104.275595"><ele>577.9219</ele><time>2026-01-04T20:30:30.000Z</time></trkpt>
        <trkpt lat="29.537236" lon="104.275599"><ele>578.3525</ele><time>2026-01-04T20:30:35.000Z</time></trkpt>
        <trkpt lat="29.53729" lon="104.275602"><ele>579.2407</ele><time>2026-01-04T20:30:40.000Z</time></trkpt>
        <trkpt lat="29.537339" lon="104.275606"><ele>579.13666</ele><time>2026-01-04T20:30:45.000Z</time></trkpt>
        <trkpt lat="29.537385" lon="104.275608"><ele>578.67633</ele><time>2026-01-04T20:30:50.000Z</time></trkpt>
        <trkpt lat="29.537427" lon="104.275606"><ele>578.668</ele><time>2026-01-04T20:30:54.000Z</time></trkpt>
        <trkpt lat="29.537481" lon="104.275613"><ele>578.9738</ele><time>2026-01-04T20:31:13.000Z</time></trkpt>
        <trkpt lat="29.537517" lon="104.275625"><ele>579.2037</ele><time>2026-01-04T20:31:20.000Z</time></trkpt>
        <trkpt lat="29.537567" lon="104.275631"><ele>579.7955</ele><time>2026-01-04T20:31:26.000Z</time></trkpt>
        <trkpt lat="29.537615" lon="104.275651"><ele>580.53076</ele><time>2026-01-04T20:31:31.000Z</time></trkpt>
        <trkpt lat="29.537655" lon="104.275696"><ele>581.75964</ele><time>2026-01-04T20:31:37.000Z</time></trkpt>
        <trkpt lat="29.537682" lon="104.275747"><ele>582.6909</ele><time>2026-01-04T20:31:42.000Z</time></trkpt>
        <trkpt lat="29.537705" lon="104.275788"><ele>582.91486</ele><time>2026-01-04T20:31:45.000Z</time></trkpt>
        <trkpt lat="29.537743" lon="104.275833"><ele>583.3319</ele><time>2026-01-04T20:31:49.000Z</time></trkpt>
        <trkpt lat="29.53776" lon="104.275898"><ele>584.42786</ele><time>2026-01-04T20:32:00.000Z</time></trkpt>
        <trkpt lat="29.537773" lon="104.275945"><ele>585.8627</ele><time>2026-01-04T20:32:06.000Z</time></trkpt>
        <trkpt lat="29.537812" lon="104.275969"><ele>586.5356</ele><time>2026-01-04T20:32:10.000Z</time></trkpt>
        <trkpt lat="29.537849" lon="104.276011"><ele>587.20416</ele><time>2026-01-04T20:32:15.000Z</time></trkpt>
        <trkpt lat="29.537873" lon="104.27606"><ele>590.5544</ele><time>2026-01-04T20:32:19.000Z</time></trkpt>
        <trkpt lat="29.537893" lon="104.276107"><ele>594.0824</ele><time>2026-01-04T20:32:23.000Z</time></trkpt>
        <trkpt lat="29.537897" lon="104.276171"><ele>599.7983</ele><time>2026-01-04T20:32:30.000Z</time></trkpt>
        <trkpt lat="29.537866" lon="104.276217"><ele>600.5786</ele><time>2026-01-04T20:32:56.000Z</time></trkpt>
        <trkpt lat="29.537855" lon="104.27626"><ele>601.78577</ele><time>2026-01-04T20:33:02.000Z</time></trkpt>
        <trkpt lat="29.537837" lon="104.276311"><ele>604.542</ele><time>2026-01-04T20:33:07.000Z</time></trkpt>
        <trkpt lat="29.537809" lon="104.276348"><ele>606.0508</ele><time>2026-01-04T20:33:10.000Z</time></trkpt>
        <trkpt lat="29.537841" lon="104.276359"><ele>607.236</ele><time>2026-01-04T20:33:28.000Z</time></trkpt>
        <trkpt lat="29.53789" lon="104.276382"><ele>609.10284</ele><time>2026-01-04T20:33:37.000Z</time></trkpt>
        <trkpt lat="29.537918" lon="104.27643"><ele>612.1418</ele><time>2026-01-04T20:33:46.000Z</time></trkpt>
        <trkpt lat="29.537925" lon="104.276488"><ele>614.29065</ele><time>2026-01-04T20:33:54.000Z</time></trkpt>
        <trkpt lat="29.537961" lon="104.276521"><ele>615.9062</ele><time>2026-01-04T20:34:05.000Z</time></trkpt>
        <trkpt lat="29.538" lon="104.276556"><ele>617.0959</ele><time>2026-01-04T20:34:17.000Z</time></trkpt>
        <trkpt lat="29.538022" lon="104.276599"><ele>618.59863</ele><time>2026-01-04T20:34:24.000Z</time></trkpt>
        <trkpt lat="29.538062" lon="104.276609"><ele>619.4562</ele><time>2026-01-04T20:34:28.000Z</time></trkpt>
        <trkpt lat="29.538093" lon="104.276669"><ele>621.0075</ele><time>2026-01-04T20:34:39.000Z</time></trkpt>
        <trkpt lat="29.538121" lon="104.276728"><ele>623.6962</ele><time>2026-01-04T20:34:50.000Z</time></trkpt>
        <trkpt lat="29.538178" lon="104.276738"><ele>625.1673</ele><time>2026-01-04T20:35:04.000Z</time></trkpt>
        <trkpt lat="29.538143" lon="104.276703"><ele>625.6315</ele><time>2026-01-04T20:35:34.000Z</time></trkpt>
        <trkpt lat="29.538155" lon="104.276729"><ele>625.7539</ele><time>2026-01-04T20:35:37.000Z</time></trkpt>
        <trkpt lat="29.538137" lon="104.276658"><ele>625.27216</ele><time>2026-01-04T20:38:08.000Z</time></trkpt>
        <trkpt lat="29.538158" lon="104.2767"><ele>625.0508</ele><time>2026-01-04T20:38:20.000Z</time></trkpt>
        <trkpt lat="29.538143" lon="104.276757"><ele>625.5779</ele><time>2026-01-04T20:38:47.000Z</time></trkpt>
        <trkpt lat="29.538139" lon="104.276703"><ele>624.58417</ele><time>2026-01-04T20:40:31.000Z</time></trkpt>
      </trkseg>
      <trkseg>
        <trkpt lat="29.538093" lon="104.276973"><ele>627.468</ele><time>2026-01-04T21:17:46.000Z</time></trkpt>
        <trkpt lat="29.538093" lon="104.276973"><ele>627.4683</ele><time>2026-01-04T21:17:47.000Z</time></trkpt>
        <trkpt lat="29.538093" lon="104.276973"><ele>627.46277</ele><time>2026-01-04T21:17:48.000Z</time></trkpt>
        <trkpt lat="29.538093" lon="104.276973"><ele>627.3905</ele><time>2026-01-04T21:17:49.000Z</time></trkpt>
        <trkpt lat="29.538094" lon="104.276972"><ele>627.1362</ele><time>2026-01-04T21:17:50.000Z</time></trkpt>
        <trkpt lat="29.538086" lon="104.276952"><ele>627.0874</ele><time>2026-01-04T21:17:56.000Z</time></trkpt>
        <trkpt lat="29.538077" lon="104.276939"><ele>627.47314</ele><time>2026-01-04T21:17:58.000Z</time></trkpt>
        <trkpt lat="29.538073" lon="104.276935"><ele>627.2944</ele><time>2026-01-04T21:17:59.000Z</time></trkpt>
        <trkpt lat="29.538069" lon="104.27693"><ele>627.137</ele><time>2026-01-04T21:18:01.000Z</time></trkpt>
        <trkpt lat="29.538068" lon="104.27693"><ele>627.0316</ele><time>2026-01-04T21:18:02.000Z</time></trkpt>
        <trkpt lat="29.538069" lon="104.276928"><ele>626.8806</ele><time>2026-01-04T21:18:03.000Z</time></trkpt>
        <trkpt lat="29.537681" lon="104.276663"><ele>627.1795</ele><time>2026-01-04T21:19:06.000Z</time></trkpt>
        <trkpt lat="29.538072" lon="104.276931"><ele>623.3901</ele><time>2026-01-04T21:19:33.000Z</time></trkpt>
        <trkpt lat="29.53809" lon="104.276942"><ele>624.2991</ele><time>2026-01-04T21:19:34.000Z</time></trkpt>
        <trkpt lat="29.538155" lon="104.277013"><ele>633.3313</ele><time>2026-01-04T21:19:37.000Z</time></trkpt>
        <trkpt lat="29.538162" lon="104.277015"><ele>635.5629</ele><time>2026-01-04T21:19:40.000Z</time></trkpt>
        <trkpt lat="29.538155" lon="104.276956"><ele>635.1468</ele><time>2026-01-04T21:19:43.000Z</time></trkpt>
        <trkpt lat="29.538169" lon="104.276939"><ele>634.2187</ele><time>2026-01-04T21:19:44.000Z</time></trkpt>
        <trkpt lat="29.538198" lon="104.276947"><ele>632.9787</ele><time>2026-01-04T21:19:47.000Z</time></trkpt>
        <trkpt lat="29.538205" lon="104.276955"><ele>631.84064</ele><time>2026-01-04T21:19:48.000Z</time></trkpt>
        <trkpt lat="29.538209" lon="104.276962"><ele>630.9145</ele><time>2026-01-04T21:19:49.000Z</time></trkpt>
        <trkpt lat="29.538213" lon="104.276965"><ele>629.9206</ele><time>2026-01-04T21:19:50.000Z</time></trkpt>
        <trkpt lat="29.538215" lon="104.27697"><ele>629.0588</ele><time>2026-01-04T21:19:51.000Z</time></trkpt>
        <trkpt lat="29.538217" lon="104.276972"><ele>628.3019</ele><time>2026-01-04T21:19:52.000Z</time></trkpt>
        <trkpt lat="29.538214" lon="104.276975"><ele>627.4684</ele><time>2026-01-04T21:19:53.000Z</time></trkpt>
        <trkpt lat="29.53821" lon="104.276976"><ele>626.6471</ele><time>2026-01-04T21:19:54.000Z</time></trkpt>
        <trkpt lat="29.538206" lon="104.276971"><ele>626.04755</ele><time>2026-01-04T21:19:55.000Z</time></trkpt>
        <trkpt lat="29.538199" lon="104.276967"><ele>624.9569</ele><time>2026-01-04T21:19:58.000Z</time></trkpt>
        <trkpt lat="29.538213" lon="104.276942"><ele>624.66455</ele><time>2026-01-04T21:20:03.000Z</time></trkpt>
        <trkpt lat="29.53822" lon="104.276921"><ele>624.7477</ele><time>2026-01-04T21:20:06.000Z</time></trkpt>
        <trkpt lat="29.538215" lon="104.276915"><ele>624.8318</ele><time>2026-01-04T21:20:08.000Z</time></trkpt>
        <trkpt lat="29.538249" lon="104.276923"><ele>624.6822</ele><time>2026-01-04T21:20:13.000Z</time></trkpt>
        <trkpt lat="29.538259" lon="104.276939"><ele>624.8513</ele><time>2026-01-04T21:20:15.000Z</time></trkpt>
        <trkpt lat="29.53825" lon="104.276973"><ele>625.94885</ele><time>2026-01-04T21:20:18.000Z</time></trkpt>
        <trkpt lat="29.538247" lon="104.27701"><ele>627.3304</ele><time>2026-01-04T21:20:21.000Z</time></trkpt>
        <trkpt lat="29.538256" lon="104.277036"><ele>628.29156</ele><time>2026-01-04T21:20:24.000Z</time></trkpt>
        <trkpt lat="29.538279" lon="104.277054"><ele>629.08246</ele><time>2026-01-04T21:20:28.000Z</time></trkpt>
        <trkpt lat="29.538281" lon="104.277045"><ele>629.4741</ele><time>2026-01-04T21:20:32.000Z</time></trkpt>
        <trkpt lat="29.538258" lon="104.277046"><ele>629.3508</ele><time>2026-01-04T21:20:38.000Z</time></trkpt>
        <trkpt lat="29.538262" lon="104.277045"><ele>629.93274</ele><time>2026-01-04T21:20:46.000Z</time></trkpt>
        <trkpt lat="29.538284" lon="104.27709"><ele>631.001</ele><time>2026-01-04T21:20:59.000Z</time></trkpt>
        <trkpt lat="29.538334" lon="104.27712"><ele>632.7267</ele><time>2026-01-04T21:21:09.000Z</time></trkpt>
        <trkpt lat="29.53831" lon="104.277165"><ele>631.9139</ele><time>2026-01-04T21:21:41.000Z</time></trkpt>
        <trkpt lat="29.538278" lon="104.277138"><ele>632.2159</ele><time>2026-01-04T21:21:46.000Z</time></trkpt>
        <trkpt lat="29.538235" lon="104.2771"><ele>632.16455</ele><time>2026-01-04T21:21:56.000Z</time></trkpt>
        <trkpt lat="29.538199" lon="104.277066"><ele>632.02545</ele><time>2026-01-04T21:22:05.000Z</time></trkpt>
        <trkpt lat="29.538163" lon="104.277032"><ele>631.1027</ele><time>2026-01-04T21:22:12.000Z</time></trkpt>
        <trkpt lat="29.538118" lon="104.276999"><ele>630.4335</ele><time>2026-01-04T21:22:21.000Z</time></trkpt>
        <trkpt lat="29.53807" lon="104.27698"><ele>630.24866</ele><time>2026-01-04T21:22:27.000Z</time></trkpt>
        <trkpt lat="29.538013" lon="104.276961"><ele>629.6862</ele><time>2026-01-04T21:22:35.000Z</time></trkpt>
        <trkpt lat="29.537966" lon="104.276945"><ele>628.98987</ele><time>2026-01-04T21:22:43.000Z</time></trkpt>
        <trkpt lat="29.537967" lon="104.276988"><ele>628.95215</ele><time>2026-01-04T21:22:50.000Z</time></trkpt>
        <trkpt lat="29.538006" lon="104.277029"><ele>629.9596</ele><time>2026-01-04T21:22:57.000Z</time></trkpt>
        <trkpt lat="29.537964" lon="104.277028"><ele>631.5966</ele><time>2026-01-04T21:23:12.000Z</time></trkpt>
        <trkpt lat="29.537906" lon="104.277036"><ele>631.74084</ele><time>2026-01-04T21:23:21.000Z</time></trkpt>
        <trkpt lat="29.537859" lon="104.277034"><ele>633.1109</ele><time>2026-01-04T21:23:35.000Z</time></trkpt>
        <trkpt lat="29.537805" lon="104.277033"><ele>633.7166</ele><time>2026-01-04T21:23:46.000Z</time></trkpt>
        <trkpt lat="29.537756" lon="104.277036"><ele>633.74585</ele><time>2026-01-04T21:23:54.000Z</time></trkpt>
        <trkpt lat="29.537733" lon="104.277089"><ele>634.6219</ele><time>2026-01-04T21:24:09.000Z</time></trkpt>
        <trkpt lat="29.537691" lon="104.277105"><ele>636.57947</ele><time>2026-01-04T21:24:22.000Z</time></trkpt>
        <trkpt lat="29.537664" lon="104.277148"><ele>636.97766</ele><time>2026-01-04T21:24:39.000Z</time></trkpt>
        <trkpt lat="29.537688" lon="104.277191"><ele>638.33777</ele><time>2026-01-04T21:24:47.000Z</time></trkpt>
        <trkpt lat="29.537713" lon="104.277238"><ele>639.77673</ele><time>2026-01-04T21:24:52.000Z</time></trkpt>
        <trkpt lat="29.537751" lon="104.277284"><ele>641.5649</ele><time>2026-01-04T21:24:58.000Z</time></trkpt>
        <trkpt lat="29.537779" lon="104.277325"><ele>643.8379</ele><time>2026-01-04T21:25:03.000Z</time></trkpt>
        <trkpt lat="29.537814" lon="104.277366"><ele>644.65375</ele><time>2026-01-04T21:25:10.000Z</time></trkpt>
        <trkpt lat="29.537841" lon="104.277413"><ele>645.6435</ele><time>2026-01-04T21:25:17.000Z</time></trkpt>
        <trkpt lat="29.537891" lon="104.277427"><ele>646.92584</ele><time>2026-01-04T21:25:25.000Z</time></trkpt>
        <trkpt lat="29.537941" lon="104.277427"><ele>647.39935</ele><time>2026-01-04T21:25:30.000Z</time></trkpt>
        <trkpt lat="29.537994" lon="104.277431"><ele>647.57007</ele><time>2026-01-04T21:25:35.000Z</time></trkpt>
        <trkpt lat="29.538038" lon="104.277481"><ele>647.96124</ele><time>2026-01-04T21:25:51.000Z</time></trkpt>
        <trkpt lat="29.53801" lon="104.277527"><ele>650.7906</ele><time>2026-01-04T21:26:08.000Z</time></trkpt>
        <trkpt lat="29.538051" lon="104.277511"><ele>650.7543</ele><time>2026-01-04T21:26:23.000Z</time></trkpt>
        <trkpt lat="29.538092" lon="104.277547"><ele>650.75256</ele><time>2026-01-04T21:26:30.000Z</time></trkpt>
        <trkpt lat="29.538122" lon="104.277595"><ele>651.2458</ele><time>2026-01-04T21:26:35.000Z</time></trkpt>
        <trkpt lat="29.538124" lon="104.277649"><ele>651.8344</ele><time>2026-01-04T21:26:40.000Z</time></trkpt>
        <trkpt lat="29.538089" lon="104.277679"><ele>653.04016</ele><time>2026-01-04T21:26:44.000Z</time></trkpt>
        <trkpt lat="29.538037" lon="104.277709"><ele>654.74036</ele><time>2026-01-04T21:26:50.000Z</time></trkpt>
        <trkpt lat="29.538009" lon="104.277757"><ele>657.53357</ele><time>2026-01-04T21:27:00.000Z</time></trkpt>
        <trkpt lat="29.538049" lon="104.277777"><ele>656.947</ele><time>2026-01-04T21:27:07.000Z</time></trkpt>
        <trkpt lat="29.538094" lon="104.277806"><ele>655.5708</ele><time>2026-01-04T21:27:12.000Z</time></trkpt>
        <trkpt lat="29.538144" lon="104.277846"><ele>655.04517</ele><time>2026-01-04T21:27:18.000Z</time></trkpt>
        <trkpt lat="29.538178" lon="104.277888"><ele>654.90643</ele><time>2026-01-04T21:27:23.000Z</time></trkpt>
        <trkpt lat="29.538211" lon="104.277931"><ele>654.8939</ele><time>2026-01-04T21:27:28.000Z</time></trkpt>
        <trkpt lat="29.538261" lon="104.277958"><ele>654.78217</ele><time>2026-01-04T21:27:33.000Z</time></trkpt>
        <trkpt lat="29.538305" lon="104.277985"><ele>654.9268</ele><time>2026-01-04T21:27:38.000Z</time></trkpt>
        <trkpt lat="29.53835" lon="104.277994"><ele>655.15063</ele><time>2026-01-04T21:27:42.000Z</time></trkpt>
        <trkpt lat="29.538401" lon="104.277993"><ele>655.0365</ele><time>2026-01-04T21:27:47.000Z</time></trkpt>
        <trkpt lat="29.53845" lon="104.278"><ele>654.71954</ele><time>2026-01-04T21:27:52.000Z</time></trkpt>
        <trkpt lat="29.538506" lon="104.278003"><ele>654.4721</ele><time>2026-01-04T21:27:58.000Z</time></trkpt>
        <trkpt lat="29.538562" lon="104.278"><ele>654.08856</ele><time>2026-01-04T21:28:04.000Z</time></trkpt>
        <trkpt lat="29.538609" lon="104.277998"><ele>653.86774</ele><time>2026-01-04T21:28:09.000Z</time></trkpt>
        <trkpt lat="29.538659" lon="104.277989"><ele>653.2408</ele><time>2026-01-04T21:28:14.000Z</time></trkpt>
        <trkpt lat="29.538712" lon="104.27798"><ele>652.71045</ele><time>2026-01-04T21:28:20.000Z</time></trkpt>
        <trkpt lat="29.538769" lon="104.277971"><ele>652.4272</ele><time>2026-01-04T21:28:26.000Z</time></trkpt>
        <trkpt lat="29.538821" lon="104.277961"><ele>651.7881</ele><time>2026-01-04T21:28:32.000Z</time></trkpt>
        <trkpt lat="29.538867" lon="104.277939"><ele>650.9038</ele><time>2026-01-04T21:28:38.000Z</time></trkpt>
        <trkpt lat="29.538914" lon="104.277908"><ele>649.6839</ele><time>2026-01-04T21:28:52.000Z</time></trkpt>
        <trkpt lat="29.538954" lon="104.277879"><ele>649.3631</ele><time>2026-01-04T21:29:16.000Z</time></trkpt>
        <trkpt lat="29.538932" lon="104.277927"><ele>650.2679</ele><time>2026-01-04T21:30:12.000Z</time></trkpt>
        <trkpt lat="29.538948" lon="104.277878"><ele>651.59534</ele><time>2026-01-04T21:31:12.000Z</time></trkpt>
        <trkpt lat="29.538976" lon="104.277838"><ele>651.1868</ele><time>2026-01-04T21:31:17.000Z</time></trkpt>
        <trkpt lat="29.538996" lon="104.277784"><ele>654.303</ele><time>2026-01-04T21:31:22.000Z</time></trkpt>
        <trkpt lat="29.539021" lon="104.277736"><ele>658.729</ele><time>2026-01-04T21:31:26.000Z</time></trkpt>
        <trkpt lat="29.539048" lon="104.277688"><ele>662.6072</ele><time>2026-01-04T21:31:30.000Z</time></trkpt>
        <trkpt lat="29.539079" lon="104.27764"><ele>665.315</ele><time>2026-01-04T21:31:34.000Z</time></trkpt>
        <trkpt lat="29.539111" lon="104.277595"><ele>667.0733</ele><time>2026-01-04T21:31:38.000Z</time></trkpt>
        <trkpt lat="29.539145" lon="104.277546"><ele>668.27405</ele><time>2026-01-04T21:31:43.000Z</time></trkpt>
        <trkpt lat="29.539169" lon="104.277504"><ele>668.6392</ele><time>2026-01-04T21:31:47.000Z</time></trkpt>
        <trkpt lat="29.539194" lon="104.277451"><ele>668.56067</ele><time>2026-01-04T21:31:52.000Z</time></trkpt>
        <trkpt lat="29.539216" lon="104.277397"><ele>668.22156</ele><time>2026-01-04T21:31:57.000Z</time></trkpt>
        <trkpt lat="29.539231" lon="104.277346"><ele>668.9536</ele><time>2026-01-04T21:32:02.000Z</time></trkpt>
        <trkpt lat="29.539255" lon="104.277304"><ele>668.6973</ele><time>2026-01-04T21:32:06.000Z</time></trkpt>
        <trkpt lat="29.539285" lon="104.277253"><ele>668.04004</ele><time>2026-01-04T21:32:11.000Z</time></trkpt>
        <trkpt lat="29.539316" lon="104.277201"><ele>667.653</ele><time>2026-01-04T21:32:16.000Z</time></trkpt>
        <trkpt lat="29.539339" lon="104.277148"><ele>667.5787</ele><time>2026-01-04T21:32:21.000Z</time></trkpt>
        <trkpt lat="29.539361" lon="104.277096"><ele>667.6098</ele><time>2026-01-04T21:32:26.000Z</time></trkpt>
        <trkpt lat="29.539378" lon="104.277044"><ele>668.5022</ele><time>2026-01-04T21:32:31.000Z</time></trkpt>
        <trkpt lat="29.539391" lon="104.27699"><ele>669.35236</ele><time>2026-01-04T21:32:36.000Z</time></trkpt>
        <trkpt lat="29.539402" lon="104.276931"><ele>669.2331</ele><time>2026-01-04T21:32:42.000Z</time></trkpt>
        <trkpt lat="29.539412" lon="104.276889"><ele>665.2935</ele><time>2026-01-04T21:32:46.000Z</time></trkpt>
        <trkpt lat="29.539415" lon="104.276829"><ele>662.8365</ele><time>2026-01-04T21:32:51.000Z</time></trkpt>
        <trkpt lat="29.539413" lon="104.276771"><ele>662.04266</ele><time>2026-01-04T21:32:56.000Z</time></trkpt>
        <trkpt lat="29.5394" lon="104.276724"><ele>662.29175</ele><time>2026-01-04T21:33:00.000Z</time></trkpt>
        <trkpt lat="29.539375" lon="104.27667"><ele>662.6507</ele><time>2026-01-04T21:33:05.000Z</time></trkpt>
        <trkpt lat="29.53933" lon="104.276637"><ele>663.19586</ele><time>2026-01-04T21:33:10.000Z</time></trkpt>
        <trkpt lat="29.539279" lon="104.276604"><ele>662.94464</ele><time>2026-01-04T21:33:16.000Z</time></trkpt>
        <trkpt lat="29.539235" lon="104.276574"><ele>661.7035</ele><time>2026-01-04T21:33:21.000Z</time></trkpt>
        <trkpt lat="29.539199" lon="104.276538"><ele>660.52136</ele><time>2026-01-04T21:33:25.000Z</time></trkpt>
        <trkpt lat="29.53918" lon="104.27648"><ele>658.50726</ele><time>2026-01-04T21:33:30.000Z</time></trkpt>
        <trkpt lat="29.539185" lon="104.276428"><ele>658.03436</ele><time>2026-01-04T21:33:34.000Z</time></trkpt>
        <trkpt lat="29.539204" lon="104.276369"><ele>657.65094</ele><time>2026-01-04T21:33:39.000Z</time></trkpt>
        <trkpt lat="29.539217" lon="104.276319"><ele>657.5434</ele><time>2026-01-04T21:33:43.000Z</time></trkpt>
        <trkpt lat="29.539226" lon="104.276259"><ele>656.8137</ele><time>2026-01-04T21:33:49.000Z</time></trkpt>
        <trkpt lat="29.539217" lon="104.276205"><ele>655.1372</ele><time>2026-01-04T21:33:54.000Z</time></trkpt>
        <trkpt lat="29.539208" lon="104.276149"><ele>654.6167</ele><time>2026-01-04T21:33:58.000Z</time></trkpt>
        <trkpt lat="29.53919" lon="104.27609"><ele>653.98517</ele><time>2026-01-04T21:34:02.000Z</time></trkpt>
        <trkpt lat="29.539174" lon="104.276027"><ele>653.27234</ele><time>2026-01-04T21:34:06.000Z</time></trkpt>
        <trkpt lat="29.539177" lon="104.275966"><ele>652.4979</ele><time>2026-01-04T21:34:10.000Z</time></trkpt>
        <trkpt lat="29.539204" lon="104.275902"><ele>651.95435</ele><time>2026-01-04T21:34:16.000Z</time></trkpt>
        <trkpt lat="29.539235" lon="104.275861"><ele>652.1731</ele><time>2026-01-04T21:34:20.000Z</time></trkpt>
        <trkpt lat="29.539279" lon="104.275812"><ele>652.01495</ele><time>2026-01-04T21:34:25.000Z</time></trkpt>
        <trkpt lat="29.539298" lon="104.275753"><ele>651.7653</ele><time>2026-01-04T21:34:30.000Z</time></trkpt>
        <trkpt lat="29.539311" lon="104.275701"><ele>651.61127</ele><time>2026-01-04T21:34:34.000Z</time></trkpt>
        <trkpt lat="29.53932" lon="104.275639"><ele>651.5992</ele><time>2026-01-04T21:34:39.000Z</time></trkpt>
        <trkpt lat="29.539323" lon="104.275575"><ele>651.1614</ele><time>2026-01-04T21:34:44.000Z</time></trkpt>
        <trkpt lat="29.539329" lon="104.275509"><ele>650.48694</ele><time>2026-01-04T21:34:49.000Z</time></trkpt>
        <trkpt lat="29.539335" lon="104.275452"><ele>650.2443</ele><time>2026-01-04T21:34:53.000Z</time></trkpt>
        <trkpt lat="29.539334" lon="104.275395"><ele>649.921</ele><time>2026-01-04T21:34:57.000Z</time></trkpt>
        <trkpt lat="29.539317" lon="104.275345"><ele>649.2548</ele><time>2026-01-04T21:35:01.000Z</time></trkpt>
        <trkpt lat="29.539285" lon="104.275294"><ele>648.1557</ele><time>2026-01-04T21:35:06.000Z</time></trkpt>
        <trkpt lat="29.539252" lon="104.275241"><ele>647.4349</ele><time>2026-01-04T21:35:11.000Z</time></trkpt>
        <trkpt lat="29.53923" lon="104.275194"><ele>647.401</ele><time>2026-01-04T21:35:15.000Z</time></trkpt>
        <trkpt lat="29.53921" lon="104.275147"><ele>647.7997</ele><time>2026-01-04T21:35:19.000Z</time></trkpt>
        <trkpt lat="29.539192" lon="104.275095"><ele>648.1959</ele><time>2026-01-04T21:35:23.000Z</time></trkpt>
        <trkpt lat="29.539162" lon="104.275035"><ele>649.1806</ele><time>2026-01-04T21:35:28.000Z</time></trkpt>
        <trkpt lat="29.539127" lon="104.274989"><ele>650.44775</ele><time>2026-01-04T21:35:34.000Z</time></trkpt>
        <trkpt lat="29.539088" lon="104.274954"><ele>651.4971</ele><time>2026-01-04T21:35:40.000Z</time></trkpt>
        <trkpt lat="29.539052" lon="104.274919"><ele>652.1038</ele><time>2026-01-04T21:35:45.000Z</time></trkpt>
        <trkpt lat="29.539001" lon="104.274885"><ele>652.975</ele><time>2026-01-04T21:35:53.000Z</time></trkpt>
        <trkpt lat="29.538965" lon="104.27486"><ele>653.5503</ele><time>2026-01-04T21:35:58.000Z</time></trkpt>
        <trkpt lat="29.53891" lon="104.274831"><ele>653.7966</ele><time>2026-01-04T21:36:08.000Z</time></trkpt>
        <trkpt lat="29.538864" lon="104.274801"><ele>655.48334</ele><time>2026-01-04T21:36:19.000Z</time></trkpt>
        <trkpt lat="29.538824" lon="104.274787"><ele>656.63336</ele><time>2026-01-04T21:36:25.000Z</time></trkpt>
        <trkpt lat="29.538778" lon="104.274776"><ele>656.3906</ele><time>2026-01-04T21:36:30.000Z</time></trkpt>
        <trkpt lat="29.538735" lon="104.274744"><ele>656.433</ele><time>2026-01-04T21:36:35.000Z</time></trkpt>
        <trkpt lat="29.538715" lon="104.274698"><ele>656.6001</ele><time>2026-01-04T21:36:39.000Z</time></trkpt>
        <trkpt lat="29.538718" lon="104.274643"><ele>657.0872</ele><time>2026-01-04T21:36:43.000Z</time></trkpt>
        <trkpt lat="29.538733" lon="104.274582"><ele>657.6013</ele><time>2026-01-04T21:36:48.000Z</time></trkpt>
        <trkpt lat="29.538755" lon="104.274526"><ele>658.9118</ele><time>2026-01-04T21:36:53.000Z</time></trkpt>
        <trkpt lat="29.538775" lon="104.274479"><ele>659.10614</ele><time>2026-01-04T21:36:57.000Z</time></trkpt>
        <trkpt lat="29.538803" lon="104.274428"><ele>658.7291</ele><time>2026-01-04T21:37:02.000Z</time></trkpt>
        <trkpt lat="29.538832" lon="104.274386"><ele>658.9784</ele><time>2026-01-04T21:37:07.000Z</time></trkpt>
        <trkpt lat="29.538862" lon="104.274345"><ele>659.28674</ele><time>2026-01-04T21:37:12.000Z</time></trkpt>
        <trkpt lat="29.538892" lon="104.274305"><ele>659.2591</ele><time>2026-01-04T21:37:17.000Z</time></trkpt>
        <trkpt lat="29.538929" lon="104.274254"><ele>659.13574</ele><time>2026-01-04T21:37:23.000Z</time></trkpt>
        <trkpt lat="29.538958" lon="104.274207"><ele>659.917</ele><time>2026-01-04T21:37:29.000Z</time></trkpt>
        <trkpt lat="29.538971" lon="104.274161"><ele>660.88116</ele><time>2026-01-04T21:37:33.000Z</time></trkpt>
        <trkpt lat="29.538983" lon="104.274109"><ele>661.5413</ele><time>2026-01-04T21:37:37.000Z</time></trkpt>
        <trkpt lat="29.538985" lon="104.274061"><ele>662.1999</ele><time>2026-01-04T21:37:40.000Z</time></trkpt>
        <trkpt lat="29.53899" lon="104.273988"><ele>662.52936</ele><time>2026-01-04T21:37:48.000Z</time></trkpt>
        <trkpt lat="29.538996" lon="104.273939"><ele>662.01953</ele><time>2026-01-04T21:37:53.000Z</time></trkpt>
        <trkpt lat="29.539012" lon="104.273885"><ele>661.9101</ele><time>2026-01-04T21:37:58.000Z</time></trkpt>
        <trkpt lat="29.539025" lon="104.273834"><ele>662.4644</ele><time>2026-01-04T21:38:02.000Z</time></trkpt>
        <trkpt lat="29.539037" lon="104.273778"><ele>663.8214</ele><time>2026-01-04T21:38:06.000Z</time></trkpt>
        <trkpt lat="29.539048" lon="104.273717"><ele>665.35895</ele><time>2026-01-04T21:38:11.000Z</time></trkpt>
        <trkpt lat="29.539049" lon="104.273653"><ele>665.3837</ele><time>2026-01-04T21:38:17.000Z</time></trkpt>
        <trkpt lat="29.539052" lon="104.273598"><ele>665.7064</ele><time>2026-01-04T21:38:22.000Z</time></trkpt>
        <trkpt lat="29.539044" lon="104.273535"><ele>666.79407</ele><time>2026-01-04T21:38:28.000Z</time></trkpt>
        <trkpt lat="29.539011" lon="104.273487"><ele>667.254</ele><time>2026-01-04T21:38:34.000Z</time></trkpt>
        <trkpt lat="29.538971" lon="104.273463"><ele>666.58636</ele><time>2026-01-04T21:38:38.000Z</time></trkpt>
        <trkpt lat="29.538936" lon="104.273418"><ele>665.3174</ele><time>2026-01-04T21:38:44.000Z</time></trkpt>
        <trkpt lat="29.538912" lon="104.273371"><ele>664.7837</ele><time>2026-01-04T21:38:49.000Z</time></trkpt>
        <trkpt lat="29.538904" lon="104.273309"><ele>665.3838</ele><time>2026-01-04T21:38:55.000Z</time></trkpt>
        <trkpt lat="29.538897" lon="104.273253"><ele>666.7929</ele><time>2026-01-04T21:39:00.000Z</time></trkpt>
        <trkpt lat="29.53889" lon="104.273191"><ele>668.2232</ele><time>2026-01-04T21:39:06.000Z</time></trkpt>
        <trkpt lat="29.538884" lon="104.273135"><ele>669.48114</ele><time>2026-01-04T21:39:11.000Z</time></trkpt>
        <trkpt lat="29.538887" lon="104.273078"><ele>670.7753</ele><time>2026-01-04T21:39:16.000Z</time></trkpt>
        <trkpt lat="29.538886" lon="104.273024"><ele>672.0478</ele><time>2026-01-04T21:39:21.000Z</time></trkpt>
        <trkpt lat="29.538869" lon="104.272969"><ele>673.2952</ele><time>2026-01-04T21:39:26.000Z</time></trkpt>
        <trkpt lat="29.538832" lon="104.272931"><ele>674.6806</ele><time>2026-01-04T21:39:30.000Z</time></trkpt>
        <trkpt lat="29.538789" lon="104.272914"><ele>675.49054</ele><time>2026-01-04T21:39:33.000Z</time></trkpt>
        <trkpt lat="29.538725" lon="104.272905"><ele>675.9295</ele><time>2026-01-04T21:39:38.000Z</time></trkpt>
        <trkpt lat="29.538666" lon="104.272909"><ele>676.07605</ele><time>2026-01-04T21:39:44.000Z</time></trkpt>
        <trkpt lat="29.538628" lon="104.272938"><ele>675.75696</ele><time>2026-01-04T21:39:49.000Z</time></trkpt>
        <trkpt lat="29.538591" lon="104.272962"><ele>674.93054</ele><time>2026-01-04T21:39:53.000Z</time></trkpt>
        <trkpt lat="29.538558" lon="104.272997"><ele>674.01697</ele><time>2026-01-04T21:39:57.000Z</time></trkpt>
        <trkpt lat="29.538516" lon="104.273038"><ele>670.75793</ele><time>2026-01-04T21:40:06.000Z</time></trkpt>
        <trkpt lat="29.538487" lon="104.273083"><ele>669.7131</ele><time>2026-01-04T21:40:14.000Z</time></trkpt>
        <trkpt lat="29.538456" lon="104.273123"><ele>670.48157</ele><time>2026-01-04T21:40:20.000Z</time></trkpt>
        <trkpt lat="29.538423" lon="104.273169"><ele>671.2593</ele><time>2026-01-04T21:40:26.000Z</time></trkpt>
        <trkpt lat="29.538389" lon="104.273218"><ele>672.0196</ele><time>2026-01-04T21:40:32.000Z</time></trkpt>
        <trkpt lat="29.538346" lon="104.27324"><ele>672.42816</ele><time>2026-01-04T21:40:37.000Z</time></trkpt>
        <trkpt lat="29.538289" lon="104.273246"><ele>672.37897</ele><time>2026-01-04T21:40:43.000Z</time></trkpt>
        <trkpt lat="29.538243" lon="104.273238"><ele>672.4065</ele><time>2026-01-04T21:40:47.000Z</time></trkpt>
        <trkpt lat="29.538194" lon="104.273217"><ele>671.9436</ele><time>2026-01-04T21:40:52.000Z</time></trkpt>
        <trkpt lat="29.538148" lon="104.273193"><ele>671.5943</ele><time>2026-01-04T21:40:57.000Z</time></trkpt>
        <trkpt lat="29.538107" lon="104.273154"><ele>671.3209</ele><time>2026-01-04T21:41:02.000Z</time></trkpt>
        <trkpt lat="29.538078" lon="104.273103"><ele>670.68207</ele><time>2026-01-04T21:41:08.000Z</time></trkpt>
        <trkpt lat="29.538069" lon="104.273043"><ele>670.3322</ele><time>2026-01-04T21:41:13.000Z</time></trkpt>
        <trkpt lat="29.538095" lon="104.272991"><ele>669.93475</ele><time>2026-01-04T21:41:18.000Z</time></trkpt>
        <trkpt lat="29.538125" lon="104.272945"><ele>669.8426</ele><time>2026-01-04T21:41:22.000Z</time></trkpt>
        <trkpt lat="29.538154" lon="104.27289"><ele>669.8125</ele><time>2026-01-04T21:41:27.000Z</time></trkpt>
        <trkpt lat="29.538175" lon="104.272831"><ele>669.5172</ele><time>2026-01-04T21:41:32.000Z</time></trkpt>
        <trkpt lat="29.538186" lon="104.272772"><ele>669.294</ele><time>2026-01-04T21:41:37.000Z</time></trkpt>
        <trkpt lat="29.538189" lon="104.272715"><ele>668.76807</ele><time>2026-01-04T21:41:42.000Z</time></trkpt>
        <trkpt lat="29.538193" lon="104.272655"><ele>668.5506</ele><time>2026-01-04T21:41:47.000Z</time></trkpt>
        <trkpt lat="29.538199" lon="104.27259"><ele>668.42267</ele><time>2026-01-04T21:41:53.000Z</time></trkpt>
        <trkpt lat="29.538208" lon="104.272536"><ele>668.90375</ele><time>2026-01-04T21:41:58.000Z</time></trkpt>
        <trkpt lat="29.538221" lon="104.272483"><ele>669.47406</ele><time>2026-01-04T21:42:03.000Z</time></trkpt>
        <trkpt lat="29.538235" lon="104.27243"><ele>670.10333</ele><time>2026-01-04T21:42:08.000Z</time></trkpt>
        <trkpt lat="29.538261" lon="104.272384"><ele>670.5426</ele><time>2026-01-04T21:42:13.000Z</time></trkpt>
        <trkpt lat="29.538295" lon="104.272334"><ele>672.89923</ele><time>2026-01-04T21:42:20.000Z</time></trkpt>
        <trkpt lat="29.538324" lon="104.272282"><ele>675.2101</ele><time>2026-01-04T21:42:27.000Z</time></trkpt>
        <trkpt lat="29.538334" lon="104.272225"><ele>676.74536</ele><time>2026-01-04T21:42:35.000Z</time></trkpt>
        <trkpt lat="29.538322" lon="104.272178"><ele>676.19037</ele><time>2026-01-04T21:42:40.000Z</time></trkpt>
        <trkpt lat="29.538296" lon="104.272134"><ele>675.7232</ele><time>2026-01-04T21:42:45.000Z</time></trkpt>
        <trkpt lat="29.538267" lon="104.27208"><ele>675.10114</ele><time>2026-01-04T21:42:50.000Z</time></trkpt>
        <trkpt lat="29.538247" lon="104.272032"><ele>674.7476</ele><time>2026-01-04T21:42:54.000Z</time></trkpt>
        <trkpt lat="29.538226" lon="104.271975"><ele>674.3923</ele><time>2026-01-04T21:42:59.000Z</time></trkpt>
        <trkpt lat="29.538227" lon="104.27192"><ele>674.86523</ele><time>2026-01-04T21:43:03.000Z</time></trkpt>
        <trkpt lat="29.538217" lon="104.271861"><ele>675.0051</ele><time>2026-01-04T21:43:08.000Z</time></trkpt>
        <trkpt lat="29.538189" lon="104.271823"><ele>674.7302</ele><time>2026-01-04T21:43:12.000Z</time></trkpt>
        <trkpt lat="29.53815" lon="104.271798"><ele>674.0801</ele><time>2026-01-04T21:43:16.000Z</time></trkpt>
        <trkpt lat="29.538095" lon="104.271787"><ele>672.7202</ele><time>2026-01-04T21:43:21.000Z</time></trkpt>
        <trkpt lat="29.538045" lon="104.27178"><ele>671.3187</ele><time>2026-01-04T21:43:26.000Z</time></trkpt>
        <trkpt lat="29.537994" lon="104.271783"><ele>669.653</ele><time>2026-01-04T21:43:39.000Z</time></trkpt>
        <trkpt lat="29.537958" lon="104.271774"><ele>669.2826</ele><time>2026-01-04T21:43:43.000Z</time></trkpt>
        <trkpt lat="29.537911" lon="104.271769"><ele>668.8588</ele><time>2026-01-04T21:43:47.000Z</time></trkpt>
        <trkpt lat="29.537854" lon="104.27176"><ele>668.65137</ele><time>2026-01-04T21:43:52.000Z</time></trkpt>
        <trkpt lat="29.537806" lon="104.27175"><ele>668.45825</ele><time>2026-01-04T21:43:56.000Z</time></trkpt>
        <trkpt lat="29.537751" lon="104.271733"><ele>668.1072</ele><time>2026-01-04T21:44:01.000Z</time></trkpt>
        <trkpt lat="29.537701" lon="104.271708"><ele>667.9774</ele><time>2026-01-04T21:44:06.000Z</time></trkpt>
        <trkpt lat="29.537667" lon="104.271664"><ele>668.4173</ele><time>2026-01-04T21:44:11.000Z</time></trkpt>
        <trkpt lat="29.537643" lon="104.271618"><ele>668.89026</ele><time>2026-01-04T21:44:15.000Z</time></trkpt>
        <trkpt lat="29.537612" lon="104.271567"><ele>669.52545</ele><time>2026-01-04T21:44:20.000Z</time></trkpt>
        <trkpt lat="29.537579" lon="104.271511"><ele>670.1453</ele><time>2026-01-04T21:44:26.000Z</time></trkpt>
        <trkpt lat="29.537563" lon="104.271461"><ele>670.554</ele><time>2026-01-04T21:44:31.000Z</time></trkpt>
        <trkpt lat="29.537544" lon="104.271417"><ele>671.3184</ele><time>2026-01-04T21:44:35.000Z</time></trkpt>
        <trkpt lat="29.537513" lon="104.271388"><ele>670.9883</ele><time>2026-01-04T21:44:38.000Z</time></trkpt>
        <trkpt lat="29.537475" lon="104.271342"><ele>670.3862</ele><time>2026-01-04T21:44:43.000Z</time></trkpt>
        <trkpt lat="29.537442" lon="104.271309"><ele>670.1634</ele><time>2026-01-04T21:44:47.000Z</time></trkpt>
        <trkpt lat="29.537408" lon="104.271262"><ele>669.8077</ele><time>2026-01-04T21:44:52.000Z</time></trkpt>
        <trkpt lat="29.537388" lon="104.271205"><ele>669.8958</ele><time>2026-01-04T21:44:57.000Z</time></trkpt>
        <trkpt lat="29.537374" lon="104.271146"><ele>670.075</ele><time>2026-01-04T21:45:05.000Z</time></trkpt>
        <trkpt lat="29.537353" lon="104.271097"><ele>670.3001</ele><time>2026-01-04T21:45:10.000Z</time></trkpt>
        <trkpt lat="29.537327" lon="104.271056"><ele>670.32794</ele><time>2026-01-04T21:45:14.000Z</time></trkpt>
        <trkpt lat="29.537291" lon="104.271006"><ele>670.7657</ele><time>2026-01-04T21:45:19.000Z</time></trkpt>
        <trkpt lat="29.537253" lon="104.270968"><ele>671.10297</ele><time>2026-01-04T21:45:23.000Z</time></trkpt>
        <trkpt lat="29.537211" lon="104.270936"><ele>671.4058</ele><time>2026-01-04T21:45:27.000Z</time></trkpt>
        <trkpt lat="29.537165" lon="104.270898"><ele>671.22107</ele><time>2026-01-04T21:45:32.000Z</time></trkpt>
        <trkpt lat="29.537128" lon="104.270865"><ele>671.18536</ele><time>2026-01-04T21:45:36.000Z</time></trkpt>
        <trkpt lat="29.537087" lon="104.270834"><ele>671.0017</ele><time>2026-01-04T21:45:40.000Z</time></trkpt>
        <trkpt lat="29.537048" lon="104.270798"><ele>670.9585</ele><time>2026-01-04T21:45:44.000Z</time></trkpt>
        <trkpt lat="29.537008" lon="104.270753"><ele>670.184</ele><time>2026-01-04T21:45:49.000Z</time></trkpt>
        <trkpt lat="29.536979" lon="104.27071"><ele>669.202</ele><time>2026-01-04T21:45:53.000Z</time></trkpt>
        <trkpt lat="29.536956" lon="104.270653"><ele>668.154</ele><time>2026-01-04T21:45:58.000Z</time></trkpt>
        <trkpt lat="29.536949" lon="104.27059"><ele>668.4242</ele><time>2026-01-04T21:46:04.000Z</time></trkpt>
        <trkpt lat="29.536965" lon="104.270539"><ele>668.5984</ele><time>2026-01-04T21:46:08.000Z</time></trkpt>
        <trkpt lat="29.53698" lon="104.270479"><ele>668.2922</ele><time>2026-01-04T21:46:13.000Z</time></trkpt>
        <trkpt lat="29.536994" lon="104.270417"><ele>668.7147</ele><time>2026-01-04T21:46:18.000Z</time></trkpt>
        <trkpt lat="29.537004" lon="104.270361"><ele>668.55133</ele><time>2026-01-04T21:46:23.000Z</time></trkpt>
        <trkpt lat="29.537018" lon="104.270312"><ele>668.94824</ele><time>2026-01-04T21:46:27.000Z</time></trkpt>
        <trkpt lat="29.537043" lon="104.270259"><ele>669.1927</ele><time>2026-01-04T21:46:32.000Z</time></trkpt>
        <trkpt lat="29.537078" lon="104.270219"><ele>669.19226</ele><time>2026-01-04T21:46:37.000Z</time></trkpt>
        <trkpt lat="29.537119" lon="104.270191"><ele>669.6256</ele><time>2026-01-04T21:46:42.000Z</time></trkpt>
        <trkpt lat="29.53715" lon="104.270145"><ele>670.1348</ele><time>2026-01-04T21:46:46.000Z</time></trkpt>
        <trkpt lat="29.537167" lon="104.270097"><ele>670.8332</ele><time>2026-01-04T21:46:49.000Z</time></trkpt>
        <trkpt lat="29.537175" lon="104.270036"><ele>670.6086</ele><time>2026-01-04T21:46:53.000Z</time></trkpt>
        <trkpt lat="29.53718" lon="104.269971"><ele>670.3194</ele><time>2026-01-04T21:46:57.000Z</time></trkpt>
        <trkpt lat="29.537183" lon="104.269912"><ele>669.6425</ele><time>2026-01-04T21:47:01.000Z</time></trkpt>
        <trkpt lat="29.537191" lon="104.269851"><ele>668.597</ele><time>2026-01-04T21:47:06.000Z</time></trkpt>
        <trkpt lat="29.537201" lon="104.269797"><ele>667.5904</ele><time>2026-01-04T21:47:10.000Z</time></trkpt>
        <trkpt lat="29.537214" lon="104.269741"><ele>665.82117</ele><time>2026-01-04T21:47:15.000Z</time></trkpt>
        <trkpt lat="29.537228" lon="104.26969"><ele>664.3517</ele><time>2026-01-04T21:47:19.000Z</time></trkpt>
        <trkpt lat="29.537237" lon="104.269643"><ele>663.28186</ele><time>2026-01-04T21:47:22.000Z</time></trkpt>
        <trkpt lat="29.537233" lon="104.269576"><ele>661.365</ele><time>2026-01-04T21:47:27.000Z</time></trkpt>
        <trkpt lat="29.537208" lon="104.269528"><ele>659.659</ele><time>2026-01-04T21:47:31.000Z</time></trkpt>
        <trkpt lat="29.537167" lon="104.269488"><ele>657.3051</ele><time>2026-01-04T21:47:36.000Z</time></trkpt>
        <trkpt lat="29.537121" lon="104.269469"><ele>655.60986</ele><time>2026-01-04T21:47:40.000Z</time></trkpt>
        <trkpt lat="29.537071" lon="104.269445"><ele>655.0862</ele><time>2026-01-04T21:47:44.000Z</time></trkpt>
        <trkpt lat="29.537022" lon="104.269413"><ele>654.52966</ele><time>2026-01-04T21:47:49.000Z</time></trkpt>
        <trkpt lat="29.536972" lon="104.269373"><ele>654.1466</ele><time>2026-01-04T21:47:54.000Z</time></trkpt>
        <trkpt lat="29.536934" lon="104.269335"><ele>652.6524</ele><time>2026-01-04T21:47:59.000Z</time></trkpt>
        <trkpt lat="29.536935" lon="104.269292"><ele>651.2594</ele><time>2026-01-04T21:48:03.000Z</time></trkpt>
        <trkpt lat="29.536973" lon="104.269252"><ele>650.753</ele><time>2026-01-04T21:48:08.000Z</time></trkpt>
        <trkpt lat="29.537022" lon="104.269247"><ele>649.8345</ele><time>2026-01-04T21:48:12.000Z</time></trkpt>
        <trkpt lat="29.537078" lon="104.269265"><ele>649.2535</ele><time>2026-01-04T21:48:17.000Z</time></trkpt>
        <trkpt lat="29.537128" lon="104.269289"><ele>649.3965</ele><time>2026-01-04T21:48:22.000Z</time></trkpt>
        <trkpt lat="29.537179" lon="104.26931"><ele>649.16296</ele><time>2026-01-04T21:48:27.000Z</time></trkpt>
        <trkpt lat="29.537228" lon="104.269318"><ele>648.58386</ele><time>2026-01-04T21:48:32.000Z</time></trkpt>
        <trkpt lat="29.537272" lon="104.269323"><ele>648.2126</ele><time>2026-01-04T21:48:36.000Z</time></trkpt>
        <trkpt lat="29.537322" lon="104.269329"><ele>647.442</ele><time>2026-01-04T21:48:40.000Z</time></trkpt>
        <trkpt lat="29.537369" lon="104.269347"><ele>646.97205</ele><time>2026-01-04T21:48:44.000Z</time></trkpt>
        <trkpt lat="29.537421" lon="104.269347"><ele>646.5243</ele><time>2026-01-04T21:48:49.000Z</time></trkpt>
        <trkpt lat="29.537466" lon="104.269337"><ele>646.2034</ele><time>2026-01-04T21:48:54.000Z</time></trkpt>
        <trkpt lat="29.537517" lon="104.269329"><ele>645.4999</ele><time>2026-01-04T21:49:00.000Z</time></trkpt>
        <trkpt lat="29.537571" lon="104.26934"><ele>645.3054</ele><time>2026-01-04T21:49:07.000Z</time></trkpt>
        <trkpt lat="29.537618" lon="104.269353"><ele>645.0934</ele><time>2026-01-04T21:49:13.000Z</time></trkpt>
        <trkpt lat="29.537655" lon="104.26939"><ele>646.0615</ele><time>2026-01-04T21:49:20.000Z</time></trkpt>
        <trkpt lat="29.537696" lon="104.269423"><ele>646.9897</ele><time>2026-01-04T21:49:26.000Z</time></trkpt>
        <trkpt lat="29.537744" lon="104.269437"><ele>647.43005</ele><time>2026-01-04T21:49:32.000Z</time></trkpt>
        <trkpt lat="29.537788" lon="104.269424"><ele>647.33875</ele><time>2026-01-04T21:49:37.000Z</time></trkpt>
        <trkpt lat="29.537829" lon="104.269398"><ele>646.77563</ele><time>2026-01-04T21:49:41.000Z</time></trkpt>
        <trkpt lat="29.537885" lon="104.269386"><ele>645.1219</ele><time>2026-01-04T21:49:49.000Z</time></trkpt>
        <trkpt lat="29.53792" lon="104.269366"><ele>644.2171</ele><time>2026-01-04T21:49:54.000Z</time></trkpt>
        <trkpt lat="29.53797" lon="104.269338"><ele>642.01715</ele><time>2026-01-04T21:50:03.000Z</time></trkpt>
        <trkpt lat="29.538015" lon="104.269323"><ele>640.1332</ele><time>2026-01-04T21:50:11.000Z</time></trkpt>
        <trkpt lat="29.538062" lon="104.269317"><ele>639.6783</ele><time>2026-01-04T21:50:17.000Z</time></trkpt>
        <trkpt lat="29.538113" lon="104.269316"><ele>638.33136</ele><time>2026-01-04T21:50:30.000Z</time></trkpt>
        <trkpt lat="29.53816" lon="104.269313"><ele>637.3069</ele><time>2026-01-04T21:50:38.000Z</time></trkpt>
        <trkpt lat="29.538207" lon="104.269319"><ele>636.77905</ele><time>2026-01-04T21:50:45.000Z</time></trkpt>
        <trkpt lat="29.538242" lon="104.269278"><ele>634.8956</ele><time>2026-01-04T21:51:37.000Z</time></trkpt>
        <trkpt lat="29.538268" lon="104.269299"><ele>633.46356</ele><time>2026-01-04T21:51:41.000Z</time></trkpt>
        <trkpt lat="29.538326" lon="104.269332"><ele>633.8292</ele><time>2026-01-04T21:51:52.000Z</time></trkpt>
        <trkpt lat="29.53837" lon="104.269352"><ele>633.9668</ele><time>2026-01-04T21:51:59.000Z</time></trkpt>
        <trkpt lat="29.5384" lon="104.269393"><ele>634.00195</ele><time>2026-01-04T21:52:04.000Z</time></trkpt>
        <trkpt lat="29.53845" lon="104.269415"><ele>633.21576</ele><time>2026-01-04T21:52:11.000Z</time></trkpt>
        <trkpt lat="29.538489" lon="104.269419"><ele>633.0213</ele><time>2026-01-04T21:52:14.000Z</time></trkpt>
        <trkpt lat="29.538543" lon="104.269448"><ele>633.6922</ele><time>2026-01-04T21:52:46.000Z</time></trkpt>
        <trkpt lat="29.538571" lon="104.269469"><ele>633.52136</ele><time>2026-01-04T21:52:52.000Z</time></trkpt>
        <trkpt lat="29.538616" lon="104.26948"><ele>633.3075</ele><time>2026-01-04T21:52:55.000Z</time></trkpt>
        <trkpt lat="29.538666" lon="104.269486"><ele>632.3474</ele><time>2026-01-04T21:52:58.000Z</time></trkpt>
        <trkpt lat="29.538733" lon="104.269501"><ele>631.5599</ele><time>2026-01-04T21:53:04.000Z</time></trkpt>
        <trkpt lat="29.538783" lon="104.269494"><ele>630.069</ele><time>2026-01-04T21:53:09.000Z</time></trkpt>
        <trkpt lat="29.538812" lon="104.269456"><ele>627.9376</ele><time>2026-01-04T21:53:14.000Z</time></trkpt>
        <trkpt lat="29.538828" lon="104.269396"><ele>625.108</ele><time>2026-01-04T21:53:20.000Z</time></trkpt>
        <trkpt lat="29.538841" lon="104.26934"><ele>623.61804</ele><time>2026-01-04T21:53:25.000Z</time></trkpt>
        <trkpt lat="29.538838" lon="104.269268"><ele>620.5618</ele><time>2026-01-04T21:53:42.000Z</time></trkpt>
        <trkpt lat="29.538837" lon="104.269224"><ele>619.62054</ele><time>2026-01-04T21:53:47.000Z</time></trkpt>
        <trkpt lat="29.538835" lon="104.269165"><ele>617.88617</ele><time>2026-01-04T21:53:51.000Z</time></trkpt>
        <trkpt lat="29.538829" lon="104.269104"><ele>616.0977</ele><time>2026-01-04T21:53:55.000Z</time></trkpt>
        <trkpt lat="29.538833" lon="104.269047"><ele>614.7657</ele><time>2026-01-04T21:53:59.000Z</time></trkpt>
        <trkpt lat="29.538854" lon="104.268985"><ele>613.74207</ele><time>2026-01-04T21:54:04.000Z</time></trkpt>
        <trkpt lat="29.538879" lon="104.268939"><ele>612.60956</ele><time>2026-01-04T21:54:08.000Z</time></trkpt>
        <trkpt lat="29.538901" lon="104.268893"><ele>611.116</ele><time>2026-01-04T21:54:12.000Z</time></trkpt>
        <trkpt lat="29.538927" lon="104.268845"><ele>609.8461</ele><time>2026-01-04T21:54:16.000Z</time></trkpt>
        <trkpt lat="29.538941" lon="104.268787"><ele>608.38434</ele><time>2026-01-04T21:54:21.000Z</time></trkpt>
        <trkpt lat="29.538948" lon="104.268737"><ele>607.58307</ele><time>2026-01-04T21:54:25.000Z</time></trkpt>
        <trkpt lat="29.538951" lon="104.268685"><ele>606.9517</ele><time>2026-01-04T21:54:29.000Z</time></trkpt>
        <trkpt lat="29.538946" lon="104.268623"><ele>606.23956</ele><time>2026-01-04T21:54:34.000Z</time></trkpt>
        <trkpt lat="29.538951" lon="104.268572"><ele>606.10565</ele><time>2026-01-04T21:54:38.000Z</time></trkpt>
        <trkpt lat="29.538961" lon="104.268521"><ele>606.1074</ele><time>2026-01-04T21:54:42.000Z</time></trkpt>
        <trkpt lat="29.538983" lon="104.268463"><ele>605.9553</ele><time>2026-01-04T21:54:47.000Z</time></trkpt>
        <trkpt lat="29.539004" lon="104.268417"><ele>605.91986</ele><time>2026-01-04T21:54:51.000Z</time></trkpt>
        <trkpt lat="29.539023" lon="104.268365"><ele>605.58765</ele><time>2026-01-04T21:54:55.000Z</time></trkpt>
        <trkpt lat="29.53904" lon="104.268302"><ele>604.6141</ele><time>2026-01-04T21:55:00.000Z</time></trkpt>
        <trkpt lat="29.539028" lon="104.268235"><ele>603.2204</ele><time>2026-01-04T21:55:05.000Z</time></trkpt>
        <trkpt lat="29.539003" lon="104.268183"><ele>601.6469</ele><time>2026-01-04T21:55:10.000Z</time></trkpt>
        <trkpt lat="29.538968" lon="104.268141"><ele>601.30975</ele><time>2026-01-04T21:55:16.000Z</time></trkpt>
        <trkpt lat="29.538942" lon="104.268105"><ele>601.5302</ele><time>2026-01-04T21:55:20.000Z</time></trkpt>
        <trkpt lat="29.538911" lon="104.268064"><ele>601.8458</ele><time>2026-01-04T21:55:24.000Z</time></trkpt>
        <trkpt lat="29.538879" lon="104.268018"><ele>602.2801</ele><time>2026-01-04T21:55:28.000Z</time></trkpt>
        <trkpt lat="29.538842" lon="104.267969"><ele>602.13385</ele><time>2026-01-04T21:55:33.000Z</time></trkpt>
        <trkpt lat="29.538808" lon="104.267931"><ele>601.892</ele><time>2026-01-04T21:55:37.000Z</time></trkpt>
        <trkpt lat="29.538767" lon="104.267887"><ele>602.2654</ele><time>2026-01-04T21:55:42.000Z</time></trkpt>
        <trkpt lat="29.538723" lon="104.267849"><ele>602.42993</ele><time>2026-01-04T21:55:47.000Z</time></trkpt>
        <trkpt lat="29.538682" lon="104.267823"><ele>602.6428</ele><time>2026-01-04T21:55:51.000Z</time></trkpt>
        <trkpt lat="29.538641" lon="104.267787"><ele>602.76135</ele><time>2026-01-04T21:55:56.000Z</time></trkpt>
        <trkpt lat="29.538607" lon="104.267755"><ele>602.6004</ele><time>2026-01-04T21:56:00.000Z</time></trkpt>
        <trkpt lat="29.538564" lon="104.267724"><ele>601.8473</ele><time>2026-01-04T21:56:05.000Z</time></trkpt>
        <trkpt lat="29.538516" lon="104.267702"><ele>601.1117</ele><time>2026-01-04T21:56:10.000Z</time></trkpt>
        <trkpt lat="29.538461" lon="104.267699"><ele>600.5505</ele><time>2026-01-04T21:56:15.000Z</time></trkpt>
        <trkpt lat="29.538408" lon="104.267684"><ele>600.3151</ele><time>2026-01-04T21:56:21.000Z</time></trkpt>
        <trkpt lat="29.538356" lon="104.267668"><ele>600.18695</ele><time>2026-01-04T21:56:26.000Z</time></trkpt>
        <trkpt lat="29.538311" lon="104.267653"><ele>599.6005</ele><time>2026-01-04T21:56:30.000Z</time></trkpt>
        <trkpt lat="29.538252" lon="104.267642"><ele>598.52</ele><time>2026-01-04T21:56:36.000Z</time></trkpt>
        <trkpt lat="29.538196" lon="104.26764"><ele>597.5383</ele><time>2026-01-04T21:56:41.000Z</time></trkpt>
        <trkpt lat="29.538147" lon="104.267634"><ele>596.85834</ele><time>2026-01-04T21:56:45.000Z</time></trkpt>
        <trkpt lat="29.538091" lon="104.267641"><ele>596.10144</ele><time>2026-01-04T21:56:50.000Z</time></trkpt>
        <trkpt lat="29.538039" lon="104.267641"><ele>595.16974</ele><time>2026-01-04T21:56:55.000Z</time></trkpt>
        <trkpt lat="29.53799" lon="104.267651"><ele>594.27264</ele><time>2026-01-04T21:57:00.000Z</time></trkpt>
        <trkpt lat="29.537939" lon="104.267649"><ele>593.7526</ele><time>2026-01-04T21:57:05.000Z</time></trkpt>
        <trkpt lat="29.537884" lon="104.267625"><ele>593.0012</ele><time>2026-01-04T21:57:11.000Z</time></trkpt>
        <trkpt lat="29.537845" lon="104.267592"><ele>592.17645</ele><time>2026-01-04T21:57:16.000Z</time></trkpt>
        <trkpt lat="29.537797" lon="104.26756"><ele>590.74</ele><time>2026-01-04T21:57:22.000Z</time></trkpt>
        <trkpt lat="29.537749" lon="104.267552"><ele>589.5786</ele><time>2026-01-04T21:57:27.000Z</time></trkpt>
        <trkpt lat="29.537705" lon="104.267553"><ele>588.9372</ele><time>2026-01-04T21:57:31.000Z</time></trkpt>
        <trkpt lat="29.53765" lon="104.267549"><ele>587.25586</ele><time>2026-01-04T21:57:36.000Z</time></trkpt>
        <trkpt lat="29.5376" lon="104.26754"><ele>586.40326</ele><time>2026-01-04T21:57:41.000Z</time></trkpt>
        <trkpt lat="29.537549" lon="104.267539"><ele>585.4653</ele><time>2026-01-04T21:57:46.000Z</time></trkpt>
        <trkpt lat="29.537497" lon="104.267534"><ele>584.35834</ele><time>2026-01-04T21:57:51.000Z</time></trkpt>
        <trkpt lat="29.537444" lon="104.267532"><ele>583.69073</ele><time>2026-01-04T21:57:56.000Z</time></trkpt>
        <trkpt lat="29.53739" lon="104.267526"><ele>583.5995</ele><time>2026-01-04T21:58:01.000Z</time></trkpt>
        <trkpt lat="29.537338" lon="104.267524"><ele>583.37445</ele><time>2026-01-04T21:58:06.000Z</time></trkpt>
        <trkpt lat="29.537294" lon="104.267518"><ele>583.2558</ele><time>2026-01-04T21:58:10.000Z</time></trkpt>
        <trkpt lat="29.537246" lon="104.267502"><ele>582.7618</ele><time>2026-01-04T21:58:15.000Z</time></trkpt>
        <trkpt lat="29.537204" lon="104.267478"><ele>582.3772</ele><time>2026-01-04T21:58:20.000Z</time></trkpt>
        <trkpt lat="29.537154" lon="104.267446"><ele>581.83594</ele><time>2026-01-04T21:58:26.000Z</time></trkpt>
        <trkpt lat="29.537108" lon="104.267415"><ele>581.22626</ele><time>2026-01-04T21:58:32.000Z</time></trkpt>
        <trkpt lat="29.537068" lon="104.267384"><ele>580.1619</ele><time>2026-01-04T21:58:37.000Z</time></trkpt>
        <trkpt lat="29.537026" lon="104.267364"><ele>578.72186</ele><time>2026-01-04T21:58:41.000Z</time></trkpt>
        <trkpt lat="29.536978" lon="104.267347"><ele>577.7569</ele><time>2026-01-04T21:58:46.000Z</time></trkpt>
        <trkpt lat="29.536925" lon="104.267327"><ele>577.1143</ele><time>2026-01-04T21:58:52.000Z</time></trkpt>
        <trkpt lat="29.536874" lon="104.267305"><ele>577.15283</ele><time>2026-01-04T21:59:03.000Z</time></trkpt>
        <trkpt lat="29.536835" lon="104.267302"><ele>576.6578</ele><time>2026-01-04T21:59:08.000Z</time></trkpt>
        <trkpt lat="29.536787" lon="104.267298"><ele>576.3828</ele><time>2026-01-04T21:59:12.000Z</time></trkpt>
        <trkpt lat="29.536737" lon="104.267295"><ele>575.646</ele><time>2026-01-04T21:59:16.000Z</time></trkpt>
        <trkpt lat="29.536688" lon="104.267297"><ele>575.20483</ele><time>2026-01-04T21:59:20.000Z</time></trkpt>
        <trkpt lat="29.536632" lon="104.267294"><ele>574.9554</ele><time>2026-01-04T21:59:25.000Z</time></trkpt>
        <trkpt lat="29.536585" lon="104.267287"><ele>575.0629</ele><time>2026-01-04T21:59:30.000Z</time></trkpt>
        <trkpt lat="29.536531" lon="104.26728"><ele>574.9694</ele><time>2026-01-04T21:59:36.000Z</time></trkpt>
        <trkpt lat="29.536484" lon="104.267263"><ele>574.85455</ele><time>2026-01-04T21:59:40.000Z</time></trkpt>
        <trkpt lat="29.536426" lon="104.267254"><ele>574.45886</ele><time>2026-01-04T21:59:45.000Z</time></trkpt>
        <trkpt lat="29.536378" lon="104.267254"><ele>574.20355</ele><time>2026-01-04T21:59:49.000Z</time></trkpt>
        <trkpt lat="29.536329" lon="104.267252"><ele>574.17725</ele><time>2026-01-04T21:59:53.000Z</time></trkpt>
        <trkpt lat="29.536276" lon="104.267246"><ele>574.0645</ele><time>2026-01-04T21:59:58.000Z</time></trkpt>
        <trkpt lat="29.536231" lon="104.267238"><ele>573.79913</ele><time>2026-01-04T22:00:02.000Z</time></trkpt>
        <trkpt lat="29.536187" lon="104.267222"><ele>573.7057</ele><time>2026-01-04T22:00:06.000Z</time></trkpt>
        <trkpt lat="29.53614" lon="104.267194"><ele>573.52936</ele><time>2026-01-04T22:00:11.000Z</time></trkpt>
        <trkpt lat="29.536112" lon="104.267141"><ele>573.33246</ele><time>2026-01-04T22:00:16.000Z</time></trkpt>
        <trkpt lat="29.536099" lon="104.267078"><ele>573.23083</ele><time>2026-01-04T22:00:21.000Z</time></trkpt>
        <trkpt lat="29.536081" lon="104.26702"><ele>572.84625</ele><time>2026-01-04T22:00:27.000Z</time></trkpt>
        <trkpt lat="29.536074" lon="104.266964"><ele>572.75793</ele><time>2026-01-04T22:00:32.000Z</time></trkpt>
        <trkpt lat="29.536051" lon="104.266913"><ele>572.60657</ele><time>2026-01-04T22:00:40.000Z</time></trkpt>
        <trkpt lat="29.536009" lon="104.266943"><ele>572.88226</ele><time>2026-01-04T22:01:03.000Z</time></trkpt>
        <trkpt lat="29.53605" lon="104.266921"><ele>573.2652</ele><time>2026-01-04T22:01:14.000Z</time></trkpt>
        <trkpt lat="29.536085" lon="104.266878"><ele>572.89557</ele><time>2026-01-04T22:01:25.000Z</time></trkpt>
        <trkpt lat="29.536128" lon="104.266848"><ele>571.83734</ele><time>2026-01-04T22:01:33.000Z</time></trkpt>
        <trkpt lat="29.536172" lon="104.266812"><ele>571.6626</ele><time>2026-01-04T22:01:38.000Z</time></trkpt>
        <trkpt lat="29.536226" lon="104.266774"><ele>571.64886</ele><time>2026-01-04T22:01:46.000Z</time></trkpt>
        <trkpt lat="29.536269" lon="104.266739"><ele>571.49384</ele><time>2026-01-04T22:01:52.000Z</time></trkpt>
        <trkpt lat="29.536312" lon="104.266714"><ele>571.5035</ele><time>2026-01-04T22:01:57.000Z</time></trkpt>
        <trkpt lat="29.536347" lon="104.266683"><ele>571.4107</ele><time>2026-01-04T22:02:01.000Z</time></trkpt>
        <trkpt lat="29.536386" lon="104.26663"><ele>570.9228</ele><time>2026-01-04T22:02:08.000Z</time></trkpt>
        <trkpt lat="29.536409" lon="104.266582"><ele>570.6032</ele><time>2026-01-04T22:02:13.000Z</time></trkpt>
        <trkpt lat="29.53643" lon="104.266532"><ele>570.41724</ele><time>2026-01-04T22:02:18.000Z</time></trkpt>
        <trkpt lat="29.536446" lon="104.266471"><ele>570.1942</ele><time>2026-01-04T22:02:30.000Z</time></trkpt>
        <trkpt lat="29.536463" lon="104.266437"><ele>570.2632</ele><time>2026-01-04T22:02:34.000Z</time></trkpt>
        <trkpt lat="29.536513" lon="104.266395"><ele>570.15405</ele><time>2026-01-04T22:02:47.000Z</time></trkpt>
        <trkpt lat="29.53654" lon="104.266355"><ele>570.29517</ele><time>2026-01-04T22:02:52.000Z</time></trkpt>
        <trkpt lat="29.536567" lon="104.266315"><ele>570.6027</ele><time>2026-01-04T22:02:56.000Z</time></trkpt>
        <trkpt lat="29.536591" lon="104.266254"><ele>570.55286</ele><time>2026-01-04T22:03:01.000Z</time></trkpt>
        <trkpt lat="29.53661" lon="104.266202"><ele>570.3379</ele><time>2026-01-04T22:03:05.000Z</time></trkpt>
        <trkpt lat="29.536639" lon="104.266145"><ele>569.87885</ele><time>2026-01-04T22:03:10.000Z</time></trkpt>
        <trkpt lat="29.536673" lon="104.266107"><ele>569.3688</ele><time>2026-01-04T22:03:14.000Z</time></trkpt>
        <trkpt lat="29.536722" lon="104.266077"><ele>567.97614</ele><time>2026-01-04T22:04:04.000Z</time></trkpt>
        <trkpt lat="29.536752" lon="104.266089"><ele>568.03595</ele><time>2026-01-04T22:04:09.000Z</time></trkpt>
        <trkpt lat="29.5368" lon="104.266083"><ele>567.6439</ele><time>2026-01-04T22:04:13.000Z</time></trkpt>
        <trkpt lat="29.536872" lon="104.266077"><ele>567.5488</ele><time>2026-01-04T22:04:19.000Z</time></trkpt>
        <trkpt lat="29.536924" lon="104.266046"><ele>567.3672</ele><time>2026-01-04T22:04:24.000Z</time></trkpt>
        <trkpt lat="29.536964" lon="104.266021"><ele>567.0351</ele><time>2026-01-04T22:04:28.000Z</time></trkpt>
        <trkpt lat="29.537012" lon="104.266"><ele>566.03754</ele><time>2026-01-04T22:04:33.000Z</time></trkpt>
        <trkpt lat="29.537047" lon="104.26597"><ele>565.519</ele><time>2026-01-04T22:04:37.000Z</time></trkpt>
        <trkpt lat="29.537083" lon="104.265937"><ele>565.52295</ele><time>2026-01-04T22:04:41.000Z</time></trkpt>
        <trkpt lat="29.537124" lon="104.265887"><ele>565.38794</ele><time>2026-01-04T22:04:46.000Z</time></trkpt>
        <trkpt lat="29.53715" lon="104.265838"><ele>565.13043</ele><time>2026-01-04T22:04:51.000Z</time></trkpt>
        <trkpt lat="29.537174" lon="104.265783"><ele>564.7493</ele><time>2026-01-04T22:04:56.000Z</time></trkpt>
        <trkpt lat="29.537199" lon="104.265733"><ele>564.1531</ele><time>2026-01-04T22:05:01.000Z</time></trkpt>
        <trkpt lat="29.537237" lon="104.265685"><ele>563.60596</ele><time>2026-01-04T22:05:08.000Z</time></trkpt>
        <trkpt lat="29.537272" lon="104.265651"><ele>563.25226</ele><time>2026-01-04T22:05:13.000Z</time></trkpt>
        <trkpt lat="29.537308" lon="104.265624"><ele>562.83746</ele><time>2026-01-04T22:05:17.000Z</time></trkpt>
        <trkpt lat="29.537359" lon="104.265611"><ele>562.2244</ele><time>2026-01-04T22:05:22.000Z</time></trkpt>
        <trkpt lat="29.537417" lon="104.265612"><ele>562.23145</ele><time>2026-01-04T22:05:26.000Z</time></trkpt>
        <trkpt lat="29.537478" lon="104.26561"><ele>562.50476</ele><time>2026-01-04T22:05:32.000Z</time></trkpt>
        <trkpt lat="29.537527" lon="104.265618"><ele>562.7036</ele><time>2026-01-04T22:05:37.000Z</time></trkpt>
        <trkpt lat="29.537573" lon="104.265645"><ele>561.93774</ele><time>2026-01-04T22:05:42.000Z</time></trkpt>
        <trkpt lat="29.537612" lon="104.265675"><ele>561.1467</ele><time>2026-01-04T22:05:46.000Z</time></trkpt>
        <trkpt lat="29.537649" lon="104.265726"><ele>559.3759</ele><time>2026-01-04T22:05:53.000Z</time></trkpt>
        <trkpt lat="29.537682" lon="104.265755"><ele>558.6108</ele><time>2026-01-04T22:05:57.000Z</time></trkpt>
        <trkpt lat="29.537721" lon="104.265804"><ele>557.9569</ele><time>2026-01-04T22:06:02.000Z</time></trkpt>
        <trkpt lat="29.537749" lon="104.265857"><ele>557.22266</ele><time>2026-01-04T22:06:07.000Z</time></trkpt>
        <trkpt lat="29.53777" lon="104.265909"><ele>556.7695</ele><time>2026-01-04T22:06:12.000Z</time></trkpt>
        <trkpt lat="29.537801" lon="104.265961"><ele>556.5068</ele><time>2026-01-04T22:06:17.000Z</time></trkpt>
        <trkpt lat="29.537826" lon="104.265999"><ele>556.47876</ele><time>2026-01-04T22:06:21.000Z</time></trkpt>
        <trkpt lat="29.537853" lon="104.26604"><ele>556.4542</ele><time>2026-01-04T22:06:25.000Z</time></trkpt>
        <trkpt lat="29.537885" lon="104.266084"><ele>555.8696</ele><time>2026-01-04T22:06:30.000Z</time></trkpt>
        <trkpt lat="29.537924" lon="104.26612"><ele>555.418</ele><time>2026-01-04T22:06:35.000Z</time></trkpt>
        <trkpt lat="29.537963" lon="104.266152"><ele>556.07007</ele><time>2026-01-04T22:06:39.000Z</time></trkpt>
        <trkpt lat="29.538006" lon="104.266183"><ele>556.23065</ele><time>2026-01-04T22:06:43.000Z</time></trkpt>
        <trkpt lat="29.538066" lon="104.266202"><ele>556.1709</ele><time>2026-01-04T22:06:48.000Z</time></trkpt>
        <trkpt lat="29.538124" lon="104.266198"><ele>555.836</ele><time>2026-01-04T22:06:54.000Z</time></trkpt>
        <trkpt lat="29.538171" lon="104.266176"><ele>555.49036</ele><time>2026-01-04T22:06:58.000Z</time></trkpt>
        <trkpt lat="29.538225" lon="104.266144"><ele>554.8299</ele><time>2026-01-04T22:07:03.000Z</time></trkpt>
        <trkpt lat="29.538273" lon="104.266115"><ele>553.4522</ele><time>2026-01-04T22:07:08.000Z</time></trkpt>
        <trkpt lat="29.538319" lon="104.266102"><ele>552.5189</ele><time>2026-01-04T22:07:13.000Z</time></trkpt>
        <trkpt lat="29.538362" lon="104.266093"><ele>551.8646</ele><time>2026-01-04T22:07:17.000Z</time></trkpt>
        <trkpt lat="29.538414" lon="104.266084"><ele>550.9182</ele><time>2026-01-04T22:07:23.000Z</time></trkpt>
        <trkpt lat="29.538468" lon="104.266071"><ele>550.1425</ele><time>2026-01-04T22:07:28.000Z</time></trkpt>
        <trkpt lat="29.538514" lon="104.266064"><ele>548.88336</ele><time>2026-01-04T22:07:32.000Z</time></trkpt>
        <trkpt lat="29.538562" lon="104.266061"><ele>547.95557</ele><time>2026-01-04T22:07:36.000Z</time></trkpt>
        <trkpt lat="29.538612" lon="104.266052"><ele>547.4379</ele><time>2026-01-04T22:07:40.000Z</time></trkpt>
        <trkpt lat="29.538663" lon="104.266039"><ele>547.19257</ele><time>2026-01-04T22:07:44.000Z</time></trkpt>
        <trkpt lat="29.53871" lon="104.266035"><ele>547.3932</ele><time>2026-01-04T22:07:48.000Z</time></trkpt>
        <trkpt lat="29.538755" lon="104.266026"><ele>547.44495</ele><time>2026-01-04T22:07:52.000Z</time></trkpt>
        <trkpt lat="29.538809" lon="104.266013"><ele>548.1478</ele><time>2026-01-04T22:07:57.000Z</time></trkpt>
        <trkpt lat="29.538852" lon="104.265977"><ele>548.16187</ele><time>2026-01-04T22:08:03.000Z</time></trkpt>
        <trkpt lat="29.538884" lon="104.265922"><ele>547.3421</ele><time>2026-01-04T22:08:10.000Z</time></trkpt>
        <trkpt lat="29.538911" lon="104.265882"><ele>547.05005</ele><time>2026-01-04T22:08:14.000Z</time></trkpt>
        <trkpt lat="29.538966" lon="104.265838"><ele>546.54395</ele><time>2026-01-04T22:08:37.000Z</time></trkpt>
        <trkpt lat="29.538999" lon="104.265822"><ele>546.544</ele><time>2026-01-04T22:08:41.000Z</time></trkpt>
        <trkpt lat="29.539056" lon="104.265775"><ele>545.96185</ele><time>2026-01-04T22:08:53.000Z</time></trkpt>
        <trkpt lat="29.539087" lon="104.265745"><ele>545.779</ele><time>2026-01-04T22:08:57.000Z</time></trkpt>
        <trkpt lat="29.539128" lon="104.265711"><ele>545.2514</ele><time>2026-01-04T22:09:03.000Z</time></trkpt>
        <trkpt lat="29.539166" lon="104.265684"><ele>544.3304</ele><time>2026-01-04T22:09:08.000Z</time></trkpt>
        <trkpt lat="29.539212" lon="104.265645"><ele>542.9337</ele><time>2026-01-04T22:09:13.000Z</time></trkpt>
        <trkpt lat="29.539253" lon="104.265604"><ele>542.12384</ele><time>2026-01-04T22:09:18.000Z</time></trkpt>
        <trkpt lat="29.539293" lon="104.265568"><ele>540.74744</ele><time>2026-01-04T22:09:23.000Z</time></trkpt>
        <trkpt lat="29.539327" lon="104.26553"><ele>539.89526</ele><time>2026-01-04T22:09:28.000Z</time></trkpt>
        <trkpt lat="29.539358" lon="104.265492"><ele>539.5409</ele><time>2026-01-04T22:09:33.000Z</time></trkpt>
        <trkpt lat="29.539391" lon="104.265443"><ele>539.3311</ele><time>2026-01-04T22:09:39.000Z</time></trkpt>
        <trkpt lat="29.539417" lon="104.265401"><ele>538.782</ele><time>2026-01-04T22:09:43.000Z</time></trkpt>
        <trkpt lat="29.539454" lon="104.265352"><ele>538.91034</ele><time>2026-01-04T22:09:48.000Z</time></trkpt>
        <trkpt lat="29.539483" lon="104.265304"><ele>538.76996</ele><time>2026-01-04T22:09:52.000Z</time></trkpt>
        <trkpt lat="29.539507" lon="104.265255"><ele>538.45154</ele><time>2026-01-04T22:09:56.000Z</time></trkpt>
        <trkpt lat="29.539533" lon="104.265201"><ele>537.77814</ele><time>2026-01-04T22:10:01.000Z</time></trkpt>
        <trkpt lat="29.539557" lon="104.265158"><ele>537.358</ele><time>2026-01-04T22:10:05.000Z</time></trkpt>
        <trkpt lat="29.539589" lon="104.265106"><ele>536.8495</ele><time>2026-01-04T22:10:10.000Z</time></trkpt>
        <trkpt lat="29.539619" lon="104.265058"><ele>536.40924</ele><time>2026-01-04T22:10:15.000Z</time></trkpt>
        <trkpt lat="29.539632" lon="104.264997"><ele>536.37476</ele><time>2026-01-04T22:10:20.000Z</time></trkpt>
        <trkpt lat="29.539637" lon="104.264943"><ele>536.74164</ele><time>2026-01-04T22:10:24.000Z</time></trkpt>
        <trkpt lat="29.539642" lon="104.264876"><ele>538.744</ele><time>2026-01-04T22:10:47.000Z</time></trkpt>
        <trkpt lat="29.539626" lon="104.264843"><ele>539.3089</ele><time>2026-01-04T22:10:53.000Z</time></trkpt>
        <trkpt lat="29.539611" lon="104.264786"><ele>539.06</ele><time>2026-01-04T22:10:57.000Z</time></trkpt>
        <trkpt lat="29.53959" lon="104.264726"><ele>538.88544</ele><time>2026-01-04T22:11:01.000Z</time></trkpt>
        <trkpt lat="29.539546" lon="104.264685"><ele>538.89343</ele><time>2026-01-04T22:11:06.000Z</time></trkpt>
        <trkpt lat="29.539523" lon="104.26465"><ele>538.8848</ele><time>2026-01-04T22:11:09.000Z</time></trkpt>
        <trkpt lat="29.539493" lon="104.264594"><ele>538.3812</ele><time>2026-01-04T22:11:14.000Z</time></trkpt>
        <trkpt lat="29.539471" lon="104.26454"><ele>537.68365</ele><time>2026-01-04T22:11:19.000Z</time></trkpt>
        <trkpt lat="29.539431" lon="104.264545"><ele>536.5303</ele><time>2026-01-04T22:11:25.000Z</time></trkpt>
        <trkpt lat="29.53946" lon="104.264514"><ele>538.2747</ele><time>2026-01-04T22:12:15.000Z</time></trkpt>
        <trkpt lat="29.539478" lon="104.264481"><ele>538.37</ele><time>2026-01-04T22:12:19.000Z</time></trkpt>
        <trkpt lat="29.539509" lon="104.264438"><ele>537.8381</ele><time>2026-01-04T22:12:24.000Z</time></trkpt>
        <trkpt lat="29.539546" lon="104.264403"><ele>537.0687</ele><time>2026-01-04T22:12:28.000Z</time></trkpt>
        <trkpt lat="29.539585" lon="104.264363"><ele>536.3296</ele><time>2026-01-04T22:12:33.000Z</time></trkpt>
        <trkpt lat="29.539618" lon="104.26433"><ele>535.5988</ele><time>2026-01-04T22:12:37.000Z</time></trkpt>
        <trkpt lat="29.539642" lon="104.264281"><ele>535.34656</ele><time>2026-01-04T22:12:41.000Z</time></trkpt>
        <trkpt lat="29.539661" lon="104.264235"><ele>534.9622</ele><time>2026-01-04T22:12:44.000Z</time></trkpt>
        <trkpt lat="29.539696" lon="104.26419"><ele>534.01874</ele><time>2026-01-04T22:12:48.000Z</time></trkpt>
        <trkpt lat="29.539739" lon="104.264137"><ele>534.0164</ele><time>2026-01-04T22:12:54.000Z</time></trkpt>
        <trkpt lat="29.539791" lon="104.264118"><ele>532.5347</ele><time>2026-01-04T22:13:00.000Z</time></trkpt>
        <trkpt lat="29.53982" lon="104.264143"><ele>530.42975</ele><time>2026-01-04T22:13:03.000Z</time></trkpt>
        <trkpt lat="29.539867" lon="104.264177"><ele>528.812</ele><time>2026-01-04T22:13:07.000Z</time></trkpt>
        <trkpt lat="29.539903" lon="104.264226"><ele>528.0856</ele><time>2026-01-04T22:13:11.000Z</time></trkpt>
        <trkpt lat="29.539943" lon="104.264276"><ele>528.5253</ele><time>2026-01-04T22:13:17.000Z</time></trkpt>
        <trkpt lat="29.539971" lon="104.264322"><ele>529.1622</ele><time>2026-01-04T22:13:24.000Z</time></trkpt>
        <trkpt lat="29.540008" lon="104.264345"><ele>529.14</ele><time>2026-01-04T22:13:28.000Z</time></trkpt>
        <trkpt lat="29.540062" lon="104.264356"><ele>529.1051</ele><time>2026-01-04T22:13:34.000Z</time></trkpt>
        <trkpt lat="29.540113" lon="104.264371"><ele>528.80835</ele><time>2026-01-04T22:13:39.000Z</time></trkpt>
        <trkpt lat="29.540171" lon="104.264361"><ele>526.8415</ele><time>2026-01-04T22:13:48.000Z</time></trkpt>
        <trkpt lat="29.540206" lon="104.264354"><ele>525.6757</ele><time>2026-01-04T22:13:51.000Z</time></trkpt>
        <trkpt lat="29.540257" lon="104.264342"><ele>524.51135</ele><time>2026-01-04T22:13:56.000Z</time></trkpt>
        <trkpt lat="29.540312" lon="104.26434"><ele>523.309</ele><time>2026-01-04T22:14:01.000Z</time></trkpt>
        <trkpt lat="29.540366" lon="104.264355"><ele>522.45734</ele><time>2026-01-04T22:14:06.000Z</time></trkpt>
        <trkpt lat="29.540417" lon="104.264374"><ele>521.5744</ele><time>2026-01-04T22:14:10.000Z</time></trkpt>
        <trkpt lat="29.540464" lon="104.264406"><ele>520.5609</ele><time>2026-01-04T22:14:16.000Z</time></trkpt>
        <trkpt lat="29.540506" lon="104.264433"><ele>520.47986</ele><time>2026-01-04T22:14:20.000Z</time></trkpt>
        <trkpt lat="29.54055" lon="104.264463"><ele>520.40857</ele><time>2026-01-04T22:14:25.000Z</time></trkpt>
        <trkpt lat="29.540599" lon="104.264482"><ele>520.3206</ele><time>2026-01-04T22:14:30.000Z</time></trkpt>
        <trkpt lat="29.540622" lon="104.264527"><ele>520.5292</ele><time>2026-01-04T22:14:37.000Z</time></trkpt>
        <trkpt lat="29.540654" lon="104.264565"><ele>520.82947</ele><time>2026-01-04T22:14:42.000Z</time></trkpt>
        <trkpt lat="29.540697" lon="104.264599"><ele>521.6664</ele><time>2026-01-04T22:14:47.000Z</time></trkpt>
        <trkpt lat="29.540735" lon="104.264638"><ele>521.7874</ele><time>2026-01-04T22:14:51.000Z</time></trkpt>
        <trkpt lat="29.540791" lon="104.264668"><ele>521.8321</ele><time>2026-01-04T22:14:57.000Z</time></trkpt>
        <trkpt lat="29.540839" lon="104.264676"><ele>521.53143</ele><time>2026-01-04T22:15:01.000Z</time></trkpt>
        <trkpt lat="29.540888" lon="104.264682"><ele>521.1328</ele><time>2026-01-04T22:15:05.000Z</time></trkpt>
        <trkpt lat="29.540943" lon="104.264669"><ele>520.46893</ele><time>2026-01-04T22:15:10.000Z</time></trkpt>
        <trkpt lat="29.54099" lon="104.264633"><ele>519.19116</ele><time>2026-01-04T22:15:17.000Z</time></trkpt>
        <trkpt lat="29.541026" lon="104.264644"><ele>518.8802</ele><time>2026-01-04T22:15:20.000Z</time></trkpt>
        <trkpt lat="29.541074" lon="104.264604"><ele>517.40027</ele><time>2026-01-04T22:15:28.000Z</time></trkpt>
        <trkpt lat="29.541116" lon="104.264583"><ele>516.7002</ele><time>2026-01-04T22:15:34.000Z</time></trkpt>
        <trkpt lat="29.541164" lon="104.264569"><ele>515.62085</ele><time>2026-01-04T22:15:42.000Z</time></trkpt>
        <trkpt lat="29.541209" lon="104.264594"><ele>514.56116</ele><time>2026-01-04T22:15:51.000Z</time></trkpt>
        <trkpt lat="29.541253" lon="104.264594"><ele>514.13153</ele><time>2026-01-04T22:16:00.000Z</time></trkpt>
        <trkpt lat="29.541281" lon="104.264615"><ele>513.24774</ele><time>2026-01-04T22:16:03.000Z</time></trkpt>
        <trkpt lat="29.541319" lon="104.264668"><ele>512.5104</ele><time>2026-01-04T22:16:08.000Z</time></trkpt>
        <trkpt lat="29.541345" lon="104.264737"><ele>512.09607</ele><time>2026-01-04T22:16:15.000Z</time></trkpt>
        <trkpt lat="29.541373" lon="104.264788"><ele>511.7611</ele><time>2026-01-04T22:16:20.000Z</time></trkpt>
        <trkpt lat="29.541418" lon="104.264819"><ele>511.0254</ele><time>2026-01-04T22:16:26.000Z</time></trkpt>
        <trkpt lat="29.541461" lon="104.264838"><ele>509.8294</ele><time>2026-01-04T22:16:31.000Z</time></trkpt>
        <trkpt lat="29.541505" lon="104.264856"><ele>508.48373</ele><time>2026-01-04T22:16:36.000Z</time></trkpt>
        <trkpt lat="29.541546" lon="104.264883"><ele>507.644</ele><time>2026-01-04T22:16:39.000Z</time></trkpt>
        <trkpt lat="29.541607" lon="104.264883"><ele>505.90533</ele><time>2026-01-04T22:16:45.000Z</time></trkpt>
        <trkpt lat="29.541655" lon="104.264855"><ele>503.9653</ele><time>2026-01-04T22:16:52.000Z</time></trkpt>
        <trkpt lat="29.541693" lon="104.264838"><ele>502.75458</ele><time>2026-01-04T22:16:56.000Z</time></trkpt>
        <trkpt lat="29.54174" lon="104.264841"><ele>501.5445</ele><time>2026-01-04T22:17:01.000Z</time></trkpt>
        <trkpt lat="29.541788" lon="104.264847"><ele>500.34702</ele><time>2026-01-04T22:17:06.000Z</time></trkpt>
        <trkpt lat="29.541838" lon="104.264856"><ele>500.0502</ele><time>2026-01-04T22:17:11.000Z</time></trkpt>
        <trkpt lat="29.541896" lon="104.26486"><ele>499.12878</ele><time>2026-01-04T22:17:17.000Z</time></trkpt>
        <trkpt lat="29.541944" lon="104.264877"><ele>499.0498</ele><time>2026-01-04T22:17:21.000Z</time></trkpt>
        <trkpt lat="29.541999" lon="104.264903"><ele>498.6919</ele><time>2026-01-04T22:17:28.000Z</time></trkpt>
        <trkpt lat="29.542044" lon="104.264914"><ele>498.1813</ele><time>2026-01-04T22:17:33.000Z</time></trkpt>
        <trkpt lat="29.542097" lon="104.264927"><ele>497.15277</ele><time>2026-01-04T22:17:41.000Z</time></trkpt>
        <trkpt lat="29.542141" lon="104.264929"><ele>496.04196</ele><time>2026-01-04T22:17:47.000Z</time></trkpt>
        <trkpt lat="29.542184" lon="104.264921"><ele>496.00302</ele><time>2026-01-04T22:17:51.000Z</time></trkpt>
        <trkpt lat="29.54224" lon="104.264929"><ele>495.73285</ele><time>2026-01-04T22:17:56.000Z</time></trkpt>
        <trkpt lat="29.542288" lon="104.264921"><ele>495.29727</ele><time>2026-01-04T22:18:00.000Z</time></trkpt>
        <trkpt lat="29.542336" lon="104.264899"><ele>494.11768</ele><time>2026-01-04T22:18:05.000Z</time></trkpt>
        <trkpt lat="29.542384" lon="104.264889"><ele>493.54794</ele><time>2026-01-04T22:18:09.000Z</time></trkpt>
        <trkpt lat="29.542445" lon="104.264881"><ele>492.9934</ele><time>2026-01-04T22:18:15.000Z</time></trkpt>
        <trkpt lat="29.542493" lon="104.264874"><ele>491.73495</ele><time>2026-01-04T22:18:21.000Z</time></trkpt>
        <trkpt lat="29.542543" lon="104.264876"><ele>490.70605</ele><time>2026-01-04T22:18:25.000Z</time></trkpt>
        <trkpt lat="29.542602" lon="104.264882"><ele>488.6885</ele><time>2026-01-04T22:18:33.000Z</time></trkpt>
        <trkpt lat="29.542644" lon="104.264879"><ele>487.26794</ele><time>2026-01-04T22:18:39.000Z</time></trkpt>
        <trkpt lat="29.54269" lon="104.264876"><ele>486.05444</ele><time>2026-01-04T22:18:45.000Z</time></trkpt>
        <trkpt lat="29.542743" lon="104.264867"><ele>484.293</ele><time>2026-01-04T22:18:52.000Z</time></trkpt>
        <trkpt lat="29.542789" lon="104.264846"><ele>482.85867</ele><time>2026-01-04T22:19:00.000Z</time></trkpt>
        <trkpt lat="29.542835" lon="104.264874"><ele>482.39764</ele><time>2026-01-04T22:19:17.000Z</time></trkpt>
        <trkpt lat="29.542871" lon="104.264903"><ele>481.48813</ele><time>2026-01-04T22:19:22.000Z</time></trkpt>
        <trkpt lat="29.542919" lon="104.264933"><ele>480.8103</ele><time>2026-01-04T22:19:29.000Z</time></trkpt>
        <trkpt lat="29.54297" lon="104.264932"><ele>480.16647</ele><time>2026-01-04T22:19:34.000Z</time></trkpt>
        <trkpt lat="29.543022" lon="104.264941"><ele>479.63168</ele><time>2026-01-04T22:19:39.000Z</time></trkpt>
        <trkpt lat="29.543064" lon="104.264967"><ele>479.2037</ele><time>2026-01-04T22:19:43.000Z</time></trkpt>
        <trkpt lat="29.543109" lon="104.264992"><ele>478.90698</ele><time>2026-01-04T22:19:47.000Z</time></trkpt>
        <trkpt lat="29.543149" lon="104.265003"><ele>478.97037</ele><time>2026-01-04T22:19:50.000Z</time></trkpt>
        <trkpt lat="29.543202" lon="104.265033"><ele>478.95447</ele><time>2026-01-04T22:19:55.000Z</time></trkpt>
        <trkpt lat="29.543239" lon="104.265064"><ele>478.68314</ele><time>2026-01-04T22:19:59.000Z</time></trkpt>
        <trkpt lat="29.543287" lon="104.265081"><ele>478.38925</ele><time>2026-01-04T22:20:03.000Z</time></trkpt>
        <trkpt lat="29.543337" lon="104.265099"><ele>478.19183</ele><time>2026-01-04T22:20:08.000Z</time></trkpt>
        <trkpt lat="29.543379" lon="104.265108"><ele>478.28003</ele><time>2026-01-04T22:20:12.000Z</time></trkpt>
        <trkpt lat="29.543424" lon="104.26512"><ele>477.9295</ele><time>2026-01-04T22:20:16.000Z</time></trkpt>
        <trkpt lat="29.543474" lon="104.265133"><ele>477.46213</ele><time>2026-01-04T22:20:20.000Z</time></trkpt>
        <trkpt lat="29.543533" lon="104.265149"><ele>476.64935</ele><time>2026-01-04T22:20:25.000Z</time></trkpt>
        <trkpt lat="29.543575" lon="104.265169"><ele>476.22778</ele><time>2026-01-04T22:20:29.000Z</time></trkpt>
        <trkpt lat="29.54362" lon="104.265189"><ele>476.05334</ele><time>2026-01-04T22:20:33.000Z</time></trkpt>
        <trkpt lat="29.54368" lon="104.265217"><ele>475.14343</ele><time>2026-01-04T22:20:39.000Z</time></trkpt>
        <trkpt lat="29.543729" lon="104.265241"><ele>474.50647</ele><time>2026-01-04T22:20:45.000Z</time></trkpt>
        <trkpt lat="29.543779" lon="104.265248"><ele>474.2705</ele><time>2026-01-04T22:20:51.000Z</time></trkpt>
        <trkpt lat="29.54383" lon="104.265253"><ele>473.47156</ele><time>2026-01-04T22:20:59.000Z</time></trkpt>
        <trkpt lat="29.543886" lon="104.265265"><ele>473.35153</ele><time>2026-01-04T22:21:10.000Z</time></trkpt>
        <trkpt lat="29.543936" lon="104.265254"><ele>473.24817</ele><time>2026-01-04T22:21:19.000Z</time></trkpt>
        <trkpt lat="29.543987" lon="104.265259"><ele>473.71484</ele><time>2026-01-04T22:21:29.000Z</time></trkpt>
        <trkpt lat="29.54403" lon="104.265276"><ele>473.9598</ele><time>2026-01-04T22:21:35.000Z</time></trkpt>
        <trkpt lat="29.544062" lon="104.265314"><ele>474.67804</ele><time>2026-01-04T22:21:40.000Z</time></trkpt>
        <trkpt lat="29.544101" lon="104.26535"><ele>475.0422</ele><time>2026-01-04T22:21:45.000Z</time></trkpt>
        <trkpt lat="29.544142" lon="104.265373"><ele>475.57065</ele><time>2026-01-04T22:21:49.000Z</time></trkpt>
        <trkpt lat="29.54419" lon="104.265393"><ele>476.14188</ele><time>2026-01-04T22:21:54.000Z</time></trkpt>
        <trkpt lat="29.54424" lon="104.265407"><ele>476.73657</ele><time>2026-01-04T22:21:59.000Z</time></trkpt>
        <trkpt lat="29.544288" lon="104.265426"><ele>477.2965</ele><time>2026-01-04T22:22:04.000Z</time></trkpt>
        <trkpt lat="29.54433" lon="104.265439"><ele>477.8555</ele><time>2026-01-04T22:22:08.000Z</time></trkpt>
        <trkpt lat="29.54438" lon="104.265457"><ele>478.4218</ele><time>2026-01-04T22:22:13.000Z</time></trkpt>
        <trkpt lat="29.544421" lon="104.265477"><ele>478.91656</ele><time>2026-01-04T22:22:17.000Z</time></trkpt>
        <trkpt lat="29.544475" lon="104.265495"><ele>479.87408</ele><time>2026-01-04T22:22:22.000Z</time></trkpt>
        <trkpt lat="29.544522" lon="104.265507"><ele>480.14886</ele><time>2026-01-04T22:22:27.000Z</time></trkpt>
        <trkpt lat="29.544569" lon="104.265519"><ele>480.35114</ele><time>2026-01-04T22:22:31.000Z</time></trkpt>
        <trkpt lat="29.544623" lon="104.265538"><ele>481.00854</ele><time>2026-01-04T22:22:36.000Z</time></trkpt>
        <trkpt lat="29.544674" lon="104.265559"><ele>481.63504</ele><time>2026-01-04T22:22:41.000Z</time></trkpt>
        <trkpt lat="29.544717" lon="104.265576"><ele>481.96155</ele><time>2026-01-04T22:22:45.000Z</time></trkpt>
        <trkpt lat="29.544766" lon="104.265589"><ele>482.25174</ele><time>2026-01-04T22:22:49.000Z</time></trkpt>
        <trkpt lat="29.544817" lon="104.265598"><ele>482.01984</ele><time>2026-01-04T22:22:54.000Z</time></trkpt>
        <trkpt lat="29.544868" lon="104.265607"><ele>481.58066</ele><time>2026-01-04T22:22:59.000Z</time></trkpt>
        <trkpt lat="29.544915" lon="104.265636"><ele>481.12415</ele><time>2026-01-04T22:23:05.000Z</time></trkpt>
        <trkpt lat="29.544947" lon="104.265661"><ele>481.0404</ele><time>2026-01-04T22:23:08.000Z</time></trkpt>
        <trkpt lat="29.544993" lon="104.265695"><ele>480.8648</ele><time>2026-01-04T22:23:14.000Z</time></trkpt>
        <trkpt lat="29.54503" lon="104.265724"><ele>480.54166</ele><time>2026-01-04T22:23:18.000Z</time></trkpt>
        <trkpt lat="29.54508" lon="104.265754"><ele>480.2875</ele><time>2026-01-04T22:23:23.000Z</time></trkpt>
        <trkpt lat="29.545131" lon="104.26577"><ele>479.65805</ele><time>2026-01-04T22:23:28.000Z</time></trkpt>
        <trkpt lat="29.545186" lon="104.265778"><ele>478.24527</ele><time>2026-01-04T22:23:34.000Z</time></trkpt>
        <trkpt lat="29.545231" lon="104.265791"><ele>477.79938</ele><time>2026-01-04T22:23:39.000Z</time></trkpt>
        <trkpt lat="29.545273" lon="104.265823"><ele>477.08136</ele><time>2026-01-04T22:23:45.000Z</time></trkpt>
        <trkpt lat="29.545302" lon="104.265853"><ele>476.6346</ele><time>2026-01-04T22:23:48.000Z</time></trkpt>
        <trkpt lat="29.545344" lon="104.265889"><ele>475.7848</ele><time>2026-01-04T22:23:53.000Z</time></trkpt>
        <trkpt lat="29.545389" lon="104.265906"><ele>474.76697</ele><time>2026-01-04T22:23:58.000Z</time></trkpt>
        <trkpt lat="29.545436" lon="104.265935"><ele>473.37137</ele><time>2026-01-04T22:24:04.000Z</time></trkpt>
        <trkpt lat="29.545483" lon="104.265965"><ele>472.18832</ele><time>2026-01-04T22:24:10.000Z</time></trkpt>
        <trkpt lat="29.545519" lon="104.265988"><ele>471.77515</ele><time>2026-01-04T22:24:13.000Z</time></trkpt>
        <trkpt lat="29.545566" lon="104.266028"><ele>471.90842</ele><time>2026-01-04T22:24:18.000Z</time></trkpt>
        <trkpt lat="29.545608" lon="104.266056"><ele>471.5613</ele><time>2026-01-04T22:24:22.000Z</time></trkpt>
        <trkpt lat="29.545655" lon="104.26608"><ele>470.7117</ele><time>2026-01-04T22:24:27.000Z</time></trkpt>
        <trkpt lat="29.54571" lon="104.266094"><ele>470.6341</ele><time>2026-01-04T22:24:31.000Z</time></trkpt>
        <trkpt lat="29.545768" lon="104.266117"><ele>469.76315</ele><time>2026-01-04T22:24:39.000Z</time></trkpt>
        <trkpt lat="29.545807" lon="104.266135"><ele>469.29752</ele><time>2026-01-04T22:24:45.000Z</time></trkpt>
        <trkpt lat="29.545851" lon="104.266159"><ele>469.53745</ele><time>2026-01-04T22:24:50.000Z</time></trkpt>
        <trkpt lat="29.545898" lon="104.26618"><ele>469.81577</ele><time>2026-01-04T22:24:54.000Z</time></trkpt>
        <trkpt lat="29.545951" lon="104.266197"><ele>470.02167</ele><time>2026-01-04T22:24:59.000Z</time></trkpt>
        <trkpt lat="29.54599" lon="104.266225"><ele>470.54742</ele><time>2026-01-04T22:25:03.000Z</time></trkpt>
        <trkpt lat="29.54603" lon="104.266257"><ele>470.6333</ele><time>2026-01-04T22:25:07.000Z</time></trkpt>
        <trkpt lat="29.546081" lon="104.266288"><ele>471.61438</ele><time>2026-01-04T22:25:13.000Z</time></trkpt>
        <trkpt lat="29.546122" lon="104.266306"><ele>472.4512</ele><time>2026-01-04T22:25:17.000Z</time></trkpt>
        <trkpt lat="29.546169" lon="104.266328"><ele>473.55573</ele><time>2026-01-04T22:25:22.000Z</time></trkpt>
        <trkpt lat="29.546225" lon="104.266324"><ele>474.99927</ele><time>2026-01-04T22:25:29.000Z</time></trkpt>
        <trkpt lat="29.546262" lon="104.266304"><ele>475.61734</ele><time>2026-01-04T22:25:33.000Z</time></trkpt>
        <trkpt lat="29.546301" lon="104.266266"><ele>476.24188</ele><time>2026-01-04T22:25:37.000Z</time></trkpt>
        <trkpt lat="29.546331" lon="104.266205"><ele>476.83002</ele><time>2026-01-04T22:25:42.000Z</time></trkpt>
        <trkpt lat="29.546336" lon="104.266141"><ele>476.62872</ele><time>2026-01-04T22:25:47.000Z</time></trkpt>
        <trkpt lat="29.546344" lon="104.26608"><ele>476.63403</ele><time>2026-01-04T22:25:52.000Z</time></trkpt>
        <trkpt lat="29.546355" lon="104.266024"><ele>476.27377</ele><time>2026-01-04T22:25:57.000Z</time></trkpt>
        <trkpt lat="29.546373" lon="104.265975"><ele>475.45096</ele><time>2026-01-04T22:26:02.000Z</time></trkpt>
        <trkpt lat="29.546412" lon="104.265934"><ele>474.92828</ele><time>2026-01-04T22:26:07.000Z</time></trkpt>
        <trkpt lat="29.546455" lon="104.265893"><ele>474.7136</ele><time>2026-01-04T22:26:12.000Z</time></trkpt>
        <trkpt lat="29.546496" lon="104.265852"><ele>475.26334</ele><time>2026-01-04T22:26:17.000Z</time></trkpt>
        <trkpt lat="29.546525" lon="104.265804"><ele>475.76437</ele><time>2026-01-04T22:26:22.000Z</time></trkpt>
        <trkpt lat="29.546546" lon="104.265752"><ele>476.1005</ele><time>2026-01-04T22:26:27.000Z</time></trkpt>
        <trkpt lat="29.546566" lon="104.2657"><ele>476.4078</ele><time>2026-01-04T22:26:32.000Z</time></trkpt>
        <trkpt lat="29.546598" lon="104.26566"><ele>476.33472</ele><time>2026-01-04T22:26:37.000Z</time></trkpt>
        <trkpt lat="29.546625" lon="104.265609"><ele>476.94858</ele><time>2026-01-04T22:26:43.000Z</time></trkpt>
        <trkpt lat="29.546649" lon="104.265564"><ele>477.68356</ele><time>2026-01-04T22:26:48.000Z</time></trkpt>
        <trkpt lat="29.546694" lon="104.265538"><ele>477.53702</ele><time>2026-01-04T22:26:54.000Z</time></trkpt>
        <trkpt lat="29.546741" lon="104.265525"><ele>477.22086</ele><time>2026-01-04T22:27:00.000Z</time></trkpt>
        <trkpt lat="29.546792" lon="104.265531"><ele>476.94183</ele><time>2026-01-04T22:27:07.000Z</time></trkpt>
        <trkpt lat="29.546836" lon="104.265545"><ele>476.87842</ele><time>2026-01-04T22:27:12.000Z</time></trkpt>
        <trkpt lat="29.546872" lon="104.265579"><ele>476.73886</ele><time>2026-01-04T22:27:17.000Z</time></trkpt>
        <trkpt lat="29.546912" lon="104.265621"><ele>476.30057</ele><time>2026-01-04T22:27:22.000Z</time></trkpt>
        <trkpt lat="29.54695" lon="104.265664"><ele>476.43643</ele><time>2026-01-04T22:27:27.000Z</time></trkpt>
        <trkpt lat="29.54698" lon="104.265713"><ele>476.07544</ele><time>2026-01-04T22:27:32.000Z</time></trkpt>
        <trkpt lat="29.546997" lon="104.265767"><ele>475.46628</ele><time>2026-01-04T22:27:37.000Z</time></trkpt>
        <trkpt lat="29.547005" lon="104.265827"><ele>475.3019</ele><time>2026-01-04T22:27:42.000Z</time></trkpt>
        <trkpt lat="29.547002" lon="104.265878"><ele>475.3984</ele><time>2026-01-04T22:27:46.000Z</time></trkpt>
        <trkpt lat="29.546987" lon="104.26594"><ele>475.1418</ele><time>2026-01-04T22:27:51.000Z</time></trkpt>
        <trkpt lat="29.546964" lon="104.265993"><ele>475.3463</ele><time>2026-01-04T22:27:56.000Z</time></trkpt>
        <trkpt lat="29.546941" lon="104.266041"><ele>476.49374</ele><time>2026-01-04T22:28:01.000Z</time></trkpt>
        <trkpt lat="29.546904" lon="104.266083"><ele>478.00235</ele><time>2026-01-04T22:28:07.000Z</time></trkpt>
        <trkpt lat="29.546875" lon="104.266123"><ele>479.145</ele><time>2026-01-04T22:28:12.000Z</time></trkpt>
        <trkpt lat="29.546853" lon="104.266174"><ele>480.36026</ele><time>2026-01-04T22:28:17.000Z</time></trkpt>
        <trkpt lat="29.546845" lon="104.266234"><ele>480.03455</ele><time>2026-01-04T22:28:22.000Z</time></trkpt>
        <trkpt lat="29.54682" lon="104.266288"><ele>478.35803</ele><time>2026-01-04T22:28:27.000Z</time></trkpt>
        <trkpt lat="29.546803" lon="104.266345"><ele>478.06763</ele><time>2026-01-04T22:28:32.000Z</time></trkpt>
        <trkpt lat="29.546772" lon="104.266391"><ele>477.97568</ele><time>2026-01-04T22:28:37.000Z</time></trkpt>
        <trkpt lat="29.546734" lon="104.266436"><ele>478.17972</ele><time>2026-01-04T22:28:42.000Z</time></trkpt>
        <trkpt lat="29.546696" lon="104.266481"><ele>479.01096</ele><time>2026-01-04T22:28:47.000Z</time></trkpt>
        <trkpt lat="29.546663" lon="104.266522"><ele>479.45718</ele><time>2026-01-04T22:28:51.000Z</time></trkpt>
        <trkpt lat="29.546635" lon="104.266577"><ele>479.459</ele><time>2026-01-04T22:28:56.000Z</time></trkpt>
        <trkpt lat="29.546629" lon="104.266629"><ele>479.28445</ele><time>2026-01-04T22:29:00.000Z</time></trkpt>
        <trkpt lat="29.546625" lon="104.266684"><ele>479.052</ele><time>2026-01-04T22:29:03.000Z</time></trkpt>
        <trkpt lat="29.546624" lon="104.266743"><ele>478.93338</ele><time>2026-01-04T22:29:08.000Z</time></trkpt>
        <trkpt lat="29.546627" lon="104.266794"><ele>479.55646</ele><time>2026-01-04T22:29:12.000Z</time></trkpt>
        <trkpt lat="29.546639" lon="104.266856"><ele>481.20956</ele><time>2026-01-04T22:29:17.000Z</time></trkpt>
        <trkpt lat="29.546641" lon="104.266911"><ele>482.63477</ele><time>2026-01-04T22:29:23.000Z</time></trkpt>
        <trkpt lat="29.546626" lon="104.266962"><ele>484.20728</ele><time>2026-01-04T22:29:28.000Z</time></trkpt>
        <trkpt lat="29.546602" lon="104.267014"><ele>485.34418</ele><time>2026-01-04T22:29:33.000Z</time></trkpt>
        <trkpt lat="29.546587" lon="104.267072"><ele>486.16135</ele><time>2026-01-04T22:29:38.000Z</time></trkpt>
        <trkpt lat="29.546578" lon="104.267128"><ele>486.9802</ele><time>2026-01-04T22:29:42.000Z</time></trkpt>
        <trkpt lat="29.546586" lon="104.267194"><ele>488.1185</ele><time>2026-01-04T22:29:48.000Z</time></trkpt>
        <trkpt lat="29.546594" lon="104.267253"><ele>488.51477</ele><time>2026-01-04T22:29:53.000Z</time></trkpt>
        <trkpt lat="29.546613" lon="104.26731"><ele>489.54132</ele><time>2026-01-04T22:29:58.000Z</time></trkpt>
        <trkpt lat="29.546631" lon="104.26736"><ele>490.24796</ele><time>2026-01-04T22:30:03.000Z</time></trkpt>
        <trkpt lat="29.546649" lon="104.267414"><ele>490.02646</ele><time>2026-01-04T22:30:33.000Z</time></trkpt>
        <trkpt lat="29.546649" lon="104.267451"><ele>490.51337</ele><time>2026-01-04T22:30:38.000Z</time></trkpt>
        <trkpt lat="29.546656" lon="104.267519"><ele>491.15747</ele><time>2026-01-04T22:30:44.000Z</time></trkpt>
        <trkpt lat="29.546663" lon="104.26758"><ele>491.48492</ele><time>2026-01-04T22:30:50.000Z</time></trkpt>
        <trkpt lat="29.54669" lon="104.267632"><ele>492.3252</ele><time>2026-01-04T22:30:56.000Z</time></trkpt>
        <trkpt lat="29.546704" lon="104.26768"><ele>492.7618</ele><time>2026-01-04T22:31:01.000Z</time></trkpt>
        <trkpt lat="29.546732" lon="104.267731"><ele>493.2468</ele><time>2026-01-04T22:31:07.000Z</time></trkpt>
        <trkpt lat="29.546753" lon="104.267777"><ele>493.5504</ele><time>2026-01-04T22:31:12.000Z</time></trkpt>
        <trkpt lat="29.546789" lon="104.267823"><ele>494.0986</ele><time>2026-01-04T22:31:18.000Z</time></trkpt>
        <trkpt lat="29.546824" lon="104.26787"><ele>494.62637</ele><time>2026-01-04T22:31:23.000Z</time></trkpt>
        <trkpt lat="29.546862" lon="104.267911"><ele>495.04083</ele><time>2026-01-04T22:31:28.000Z</time></trkpt>
        <trkpt lat="29.546898" lon="104.26795"><ele>495.144</ele><time>2026-01-04T22:31:33.000Z</time></trkpt>
        <trkpt lat="29.54693" lon="104.267986"><ele>495.35327</ele><time>2026-01-04T22:31:37.000Z</time></trkpt>
        <trkpt lat="29.546968" lon="104.268026"><ele>496.19318</ele><time>2026-01-04T22:31:42.000Z</time></trkpt>
        <trkpt lat="29.547005" lon="104.268072"><ele>497.53424</ele><time>2026-01-04T22:31:47.000Z</time></trkpt>
        <trkpt lat="29.547044" lon="104.26811"><ele>498.59872</ele><time>2026-01-04T22:31:51.000Z</time></trkpt>
        <trkpt lat="29.547086" lon="104.268143"><ele>499.32986</ele><time>2026-01-04T22:31:55.000Z</time></trkpt>
        <trkpt lat="29.547138" lon="104.268153"><ele>500.34338</ele><time>2026-01-04T22:32:00.000Z</time></trkpt>
        <trkpt lat="29.547186" lon="104.268173"><ele>499.8944</ele><time>2026-01-04T22:32:08.000Z</time></trkpt>
        <trkpt lat="29.547226" lon="104.26819"><ele>499.90204</ele><time>2026-01-04T22:32:17.000Z</time></trkpt>
        <trkpt lat="29.547257" lon="104.268217"><ele>499.6143</ele><time>2026-01-04T22:32:21.000Z</time></trkpt>
        <trkpt lat="29.547286" lon="104.268265"><ele>498.90576</ele><time>2026-01-04T22:32:26.000Z</time></trkpt>
        <trkpt lat="29.54732" lon="104.268308"><ele>497.04715</ele><time>2026-01-04T22:32:31.000Z</time></trkpt>
        <trkpt lat="29.547364" lon="104.268353"><ele>495.31003</ele><time>2026-01-04T22:32:36.000Z</time></trkpt>
        <trkpt lat="29.547408" lon="104.268393"><ele>492.90817</ele><time>2026-01-04T22:32:43.000Z</time></trkpt>
        <trkpt lat="29.547438" lon="104.268441"><ele>491.28552</ele><time>2026-01-04T22:32:52.000Z</time></trkpt>
        <trkpt lat="29.547467" lon="104.268471"><ele>490.46075</ele><time>2026-01-04T22:32:57.000Z</time></trkpt>
        <trkpt lat="29.547506" lon="104.268503"><ele>489.98737</ele><time>2026-01-04T22:33:01.000Z</time></trkpt>
        <trkpt lat="29.547551" lon="104.268553"><ele>488.79694</ele><time>2026-01-04T22:33:07.000Z</time></trkpt>
        <trkpt lat="29.547605" lon="104.268586"><ele>488.06134</ele><time>2026-01-04T22:33:12.000Z</time></trkpt>
        <trkpt lat="29.547664" lon="104.268612"><ele>486.33835</ele><time>2026-01-04T22:33:19.000Z</time></trkpt>
        <trkpt lat="29.547704" lon="104.26862"><ele>485.6496</ele><time>2026-01-04T22:33:23.000Z</time></trkpt>
        <trkpt lat="29.547758" lon="104.268627"><ele>484.771</ele><time>2026-01-04T22:33:28.000Z</time></trkpt>
        <trkpt lat="29.547816" lon="104.268639"><ele>484.4484</ele><time>2026-01-04T22:33:33.000Z</time></trkpt>
        <trkpt lat="29.547874" lon="104.268658"><ele>483.19843</ele><time>2026-01-04T22:33:40.000Z</time></trkpt>
        <trkpt lat="29.547915" lon="104.26868"><ele>481.94916</ele><time>2026-01-04T22:33:46.000Z</time></trkpt>
        <trkpt lat="29.547955" lon="104.268701"><ele>480.91574</ele><time>2026-01-04T22:33:51.000Z</time></trkpt>
        <trkpt lat="29.547986" lon="104.268735"><ele>480.69287</ele><time>2026-01-04T22:33:55.000Z</time></trkpt>
        <trkpt lat="29.548017" lon="104.268776"><ele>480.38174</ele><time>2026-01-04T22:33:59.000Z</time></trkpt>
        <trkpt lat="29.548048" lon="104.268821"><ele>480.40802</ele><time>2026-01-04T22:34:03.000Z</time></trkpt>
        <trkpt lat="29.548077" lon="104.268867"><ele>480.3003</ele><time>2026-01-04T22:34:07.000Z</time></trkpt>
        <trkpt lat="29.54811" lon="104.26892"><ele>480.68573</ele><time>2026-01-04T22:34:12.000Z</time></trkpt>
        <trkpt lat="29.54814" lon="104.268969"><ele>480.76166</ele><time>2026-01-04T22:34:17.000Z</time></trkpt>
        <trkpt lat="29.548163" lon="104.269019"><ele>480.94153</ele><time>2026-01-04T22:34:22.000Z</time></trkpt>
        <trkpt lat="29.548186" lon="104.269072"><ele>481.33878</ele><time>2026-01-04T22:34:28.000Z</time></trkpt>
        <trkpt lat="29.54821" lon="104.269129"><ele>481.3843</ele><time>2026-01-04T22:34:35.000Z</time></trkpt>
        <trkpt lat="29.548225" lon="104.269182"><ele>481.37448</ele><time>2026-01-04T22:34:44.000Z</time></trkpt>
        <trkpt lat="29.548251" lon="104.269235"><ele>481.60843</ele><time>2026-01-04T22:34:51.000Z</time></trkpt>
        <trkpt lat="29.548285" lon="104.269283"><ele>481.9975</ele><time>2026-01-04T22:34:57.000Z</time></trkpt>
        <trkpt lat="29.548306" lon="104.269337"><ele>481.87527</ele><time>2026-01-04T22:35:04.000Z</time></trkpt>
        <trkpt lat="29.548324" lon="104.269377"><ele>481.48123</ele><time>2026-01-04T22:35:08.000Z</time></trkpt>
        <trkpt lat="29.548339" lon="104.269435"><ele>481.61893</ele><time>2026-01-04T22:35:13.000Z</time></trkpt>
        <trkpt lat="29.548357" lon="104.269494"><ele>481.47885</ele><time>2026-01-04T22:35:18.000Z</time></trkpt>
        <trkpt lat="29.54838" lon="104.269544"><ele>481.56866</ele><time>2026-01-04T22:35:22.000Z</time></trkpt>
        <trkpt lat="29.548418" lon="104.269589"><ele>481.7103</ele><time>2026-01-04T22:35:25.000Z</time></trkpt>
        <trkpt lat="29.54845" lon="104.26964"><ele>481.93732</ele><time>2026-01-04T22:35:30.000Z</time></trkpt>
        <trkpt lat="29.548481" lon="104.269668"><ele>481.94174</ele><time>2026-01-04T22:35:33.000Z</time></trkpt>
        <trkpt lat="29.54852" lon="104.269709"><ele>481.84177</ele><time>2026-01-04T22:35:38.000Z</time></trkpt>
        <trkpt lat="29.548552" lon="104.269759"><ele>481.60074</ele><time>2026-01-04T22:35:43.000Z</time></trkpt>
        <trkpt lat="29.548578" lon="104.269793"><ele>482.03827</ele><time>2026-01-04T22:35:46.000Z</time></trkpt>
        <trkpt lat="29.548623" lon="104.269833"><ele>482.006</ele><time>2026-01-04T22:35:51.000Z</time></trkpt>
        <trkpt lat="29.548664" lon="104.269856"><ele>481.8639</ele><time>2026-01-04T22:35:54.000Z</time></trkpt>
        <trkpt lat="29.54871" lon="104.269884"><ele>481.67868</ele><time>2026-01-04T22:35:58.000Z</time></trkpt>
        <trkpt lat="29.548749" lon="104.269904"><ele>481.92673</ele><time>2026-01-04T22:36:01.000Z</time></trkpt>
        <trkpt lat="29.548796" lon="104.269938"><ele>482.55054</ele><time>2026-01-04T22:36:05.000Z</time></trkpt>
        <trkpt lat="29.548852" lon="104.269967"><ele>483.03928</ele><time>2026-01-04T22:36:09.000Z</time></trkpt>
        <trkpt lat="29.548906" lon="104.270004"><ele>482.54355</ele><time>2026-01-04T22:36:14.000Z</time></trkpt>
        <trkpt lat="29.54895" lon="104.270031"><ele>482.32025</ele><time>2026-01-04T22:36:18.000Z</time></trkpt>
        <trkpt lat="29.548999" lon="104.270058"><ele>482.27887</ele><time>2026-01-04T22:36:22.000Z</time></trkpt>
        <trkpt lat="29.549046" lon="104.270096"><ele>482.28857</ele><time>2026-01-04T22:36:27.000Z</time></trkpt>
        <trkpt lat="29.549073" lon="104.270143"><ele>482.75333</ele><time>2026-01-04T22:36:32.000Z</time></trkpt>
        <trkpt lat="29.549093" lon="104.270199"><ele>483.79187</ele><time>2026-01-04T22:36:38.000Z</time></trkpt>
        <trkpt lat="29.549138" lon="104.270211"><ele>484.0592</ele><time>2026-01-04T22:36:43.000Z</time></trkpt>
        <trkpt lat="29.549192" lon="104.270222"><ele>483.2806</ele><time>2026-01-04T22:36:49.000Z</time></trkpt>
        <trkpt lat="29.549231" lon="104.27025"><ele>483.0944</ele><time>2026-01-04T22:36:53.000Z</time></trkpt>
        <trkpt lat="29.549279" lon="104.270288"><ele>482.74084</ele><time>2026-01-04T22:36:58.000Z</time></trkpt>
        <trkpt lat="29.549324" lon="104.270317"><ele>482.6159</ele><time>2026-01-04T22:37:02.000Z</time></trkpt>
        <trkpt lat="29.549369" lon="104.270362"><ele>482.24225</ele><time>2026-01-04T22:37:07.000Z</time></trkpt>
        <trkpt lat="29.549396" lon="104.270407"><ele>482.05737</ele><time>2026-01-04T22:37:11.000Z</time></trkpt>
        <trkpt lat="29.549416" lon="104.270456"><ele>482.14923</ele><time>2026-01-04T22:37:15.000Z</time></trkpt>
        <trkpt lat="29.54942" lon="104.270509"><ele>482.48788</ele><time>2026-01-04T22:37:19.000Z</time></trkpt>
        <trkpt lat="29.549408" lon="104.270567"><ele>482.9246</ele><time>2026-01-04T22:37:24.000Z</time></trkpt>
        <trkpt lat="29.54939" lon="104.270616"><ele>483.04663</ele><time>2026-01-04T22:37:28.000Z</time></trkpt>
        <trkpt lat="29.549366" lon="104.27067"><ele>483.3025</ele><time>2026-01-04T22:37:31.000Z</time></trkpt>
        <trkpt lat="29.549343" lon="104.27072"><ele>483.53482</ele><time>2026-01-04T22:37:35.000Z</time></trkpt>
        <trkpt lat="29.549324" lon="104.270772"><ele>484.0275</ele><time>2026-01-04T22:37:39.000Z</time></trkpt>
        <trkpt lat="29.549304" lon="104.270822"><ele>483.92157</ele><time>2026-01-04T22:37:44.000Z</time></trkpt>
        <trkpt lat="29.549282" lon="104.270874"><ele>484.1135</ele><time>2026-01-04T22:37:48.000Z</time></trkpt>
        <trkpt lat="29.549259" lon="104.27093"><ele>484.24704</ele><time>2026-01-04T22:37:53.000Z</time></trkpt>
        <trkpt lat="29.549238" lon="104.27098"><ele>484.8898</ele><time>2026-01-04T22:37:57.000Z</time></trkpt>
        <trkpt lat="29.549218" lon="104.271032"><ele>485.42242</ele><time>2026-01-04T22:38:01.000Z</time></trkpt>
        <trkpt lat="29.549194" lon="104.271081"><ele>485.68088</ele><time>2026-01-04T22:38:05.000Z</time></trkpt>
        <trkpt lat="29.549169" lon="104.271128"><ele>485.8321</ele><time>2026-01-04T22:38:09.000Z</time></trkpt>
        <trkpt lat="29.549145" lon="104.271185"><ele>485.72498</ele><time>2026-01-04T22:38:14.000Z</time></trkpt>
        <trkpt lat="29.549125" lon="104.271232"><ele>485.972</ele><time>2026-01-04T22:38:18.000Z</time></trkpt>
        <trkpt lat="29.549106" lon="104.271279"><ele>486.28592</ele><time>2026-01-04T22:38:22.000Z</time></trkpt>
        <trkpt lat="29.549083" lon="104.271328"><ele>487.08017</ele><time>2026-01-04T22:38:26.000Z</time></trkpt>
        <trkpt lat="29.549062" lon="104.271378"><ele>487.99</ele><time>2026-01-04T22:38:30.000Z</time></trkpt>
        <trkpt lat="29.54904" lon="104.271425"><ele>488.94296</ele><time>2026-01-04T22:38:34.000Z</time></trkpt>
        <trkpt lat="29.54902" lon="104.271473"><ele>489.49756</ele><time>2026-01-04T22:38:38.000Z</time></trkpt>
        <trkpt lat="29.548998" lon="104.27153"><ele>490.2418</ele><time>2026-01-04T22:38:43.000Z</time></trkpt>
        <trkpt lat="29.548981" lon="104.27158"><ele>490.65485</ele><time>2026-01-04T22:38:47.000Z</time></trkpt>
        <trkpt lat="29.548967" lon="104.271634"><ele>491.2388</ele><time>2026-01-04T22:38:51.000Z</time></trkpt>
        <trkpt lat="29.548952" lon="104.271691"><ele>491.52704</ele><time>2026-01-04T22:38:55.000Z</time></trkpt>
        <trkpt lat="29.548937" lon="104.271744"><ele>491.68362</ele><time>2026-01-04T22:38:59.000Z</time></trkpt>
        <trkpt lat="29.54892" lon="104.271795"><ele>491.67404</ele><time>2026-01-04T22:39:03.000Z</time></trkpt>
        <trkpt lat="29.548894" lon="104.271852"><ele>490.92957</ele><time>2026-01-04T22:39:08.000Z</time></trkpt>
        <trkpt lat="29.548872" lon="104.271898"><ele>490.0784</ele><time>2026-01-04T22:39:12.000Z</time></trkpt>
        <trkpt lat="29.548835" lon="104.271946"><ele>488.255</ele><time>2026-01-04T22:39:18.000Z</time></trkpt>
        <trkpt lat="29.548829" lon="104.271986"><ele>487.8883</ele><time>2026-01-04T22:39:21.000Z</time></trkpt>
        <trkpt lat="29.548803" lon="104.272046"><ele>487.3162</ele><time>2026-01-04T22:39:26.000Z</time></trkpt>
        <trkpt lat="29.548773" lon="104.272105"><ele>486.6019</ele><time>2026-01-04T22:39:31.000Z</time></trkpt>
        <trkpt lat="29.548748" lon="104.272154"><ele>485.6411</ele><time>2026-01-04T22:39:35.000Z</time></trkpt>
        <trkpt lat="29.548716" lon="104.272208"><ele>484.39865</ele><time>2026-01-04T22:39:40.000Z</time></trkpt>
        <trkpt lat="29.54869" lon="104.272262"><ele>483.31906</ele><time>2026-01-04T22:39:45.000Z</time></trkpt>
        <trkpt lat="29.548664" lon="104.272318"><ele>482.67813</ele><time>2026-01-04T22:39:50.000Z</time></trkpt>
        <trkpt lat="29.548643" lon="104.272363"><ele>482.28308</ele><time>2026-01-04T22:39:54.000Z</time></trkpt>
        <trkpt lat="29.548624" lon="104.272411"><ele>481.80945</ele><time>2026-01-04T22:39:58.000Z</time></trkpt>
        <trkpt lat="29.548605" lon="104.272459"><ele>481.2594</ele><time>2026-01-04T22:40:02.000Z</time></trkpt>
        <trkpt lat="29.548583" lon="104.27251"><ele>480.68527</ele><time>2026-01-04T22:40:06.000Z</time></trkpt>
        <trkpt lat="29.548561" lon="104.272563"><ele>480.1706</ele><time>2026-01-04T22:40:10.000Z</time></trkpt>
        <trkpt lat="29.548538" lon="104.272613"><ele>479.80634</ele><time>2026-01-04T22:40:14.000Z</time></trkpt>
        <trkpt lat="29.548514" lon="104.272664"><ele>479.00192</ele><time>2026-01-04T22:40:18.000Z</time></trkpt>
        <trkpt lat="29.548485" lon="104.272723"><ele>478.2388</ele><time>2026-01-04T22:40:23.000Z</time></trkpt>
        <trkpt lat="29.548463" lon="104.272771"><ele>477.5506</ele><time>2026-01-04T22:40:27.000Z</time></trkpt>
        <trkpt lat="29.548443" lon="104.27282"><ele>477.01617</ele><time>2026-01-04T22:40:31.000Z</time></trkpt>
        <trkpt lat="29.548423" lon="104.272867"><ele>476.54187</ele><time>2026-01-04T22:40:35.000Z</time></trkpt>
        <trkpt lat="29.548402" lon="104.27292"><ele>476.40518</ele><time>2026-01-04T22:40:39.000Z</time></trkpt>
        <trkpt lat="29.548377" lon="104.272982"><ele>476.0528</ele><time>2026-01-04T22:40:45.000Z</time></trkpt>
        <trkpt lat="29.548355" lon="104.273036"><ele>475.57785</ele><time>2026-01-04T22:40:50.000Z</time></trkpt>
        <trkpt lat="29.548333" lon="104.273087"><ele>475.23108</ele><time>2026-01-04T22:40:54.000Z</time></trkpt>
        <trkpt lat="29.548301" lon="104.27315"><ele>475.0052</ele><time>2026-01-04T22:40:59.000Z</time></trkpt>
        <trkpt lat="29.548278" lon="104.273199"><ele>474.6778</ele><time>2026-01-04T22:41:03.000Z</time></trkpt>
        <trkpt lat="29.54826" lon="104.273262"><ele>474.289</ele><time>2026-01-04T22:41:08.000Z</time></trkpt>
        <trkpt lat="29.54824" lon="104.273317"><ele>474.67923</ele><time>2026-01-04T22:41:12.000Z</time></trkpt>
        <trkpt lat="29.548217" lon="104.273367"><ele>474.4906</ele><time>2026-01-04T22:41:16.000Z</time></trkpt>
        <trkpt lat="29.548191" lon="104.273426"><ele>474.23126</ele><time>2026-01-04T22:41:21.000Z</time></trkpt>
        <trkpt lat="29.54817" lon="104.273478"><ele>473.99136</ele><time>2026-01-04T22:41:25.000Z</time></trkpt>
        <trkpt lat="29.548151" lon="104.273528"><ele>473.9273</ele><time>2026-01-04T22:41:29.000Z</time></trkpt>
        <trkpt lat="29.548115" lon="104.273551"><ele>473.61728</ele><time>2026-01-04T22:41:33.000Z</time></trkpt>
        <trkpt lat="29.548066" lon="104.273566"><ele>472.3602</ele><time>2026-01-04T22:41:38.000Z</time></trkpt>
        <trkpt lat="29.548014" lon="104.273581"><ele>471.564</ele><time>2026-01-04T22:41:43.000Z</time></trkpt>
        <trkpt lat="29.547963" lon="104.273597"><ele>471.43402</ele><time>2026-01-04T22:41:48.000Z</time></trkpt>
        <trkpt lat="29.547915" lon="104.273624"><ele>471.5537</ele><time>2026-01-04T22:41:53.000Z</time></trkpt>
        <trkpt lat="29.547869" lon="104.273646"><ele>471.5783</ele><time>2026-01-04T22:41:57.000Z</time></trkpt>
        <trkpt lat="29.547814" lon="104.273654"><ele>472.05777</ele><time>2026-01-04T22:42:01.000Z</time></trkpt>
        <trkpt lat="29.547759" lon="104.273664"><ele>472.33344</ele><time>2026-01-04T22:42:05.000Z</time></trkpt>
        <trkpt lat="29.547702" lon="104.273664"><ele>473.43155</ele><time>2026-01-04T22:42:09.000Z</time></trkpt>
        <trkpt lat="29.547646" lon="104.273657"><ele>474.44885</ele><time>2026-01-04T22:42:14.000Z</time></trkpt>
      </trkseg>
  </trk>
</gpx>